[[{"header":{"parameterUnit":"m.s-1","parameterCategory":1,"la1":31.0,"la2":29.5877,"lo1":-88.7671,"lo2":-86.6584,"dy":0.0162,"dx":0.0185,"nx":115,"ny":88,"refTime":"2024-03-19T06:00:00:Z","depth":0,"parameterNumber":2,"parameterNumberName":"U-component_of_WINDS"},"data":[0.0,0.0,0.0,0.0,0.0,0.0,0.0,0.0,0.0,0.0,0.0,0.0,0.0,0.0,0.0,0.0,0.0,0.0,0.0,0.0,0.0,0.0,0.0,0.0,0.0,0.0,0.0,0.0,0.0,0.0,0.0,0.0,0.0,0.0,0.0,0.0,0.0,0.0,0.0,0.0,0.0,0.0,0.0,0.0,0.0,0.0,0.0,0.0,0.0,0.0,0.0,0.0,0.0,0.0,0.0,0.0,0.0,0.0,0.0,0.0,0.0,0.0,0.0,0.0,0.0,0.0,0.0,0.0,0.0,0.0,0.0,0.0,0.0,0.0,0.0,0.0,0.0,0.0,0.0,0.0,0.0,0.0,0.0,0.0,0.0,0.0,0.0,0.0,0.0,0.0,0.0,0.0,0.0,0.0,0.0,0.0,0.0,0.0,0.0,0.0,0.0,0.0,0.0,0.0,0.0,0.0,0.0,0.0,0.0,0.0,0.0,0.0,0.0,0.0,0.0,0.0,0.0,0.0,0.0,0.0,0.0,0.0,0.0,0.0,0.0,0.0,0.0,0.0,0.0,0.0,0.0,0.0,0.0,0.0,0.0,0.0,0.0,0.0,0.0,0.0,0.0,0.0,0.0,0.0,0.0,0.0,0.0,0.0,0.0,0.0,0.0,0.0,0.0,0.0,0.0,0.0,0.0,0.0,0.0,0.0,0.0,0.0,0.0,0.0,0.0,0.0,0.0,0.0,0.0,0.0,0.0,0.0,0.0,0.0,0.0,0.0,0.0,0.0,0.0,0.0,0.0,0.0,0.0,0.0,0.0,0.0,0.0,0.0,0.0,0.0,0.0,0.0,0.0,0.0,0.0,0.0,0.0,0.0,0.0,0.0,0.0,0.0,0.0,0.0,0.0,0.0,0.0,0.0,0.0,0.0,0.0,0.0,0.0,0.0,0.0,0.0,0.0,0.0,0.0,0.0,0.0,0.0,0.0,0.0,0.0,0.0,0.0,0.0,0.0,0.0,0.0,0.0,0.0,0.0,0.0,0.0,0.0,0.0,0.0,0.0,0.0,0.0,0.0,0.0,0.0,0.0,0.0,0.0,0.0,0.0,0.0,0.0,0.0,0.0,0.0,0.0,0.0,0.0,0.0,0.0,0.0,0.0,0.0,0.0,0.0,0.0,0.0,0.0,0.0,0.0,0.0,0.0,0.0,0.0,0.0,0.0,0.0,0.0,0.0,0.0,0.0,0.0,0.0,0.0,0.0,0.0,0.0,0.0,0.0,0.0,0.0,0.0,0.0,0.0,0.0,0.0,0.0,0.0,0.0,0.0,0.0,0.0,0.0,0.0,0.0,0.0,0.0,0.0,0.0,0.0,0.0,0.0,0.0,0.0,0.0,0.0,0.0,0.0,0.0,0.0,0.0,0.0,0.0,0.0,0.0,0.0,0.0,0.0,0.0,0.0,0.0,0.0,0.0,0.0,0.0,0.0,0.0,0.0,0.0,0.0,0.0,0.0,0.0,0.0,0.0,0.0,0.0,0.0,0.0,0.0,0.0,0.0,0.0,0.0,0.0,0.0,0.0,0.0,0.0,0.0,0.0,0.0,0.0,0.0,0.0,0.0,0.0,0.0,0.0,0.0,0.0,0.0,0.0,0.0,0.0,0.0,0.0,0.0,0.0,0.0,0.0,0.0,0.0,0.0,0.0,0.0,0.0,0.0,0.0,0.0,0.0,0.0,0.0,0.0,0.0,0.0,0.0,0.0,0.0,0.0,0.0,0.0,0.0,0.0,0.0,0.0,0.0,0.0,0.0,0.0,0.0,0.0,0.0,0.0,0.0,0.0,0.0,0.0,0.0,0.0,0.0,0.0,0.0,0.0,0.0,0.0,0.0,0.0,0.0,0.0,0.0,0.0,0.0,0.0,0.0,0.0,0.0,0.0,0.0,0.0,0.0,0.0,0.0,0.0,0.0,0.0,0.0,0.0,0.0,0.0,0.0,0.0,0.0,0.0,0.0,0.0,0.0,0.0,0.0,0.0,0.0,0.0,0.0,0.0,0.0,0.0,0.0,0.0,0.0,0.0,0.0,0.0,0.0,0.0,0.0,0.0,0.0,0.0,0.0,0.0,0.0,0.0,0.0,0.0,0.0,0.0,0.0,0.0,0.0,0.0,0.0,0.0,0.0,0.0,0.0,0.0,0.0,0.0,0.0,0.0,0.0,0.0,0.0,0.0,0.0,0.0,0.0,0.0,0.0,0.0,0.0,0.0,0.0,0.0,0.0,0.0,0.0,0.0,0.0,0.0,0.0,0.0,0.0,0.0,0.0,0.0,0.0,0.0,0.0,0.0,0.0,0.0,0.0,0.0,0.0,0.0,0.0,0.0,0.0,0.0,0.0,0.0,0.0,0.0,0.0,0.0,0.0,0.0,0.0,0.0,0.0,0.0,0.0,0.0,0.0,0.0,0.0,0.0,0.0,0.0,0.0,0.0,0.0,0.0,0.0,0.0,0.0,0.0,0.0,0.0,0.0,0.0,0.0,0.0,0.0,0.0,0.0,0.0,0.0,0.0,0.0,0.0,0.0,0.0,0.0,0.0,0.0,0.0,0.0,0.0,0.0,0.0,0.0,0.0,0.0,0.0,0.0,0.0,0.0,0.0,0.0,0.0,0.0,0.0,0.0,0.0,0.0,0.0,0.0,0.0,0.0,0.0,0.0,0.0,0.0,0.0,0.0,0.0,0.0,0.0,0.0,0.0,0.0,0.0,0.0,0.0,0.0,0.0,0.0,0.0,0.0,0.0,0.0,0.0,0.0,0.0,0.0,0.0,0.0,0.0,0.0,0.0,0.0,0.0,0.0,0.0,0.0,0.0,0.0,0.0,0.0,0.0,0.0,0.0,0.0,0.0,0.0,0.0,0.0,0.0,0.0,0.0,0.0,0.0,0.0,0.0,0.0,0.0,0.0,0.0,0.0,0.0,0.0,0.0,0.0,0.0,0.0,0.0,0.0,0.0,0.0,0.0,0.0,0.0,0.0,0.0,0.0,0.0,0.0,0.0,0.0,0.0,0.0,0.0,0.0,0.0,0.0,0.0,0.0,0.0,0.0,0.0,0.0,0.0,0.0,0.0,0.0,0.0,0.0,0.0,0.0,0.0,0.0,0.0,0.0,0.0,0.0,0.0,0.0,0.0,0.0,0.0,0.0,0.0,0.0,0.0,0.0,0.0,0.0,0.0,0.0,0.0,0.0,0.0,0.0,0.0,0.0,0.0,0.0,0.0,0.0,0.0,0.0,0.0,0.0,0.0,0.0,0.0,0.0,0.0,0.0,0.0,0.0,0.0,0.0,0.0,0.0,0.0,0.0,0.0,0.0,0.0,0.0,0.0,0.0,0.0,0.0,0.0,0.0,0.0,0.0,0.0,0.0,0.0,0.0,0.0,0.0,0.0,0.0,0.0,0.0,0.0,0.0,0.0,0.0,0.0,0.0,0.0,0.0,0.0,0.0,0.0,0.0,0.0,0.0,0.0,0.0,0.0,0.0,0.0,0.0,0.0,0.0,0.0,0.0,0.0,0.0,0.0,0.0,0.0,0.0,0.0,0.0,0.0,0.0,0.0,0.0,0.0,0.0,0.0,0.0,0.0,0.0,0.0,0.0,0.0,0.0,0.0,0.0,0.0,0.0,0.0,0.0,0.0,0.0,0.0,0.0,0.0,0.0,0.0,0.0,0.0,0.0,0.0,0.0,0.0,0.0,0.0,0.0,0.0,0.0,0.0,0.0,0.0,0.0,0.0,0.0,0.0,0.0,0.0,0.0,0.0,0.0,0.0,0.0,0.0,0.0,0.0,0.0,0.0,0.0,0.0,0.0,0.0,0.0,0.0,0.0,0.0,0.0,0.0,0.0,0.0,0.0,0.0,0.0,0.0,0.0,0.0,0.0,0.0,0.0,0.0,0.0,0.0,0.0,0.0,0.0,0.0,0.0,0.0,0.0,0.0,0.0,0.0,0.0,0.0,0.0,0.0,0.0,0.0,0.0,0.0,0.0,0.0,0.0,0.0,0.0,0.0,0.0,0.0,0.0,0.0,0.0,0.0,0.0,0.0,0.0,0.0,0.0,0.0,0.0,0.0,0.0,0.0,0.0,0.0,0.0,0.0,0.0,0.0,0.0,0.0,0.0,0.0,0.0,0.0,0.0,0.0,0.0,0.0,0.0,0.0,0.0,0.0,0.0,0.0,0.0,0.0,0.0,0.0,0.0,0.0,0.0,0.0,0.0,0.0,5.0234,0.0,0.0,0.0,0.0,0.0,0.0,0.0,0.0,0.0,0.0,0.0,0.0,0.0,0.0,0.0,0.0,0.0,0.0,0.0,0.0,0.0,0.0,0.0,0.0,0.0,0.0,0.0,0.0,0.0,0.0,0.0,0.0,0.0,0.0,0.0,0.0,0.0,0.0,0.0,0.0,0.0,0.0,0.0,0.0,0.0,0.0,0.0,0.0,0.0,0.0,0.0,0.0,0.0,0.0,0.0,0.0,0.0,0.0,0.0,0.0,0.0,0.0,0.0,0.0,0.0,0.0,0.0,0.0,0.0,0.0,0.0,0.0,0.0,0.0,0.0,0.0,0.0,0.0,0.0,0.0,0.0,0.0,0.0,0.0,0.0,0.0,0.0,0.0,0.0,0.0,0.0,0.0,0.0,0.0,0.0,0.0,0.0,0.0,0.0,0.0,0.0,0.0,0.0,0.0,0.0,0.0,0.0,0.0,0.0,0.0,5.0586,5.1367,5.1406,5.1016,5.0195,0.0,0.0,0.0,0.0,0.0,0.0,0.0,0.0,0.0,0.0,0.0,0.0,0.0,0.0,0.0,0.0,0.0,0.0,0.0,0.0,0.0,0.0,0.0,0.0,0.0,0.0,0.0,0.0,0.0,0.0,0.0,0.0,0.0,0.0,0.0,0.0,0.0,0.0,0.0,0.0,0.0,0.0,0.0,0.0,0.0,0.0,0.0,0.0,0.0,0.0,0.0,0.0,0.0,0.0,0.0,0.0,0.0,0.0,0.0,0.0,0.0,0.0,0.0,0.0,0.0,0.0,0.0,0.0,0.0,0.0,0.0,0.0,0.0,0.0,0.0,0.0,0.0,0.0,0.0,0.0,0.0,0.0,0.0,0.0,0.0,0.0,0.0,0.0,0.0,0.0,0.0,0.0,0.0,0.0,0.0,0.0,0.0,0.0,0.0,0.0,0.0,0.0,0.0,0.0,0.0,0.0,0.0,0.0,0.0,0.0,0.0,0.0,5.1406,5.0937,4.9922,0.0,0.0,0.0,0.0,0.0,0.0,0.0,0.0,0.0,0.0,0.0,0.0,0.0,0.0,0.0,0.0,0.0,0.0,0.0,0.0,0.0,0.0,0.0,0.0,0.0,0.0,0.0,0.0,0.0,0.0,0.0,0.0,0.0,0.0,0.0,0.0,0.0,0.0,0.0,0.0,0.0,0.0,0.0,0.0,0.0,0.0,0.0,0.0,0.0,0.0,0.0,0.0,0.0,0.0,0.0,0.0,0.0,0.0,0.0,0.0,0.0,0.0,0.0,0.0,0.0,0.0,0.0,0.0,0.0,0.0,0.0,0.0,0.0,0.0,0.0,0.0,0.0,0.0,0.0,0.0,0.0,0.0,0.0,0.0,0.0,0.0,0.0,0.0,0.0,0.0,0.0,0.0,0.0,0.0,0.0,0.0,0.0,0.0,0.0,0.0,0.0,0.0,0.0,0.0,0.0,0.0,0.0,0.0,0.0,0.0,5.1328,5.1406,5.1367,0.0,4.9141,0.0,0.0,0.0,0.0,0.0,0.0,0.0,0.0,0.0,0.0,0.0,0.0,0.0,0.0,0.0,0.0,0.0,0.0,0.0,0.0,0.0,0.0,0.0,0.0,0.0,0.0,0.0,0.0,0.0,0.0,0.0,0.0,0.0,0.0,0.0,0.0,0.0,0.0,0.0,0.0,0.0,0.0,0.0,0.0,0.0,0.0,0.0,0.0,0.0,0.0,0.0,0.0,0.0,0.0,0.0,0.0,0.0,0.0,0.0,0.0,0.0,0.0,0.0,0.0,0.0,0.0,0.0,0.0,0.0,0.0,0.0,0.0,0.0,0.0,0.0,0.0,0.0,0.0,0.0,0.0,0.0,0.0,0.0,0.0,0.0,0.0,0.0,0.0,0.0,0.0,0.0,0.0,0.0,0.0,0.0,0.0,0.0,0.0,0.0,0.0,0.0,0.0,0.0,0.0,0.0,0.0,0.0,0.0,0.0,0.0,5.1406,5.1406,5.043,4.9609,0.0,0.0,0.0,0.0,0.0,0.0,0.0,0.0,0.0,0.0,0.0,0.0,0.0,0.0,0.0,0.0,0.0,0.0,0.0,0.0,0.0,0.0,0.0,0.0,0.0,0.0,0.0,0.0,0.0,0.0,0.0,0.0,0.0,0.0,0.0,0.0,0.0,0.0,0.0,0.0,0.0,0.0,0.0,0.0,0.0,0.0,0.0,0.0,0.0,0.0,0.0,0.0,0.0,0.0,0.0,0.0,0.0,0.0,0.0,0.0,0.0,0.0,0.0,0.0,0.0,0.0,0.0,0.0,0.0,0.0,0.0,0.0,0.0,0.0,0.0,0.0,0.0,0.0,0.0,0.0,0.0,0.0,0.0,0.0,0.0,0.0,0.0,0.0,0.0,0.0,0.0,0.0,0.0,0.0,0.0,0.0,0.0,0.0,0.0,0.0,0.0,0.0,0.0,0.0,0.0,0.0,0.0,0.0,0.0,0.0,5.1094,5.1406,5.1328,5.0234,4.9375,4.8906,0.0,0.0,0.0,0.0,0.0,0.0,0.0,0.0,0.0,0.0,0.0,0.0,0.0,0.0,0.0,0.0,0.0,0.0,0.0,0.0,0.0,0.0,0.0,0.0,0.0,0.0,0.0,0.0,0.0,0.0,0.0,0.0,0.0,0.0,0.0,0.0,0.0,0.0,0.0,0.0,0.0,0.0,0.0,0.0,0.0,0.0,0.0,0.0,0.0,0.0,0.0,0.0,0.0,0.0,0.0,0.0,0.0,0.0,0.0,0.0,0.0,0.0,0.0,0.0,0.0,0.0,0.0,0.0,0.0,0.0,0.0,0.0,0.0,0.0,0.0,0.0,0.0,0.0,0.0,0.0,0.0,0.0,0.0,0.0,0.0,0.0,0.0,0.0,0.0,0.0,0.0,0.0,0.0,0.0,0.0,0.0,0.0,0.0,0.0,0.0,0.0,0.0,0.0,0.0,0.0,0.0,0.0,0.0,5.125,5.1367,5.1406,5.1406,5.1328,5.0547,0.0,0.0,0.0,0.0,0.0,0.0,0.0,0.0,0.0,0.0,0.0,0.0,0.0,0.0,0.0,0.0,0.0,0.0,0.0,0.0,0.0,0.0,0.0,0.0,0.0,0.0,0.0,0.0,0.0,0.0,0.0,0.0,0.0,0.0,0.0,0.0,0.0,0.0,0.0,0.0,0.0,0.0,0.0,0.0,0.0,0.0,0.0,0.0,0.0,0.0,0.0,0.0,0.0,0.0,0.0,0.0,0.0,0.0,0.0,0.0,0.0,0.0,0.0,0.0,0.0,0.0,0.0,0.0,0.0,0.0,0.0,0.0,0.0,0.0,0.0,0.0,0.0,0.0,0.0,0.0,0.0,0.0,0.0,0.0,0.0,0.0,0.0,0.0,0.0,0.0,0.0,0.0,0.0,0.0,0.0,0.0,0.0,0.0,0.0,0.0,0.0,0.0,0.0,0.0,0.0,0.0,0.0,0.0,0.0,5.0586,5.1133,5.1406,5.1367,5.0351,4.9492,0.0,0.0,0.0,0.0,0.0,0.0,0.0,0.0,0.0,0.0,0.0,0.0,0.0,0.0,0.0,0.0,0.0,0.0,0.0,0.0,0.0,0.0,0.0,0.0,0.0,0.0,0.0,0.0,0.0,0.0,0.0,0.0,0.0,0.0,0.0,0.0,0.0,0.0,0.0,0.0,0.0,0.0,0.0,0.0,0.0,0.0,0.0,0.0,0.0,0.0,0.0,0.0,0.0,0.0,0.0,0.0,0.0,0.0,0.0,0.0,0.0,0.0,0.0,0.0,0.0,0.0,0.0,0.0,0.0,0.0,0.0,0.0,0.0,0.0,0.0,0.0,0.0,0.0,0.0,0.0,0.0,0.0,0.0,0.0,0.0,0.0,0.0,0.0,0.0,0.0,0.0,0.0,0.0,0.0,0.0,0.0,0.0,0.0,0.0,0.0,0.0,0.0,0.0,0.0,0.0,0.0,0.0,0.0,0.0,5.0156,0.0,5.1406,5.1328,5.0039,4.918,0.0,0.0,0.0,0.0,0.0,0.0,0.0,0.0,0.0,0.0,0.0,0.0,0.0,0.0,0.0,0.0,0.0,0.0,0.0,0.0,0.0,0.0,0.0,0.0,0.0,0.0,0.0,0.0,0.0,0.0,0.0,0.0,0.0,0.0,0.0,0.0,0.0,0.0,0.0,0.0,0.0,0.0,0.0,0.0,0.0,0.0,0.0,0.0,0.0,0.0,0.0,0.0,0.0,0.0,0.0,0.0,0.0,0.0,0.0,0.0,0.0,0.0,0.0,0.0,0.0,0.0,0.0,0.0,0.0,0.0,0.0,0.0,0.0,0.0,0.0,0.0,0.0,0.0,0.0,0.0,0.0,0.0,0.0,0.0,0.0,0.0,0.0,0.0,0.0,0.0,0.0,0.0,0.0,0.0,0.0,0.0,0.0,0.0,0.0,0.0,0.0,0.0,0.0,0.0,0.0,0.0,0.0,0.0,4.8476,5.0117,5.0976,5.1406,5.1367,5.0547,4.9766,0.0,0.0,0.0,0.0,0.0,0.0,0.0,0.0,0.0,0.0,0.0,0.0,0.0,0.0,0.0,0.0,0.0,0.0,0.0,0.0,0.0,0.0,0.0,0.0,0.0,0.0,0.0,0.0,0.0,0.0,0.0,0.0,0.0,0.0,0.0,0.0,0.0,0.0,0.0,0.0,0.0,0.0,0.0,0.0,0.0,0.0,0.0,0.0,0.0,0.0,0.0,0.0,0.0,0.0,0.0,0.0,0.0,0.0,0.0,0.0,0.0,0.0,0.0,0.0,0.0,0.0,0.0,0.0,0.0,0.0,0.0,0.0,0.0,0.0,0.0,0.0,0.0,0.0,0.0,0.0,0.0,0.0,0.0,0.0,0.0,0.0,0.0,0.0,0.0,0.0,0.0,0.0,0.0,0.0,0.0,0.0,0.0,0.0,0.0,0.0,0.0,0.0,0.0,0.0,0.0,0.0,0.0,0.0,0.0,4.9297,5.0664,5.1406,5.1367,5.0039,4.918,0.0,0.0,0.0,0.0,0.0,0.0,0.0,0.0,0.0,0.0,0.0,0.0,0.0,0.0,0.0,0.0,0.0,0.0,0.0,0.0,0.0,0.0,0.0,0.0,0.0,0.0,0.0,0.0,0.0,0.0,0.0,0.0,0.0,0.0,0.0,0.0,0.0,0.0,0.0,0.0,0.0,0.0,0.0,0.0,0.0,0.0,0.0,0.0,0.0,0.0,0.0,0.0,0.0,0.0,0.0,0.0,0.0,0.0,0.0,0.0,0.0,0.0,0.0,0.0,0.0,0.0,0.0,0.0,0.0,0.0,0.0,0.0,0.0,0.0,0.0,0.0,0.0,0.0,0.0,0.0,0.0,0.0,0.0,0.0,0.0,0.0,0.0,0.0,0.0,0.0,0.0,0.0,0.0,0.0,0.0,0.0,0.0,0.0,0.0,0.0,0.0,0.0,0.0,0.0,0.0,0.0,0.0,0.0,0.0,5.082,5.2148,5.2851,5.2851,5.1211,4.9883,4.8906,0.0,0.0,0.0,0.0,0.0,0.0,0.0,0.0,0.0,0.0,0.0,0.0,0.0,0.0,0.0,0.0,0.0,0.0,0.0,0.0,0.0,0.0,0.0,0.0,0.0,0.0,0.0,0.0,0.0,0.0,0.0,0.0,0.0,0.0,0.0,0.0,0.0,0.0,0.0,0.0,0.0,0.0,0.0,0.0,0.0,0.0,0.0,0.0,0.0,0.0,0.0,0.0,0.0,0.0,0.0,0.0,0.0,0.0,0.0,0.0,0.0,0.0,0.0,0.0,0.0,0.0,0.0,0.0,0.0,0.0,0.0,0.0,0.0,0.0,0.0,0.0,0.0,0.0,0.0,0.0,0.0,0.0,0.0,0.0,0.0,0.0,0.0,0.0,0.0,0.0,0.0,0.0,0.0,0.0,0.0,0.0,0.0,0.0,0.0,0.0,0.0,0.0,0.0,0.0,0.0,0.0,0.0,0.0,5.418,5.5195,5.5703,5.5508,5.3672,5.1562,0.0,0.0,0.0,0.0,0.0,0.0,0.0,0.0,0.0,0.0,0.0,0.0,0.0,0.0,0.0,0.0,0.0,0.0,0.0,0.0,0.0,0.0,0.0,0.0,0.0,0.0,0.0,0.0,0.0,0.0,0.0,0.0,0.0,0.0,0.0,0.0,0.0,0.0,0.0,0.0,0.0,0.0,0.0,0.0,0.0,0.0,0.0,0.0,0.0,0.0,0.0,0.0,0.0,0.0,0.0,0.0,0.0,0.0,0.0,0.0,0.0,0.0,0.0,0.0,0.0,0.0,0.0,0.0,0.0,0.0,0.0,0.0,0.0,0.0,0.0,0.0,0.0,0.0,0.0,0.0,0.0,0.0,0.0,0.0,0.0,0.0,0.0,0.0,0.0,0.0,0.0,0.0,0.0,0.0,0.0,0.0,0.0,0.0,0.0,0.0,0.0,0.0,0.0,0.0,0.0,0.0,0.0,0.0,0.0,5.6836,5.957,6.0078,5.8164,5.4648,5.2383,0.0,0.0,0.0,0.0,0.0,0.0,0.0,0.0,0.0,0.0,0.0,0.0,0.0,0.0,0.0,0.0,0.0,0.0,0.0,0.0,0.0,0.0,0.0,0.0,0.0,0.0,0.0,0.0,0.0,0.0,0.0,0.0,0.0,0.0,0.0,0.0,0.0,0.0,0.0,0.0,0.0,0.0,0.0,0.0,0.0,0.0,0.0,0.0,0.0,0.0,0.0,0.0,0.0,0.0,0.0,0.0,0.0,0.0,0.0,0.0,0.0,0.0,0.0,0.0,0.0,0.0,0.0,0.0,0.0,0.0,0.0,0.0,0.0,0.0,0.0,0.0,0.0,0.0,0.0,0.0,0.0,0.0,0.0,0.0,0.0,0.0,0.0,0.0,0.0,0.0,0.0,0.0,0.0,0.0,0.0,0.0,0.0,0.0,0.0,0.0,0.0,0.0,0.0,0.0,0.0,0.0,0.0,0.0,5.5664,5.8437,6.25,6.3945,6.2461,5.7539,5.418,0.0,0.0,0.0,0.0,0.0,0.0,0.0,0.0,0.0,0.0,0.0,0.0,0.0,0.0,0.0,0.0,0.0,0.0,0.0,0.0,0.0,0.0,0.0,0.0,0.0,0.0,0.0,0.0,0.0,0.0,0.0,0.0,0.0,0.0,0.0,0.0,0.0,0.0,0.0,0.0,0.0,0.0,0.0,0.0,0.0,0.0,0.0,0.0,0.0,0.0,0.0,0.0,0.0,0.0,0.0,0.0,0.0,0.0,0.0,0.0,0.0,0.0,0.0,0.0,0.0,0.0,0.0,0.0,0.0,0.0,0.0,0.0,0.0,0.0,0.0,0.0,0.0,0.0,0.0,0.0,0.0,0.0,0.0,0.0,0.0,0.0,0.0,0.0,0.0,0.0,0.0,0.0,0.0,0.0,0.0,0.0,0.0,0.0,0.0,0.0,0.0,0.0,0.0,0.0,0.0,0.0,0.0,0.0,5.7383,5.9336,6.418,6.6758,6.6601,6.1015,5.6406,0.0,0.0,0.0,0.0,0.0,0.0,0.0,0.0,0.0,0.0,0.0,0.0,0.0,0.0,0.0,0.0,0.0,0.0,0.0,0.0,0.0,0.0,0.0,0.0,0.0,0.0,0.0,0.0,0.0,0.0,0.0,0.0,0.0,0.0,0.0,0.0,0.0,0.0,0.0,0.0,0.0,0.0,0.0,0.0,0.0,0.0,0.0,0.0,0.0,0.0,0.0,0.0,0.0,0.0,0.0,0.0,0.0,0.0,0.0,0.0,0.0,0.0,0.0,0.0,0.0,0.0,0.0,0.0,0.0,0.0,0.0,0.0,0.0,0.0,0.0,0.0,0.0,0.0,0.0,0.0,0.0,0.0,0.0,0.0,0.0,0.0,0.0,0.0,0.0,0.0,0.0,0.0,0.0,0.0,0.0,0.0,0.0,0.0,0.0,0.0,0.0,0.0,0.0,0.0,0.0,0.0,0.0,0.0,5.707,6.0117,6.3906,6.5859,6.5859,6.0703,5.7226,0.0,0.0,0.0,0.0,0.0,0.0,0.0,0.0,0.0,0.0,0.0,0.0,0.0,0.0,0.0,0.0,0.0,0.0,0.0,0.0,0.0,0.0,0.0,0.0,0.0,0.0,0.0,0.0,0.0,0.0,0.0,0.0,0.0,0.0,0.0,0.0,0.0,0.0,0.0,0.0,0.0,0.0,0.0,0.0,0.0,0.0,0.0,0.0,5.4879,0.0,0.0,0.0,0.0,0.0,0.0,0.0,0.0,0.0,0.0,0.0,0.0,0.0,0.0,0.0,0.0,0.0,0.0,0.0,0.0,0.0,0.0,0.0,0.0,0.0,0.0,0.0,0.0,0.0,0.0,0.0,0.0,0.0,0.0,0.0,0.0,0.0,0.0,0.0,0.0,0.0,0.0,0.0,0.0,0.0,0.0,0.0,0.0,0.0,0.0,0.0,0.0,0.0,0.0,0.0,0.0,0.0,0.0,0.0,5.6953,6.0351,6.3398,6.5195,6.543,6.1758,5.8711,0.0,0.0,0.0,0.0,0.0,0.0,0.0,0.0,0.0,0.0,0.0,0.0,0.0,0.0,0.0,0.0,0.0,0.0,0.0,0.0,0.0,0.0,0.0,0.0,0.0,0.0,0.0,0.0,0.0,0.0,0.0,0.0,0.0,0.0,0.0,0.0,0.0,0.0,0.0,0.0,0.0,0.0,0.0,0.0,0.0,0.0,0.0,0.0,0.0,0.0,0.0,0.0,0.0,0.0,0.0,0.0,0.0,0.0,0.0,0.0,0.0,0.0,0.0,0.0,0.0,0.0,0.0,0.0,0.0,0.0,0.0,0.0,0.0,0.0,0.0,0.0,0.0,0.0,0.0,0.0,0.0,0.0,0.0,0.0,0.0,0.0,0.0,0.0,0.0,0.0,0.0,0.0,0.0,0.0,0.0,0.0,0.0,0.0,0.0,0.0,0.0,0.0,0.0,0.0,0.0,0.0,0.0,5.3984,5.6914,6.0508,6.289,6.4453,6.5156,6.2812,5.9883,5.6523,0.0,0.0,0.0,0.0,0.0,0.0,0.0,0.0,0.0,0.0,0.0,0.0,0.0,0.0,0.0,0.0,0.0,0.0,0.0,0.0,0.0,0.0,0.0,0.0,0.0,0.0,0.0,0.0,0.0,0.0,0.0,0.0,0.0,0.0,0.0,0.0,0.0,0.0,5.2156,5.1956,0.0,0.0,0.0,0.0,0.0,0.0,0.0,0.0,5.4128,0.0,0.0,0.0,0.0,0.0,0.0,0.0,0.0,0.0,0.0,0.0,0.0,0.0,0.0,0.0,0.0,0.0,0.0,0.0,0.0,0.0,0.0,0.0,0.0,0.0,0.0,0.0,0.0,0.0,0.0,0.0,0.0,0.0,0.0,0.0,0.0,0.0,0.0,0.0,0.0,0.0,0.0,0.0,0.0,0.0,0.0,0.0,0.0,0.0,0.0,0.0,0.0,0.0,0.0,0.0,0.0,5.3476,5.3984,5.6601,6.1367,6.2617,6.3281,6.3359,6.1601,5.8984,5.5664,0.0,0.0,0.0,0.0,0.0,0.0,0.0,0.0,0.0,0.0,0.0,0.0,0.0,0.0,0.0,0.0,0.0,0.0,0.0,0.0,0.0,0.0,0.0,0.0,0.0,0.0,0.0,0.0,0.0,0.0,0.0,0.0,0.0,0.0,0.0,0.0,0.0,0.0,0.0,5.4489,5.4255,0.0,0.0,0.0,0.0,0.0,0.0,0.0,0.0,5.5659,0.0,0.0,0.0,0.0,0.0,0.0,0.0,0.0,0.0,0.0,0.0,0.0,0.0,0.0,0.0,0.0,0.0,0.0,0.0,0.0,0.0,0.0,0.0,0.0,0.0,0.0,0.0,0.0,0.0,0.0,0.0,0.0,0.0,0.0,0.0,0.0,0.0,0.0,0.0,0.0,0.0,0.0,0.0,0.0,0.0,0.0,0.0,0.0,0.0,0.0,0.0,0.0,0.0,0.0,0.0,5.375,5.5351,5.7851,6.1562,6.2109,6.2539,6.293,6.0898,5.8359,0.0,0.0,0.0,0.0,0.0,0.0,0.0,0.0,0.0,0.0,0.0,0.0,0.0,0.0,0.0,0.0,0.0,0.0,0.0,0.0,0.0,0.0,0.0,0.0,0.0,0.0,0.0,0.0,0.0,0.0,0.0,0.0,0.0,0.0,0.0,0.0,0.0,0.0,0.0,0.0,5.5465,5.5606,5.8116,0.0,0.0,0.0,0.0,0.0,0.0,5.5978,5.5517,0.0,0.0,0.0,0.0,0.0,0.0,0.0,0.0,0.0,0.0,0.0,0.0,0.0,0.0,0.0,0.0,0.0,0.0,0.0,0.0,0.0,0.0,0.0,0.0,0.0,0.0,0.0,0.0,0.0,0.0,0.0,0.0,0.0,0.0,0.0,0.0,0.0,0.0,0.0,0.0,0.0,0.0,0.0,0.0,0.0,0.0,0.0,0.0,0.0,0.0,0.0,0.0,0.0,0.0,0.0,5.3906,5.6562,5.914,6.1562,6.1719,6.2031,6.2656,5.9765,5.7109,0.0,0.0,0.0,0.0,0.0,0.0,0.0,0.0,0.0,0.0,0.0,0.0,0.0,0.0,0.0,0.0,0.0,0.0,0.0,0.0,0.0,0.0,0.0,0.0,0.0,0.0,0.0,0.0,0.0,0.0,0.0,0.0,0.0,0.0,0.0,0.0,0.0,0.0,0.0,0.0,0.0,5.6809,5.9542,5.7421,0.0,0.0,0.0,0.0,5.5747,5.6163,0.0,0.0,0.0,0.0,0.0,0.0,0.0,0.0,0.0,0.0,0.0,0.0,0.0,0.0,0.0,0.0,0.0,0.0,0.0,0.0,0.0,0.0,0.0,0.0,0.0,0.0,0.0,0.0,0.0,0.0,0.0,0.0,0.0,0.0,0.0,0.0,0.0,0.0,0.0,0.0,0.0,0.0,0.0,0.0,0.0,0.0,0.0,0.0,0.0,0.0,0.0,0.0,0.0,0.0,0.0,0.0,5.3906,5.6562,5.914,6.1562,6.1719,6.1758,6.1797,5.7148,5.4101,0.0,0.0,0.0,0.0,0.0,0.0,0.0,0.0,0.0,0.0,0.0,0.0,0.0,0.0,0.0,0.0,0.0,0.0,0.0,0.0,0.0,0.0,0.0,0.0,0.0,0.0,0.0,0.0,0.0,0.0,0.0,0.0,0.0,0.0,0.0,0.0,0.0,0.0,0.0,0.0,0.0,5.7863,5.8909,5.7538,5.6329,0.0,0.0,5.8403,5.905,6.0406,0.0,0.0,0.0,0.0,0.0,0.0,0.0,0.0,0.0,0.0,0.0,0.0,0.0,0.0,0.0,0.0,0.0,0.0,0.0,0.0,0.0,0.0,0.0,0.0,0.0,0.0,0.0,0.0,0.0,0.0,0.0,0.0,0.0,0.0,0.0,0.0,0.0,0.0,0.0,0.0,0.0,0.0,0.0,0.0,0.0,0.0,0.0,0.0,0.0,0.0,0.0,0.0,0.0,0.0,0.0,5.1172,5.4023,5.7969,6.0586,6.164,6.1719,6.1719,6.168,5.6719,5.3594,0.0,0.0,0.0,0.0,0.0,0.0,0.0,0.0,0.0,0.0,0.0,0.0,0.0,0.0,0.0,0.0,0.0,0.0,0.0,0.0,0.0,0.0,0.0,0.0,0.0,0.0,0.0,0.0,0.0,0.0,0.0,0.0,0.0,0.0,0.0,0.0,0.0,0.0,0.0,0.0,0.0,0.0,6.0047,5.9238,0.0,0.0,0.0,5.8842,5.7712,0.0,0.0,0.0,0.0,0.0,0.0,0.0,0.0,0.0,0.0,0.0,0.0,0.0,0.0,0.0,0.0,0.0,0.0,0.0,0.0,0.0,0.0,0.0,0.0,0.0,0.0,0.0,0.0,0.0,0.0,0.0,0.0,0.0,0.0,0.0,0.0,0.0,0.0,0.0,0.0,0.0,0.0,0.0,0.0,0.0,0.0,0.0,0.0,0.0,0.0,0.0,0.0,0.0,0.0,0.0,0.0,0.0,5.375,5.8984,6.1719,6.1719,6.1719,6.1719,6.164,5.7305,0.0,0.0,0.0,0.0,0.0,0.0,0.0,0.0,0.0,0.0,0.0,0.0,0.0,0.0,0.0,0.0,0.0,0.0,0.0,0.0,0.0,0.0,0.0,0.0,0.0,0.0,0.0,4.7081,0.0,0.0,0.0,0.0,0.0,0.0,0.0,0.0,0.0,0.0,0.0,0.0,0.0,0.0,5.9381,6.0677,6.0381,6.0127,0.0,0.0,5.9232,5.7959,6.0762,6.1403,0.0,0.0,0.0,0.0,0.0,0.0,0.0,0.0,0.0,0.0,0.0,0.0,0.0,0.0,0.0,0.0,0.0,0.0,0.0,0.0,0.0,0.0,0.0,0.0,0.0,0.0,0.0,0.0,0.0,0.0,0.0,0.0,0.0,0.0,0.0,0.0,0.0,0.0,0.0,0.0,0.0,0.0,0.0,0.0,0.0,0.0,0.0,0.0,0.0,0.0,0.0,0.0,0.0,0.0,0.0,5.2969,5.8672,6.1719,6.1719,6.1719,6.1719,6.164,5.9062,5.5664,0.0,0.0,0.0,0.0,0.0,0.0,0.0,0.0,0.0,0.0,0.0,0.0,0.0,0.0,0.0,0.0,0.0,0.0,0.0,0.0,0.0,0.0,0.0,0.0,0.0,0.0,0.0,0.0,0.0,0.0,0.0,0.0,0.0,0.0,0.0,0.0,0.0,0.0,0.0,0.0,0.0,5.9148,5.9862,5.9993,6.0716,0.0,0.0,6.0401,6.2458,6.4369,6.3924,5.8872,0.0,0.0,0.0,0.0,0.0,0.0,0.0,0.0,0.0,0.0,0.0,0.0,0.0,0.0,0.0,0.0,0.0,0.0,0.0,0.0,0.0,0.0,0.0,0.0,0.0,0.0,0.0,0.0,0.0,0.0,0.0,0.0,0.0,0.0,0.0,0.0,0.0,0.0,0.0,0.0,0.0,0.0,0.0,0.0,0.0,0.0,0.0,0.0,0.0,0.0,0.0,0.0,0.0,5.1836,5.2734,5.8633,6.1719,6.1719,6.1719,6.1719,6.1719,5.9219,5.5859,0.0,0.0,0.0,0.0,0.0,0.0,0.0,0.0,0.0,0.0,0.0,0.0,0.0,0.0,0.0,0.0,0.0,0.0,0.0,0.0,0.0,0.0,0.0,0.0,0.0,0.0,0.0,0.0,5.3522,5.3405,5.1609,0.0,0.0,0.0,0.0,0.0,0.0,0.0,0.0,0.0,0.0,5.9575,6.1973,6.2141,0.0,0.0,6.249,6.188,6.179,6.2757,6.2004,5.7443,5.6297,0.0,0.0,0.0,0.0,0.0,0.0,0.0,0.0,0.0,0.0,0.0,0.0,0.0,0.0,0.0,0.0,0.0,0.0,0.0,0.0,0.0,0.0,0.0,0.0,0.0,0.0,0.0,0.0,0.0,0.0,0.0,0.0,0.0,0.0,0.0,0.0,0.0,0.0,0.0,0.0,0.0,0.0,0.0,0.0,0.0,0.0,0.0,0.0,0.0,0.0,0.0,0.0,5.1719,5.2344,5.8476,6.1836,6.207,6.2109,6.2226,6.2422,6.0508,5.7617,0.0,0.0,0.0,0.0,0.0,0.0,0.0,0.0,0.0,0.0,0.0,0.0,0.0,0.0,0.0,0.0,0.0,0.0,0.0,0.0,0.0,0.0,0.0,0.0,0.0,0.0,0.0,0.0,5.4424,5.4115,5.1648,0.0,0.0,0.0,0.0,0.0,0.0,0.0,0.0,0.0,0.0,6.0546,6.2726,6.2761,6.2551,6.2551,6.2127,6.1488,6.0541,6.1132,6.0493,5.7066,0.0,0.0,0.0,0.0,0.0,0.0,0.0,0.0,0.0,0.0,0.0,0.0,0.0,0.0,0.0,0.0,0.0,0.0,0.0,0.0,0.0,0.0,0.0,0.0,0.0,0.0,0.0,0.0,0.0,0.0,4.1211,0.0,0.0,0.0,0.0,0.0,0.0,0.0,0.0,0.0,0.0,0.0,0.0,0.0,0.0,0.0,0.0,0.0,0.0,0.0,0.0,0.0,0.0,5.1406,5.1523,5.8203,6.2109,6.293,6.2969,6.3359,6.414,6.3359,6.164,5.8945,0.0,0.0,0.0,0.0,0.0,0.0,0.0,0.0,0.0,0.0,0.0,0.0,0.0,0.0,0.0,0.0,0.0,0.0,0.0,0.0,0.0,0.0,0.0,0.0,0.0,0.0,4.7186,4.9575,5.1531,0.0,0.0,0.0,0.0,0.0,0.0,0.0,0.0,0.0,0.0,5.9405,6.209,6.1381,6.1041,6.0935,6.0935,5.955,5.8735,5.9459,6.0248,6.0211,0.0,0.0,0.0,0.0,0.0,0.0,0.0,0.0,0.0,0.0,0.0,0.0,0.0,0.0,0.0,0.0,0.0,0.0,0.0,0.0,0.0,0.0,0.0,0.0,0.0,0.0,0.0,4.1992,4.1992,0.0,0.0,0.0,0.0,0.0,0.0,0.0,0.0,0.0,0.0,0.0,5.0547,5.0859,0.0,0.0,0.0,0.0,0.0,0.0,0.0,0.0,0.0,0.0,0.0,0.0,5.1406,5.1719,5.8203,6.2148,6.2969,6.3008,6.3437,6.4258,6.4012,6.2354,5.9127,0.0,0.0,0.0,0.0,0.0,0.0,0.0,0.0,0.0,0.0,0.0,0.0,0.0,0.0,0.0,0.0,0.0,0.0,0.0,0.0,0.0,0.0,0.0,0.0,0.0,5.0949,0.0,0.0,0.0,0.0,0.0,0.0,0.0,0.0,0.0,0.0,0.0,5.5825,5.8358,5.8919,5.9619,6.0992,6.0964,6.1166,0.0,0.0,0.0,0.0,0.0,0.0,0.0,0.0,0.0,0.0,0.0,0.0,0.0,0.0,5.7379,5.4572,5.4747,5.5287,5.5268,0.0,0.0,0.0,0.0,0.0,0.0,0.0,0.0,0.0,0.0,0.0,0.0,0.0,0.0,4.5547,0.0,4.457,0.0,0.0,0.0,0.0,0.0,0.0,0.0,0.0,5.1719,5.3594,5.4062,5.4375,5.4492,0.0,5.3008,5.0117,0.0,0.0,0.0,0.0,0.0,0.0,0.0,0.0,5.1836,5.2148,5.8945,6.3008,6.3867,6.3906,6.4297,6.5156,6.5155,6.3747,6.0886,5.7405,5.4086,0.0,0.0,0.0,0.0,0.0,0.0,0.0,0.0,0.0,0.0,0.0,0.0,0.0,0.0,0.0,0.0,0.0,0.0,0.0,0.0,0.0,0.0,0.0,5.1421,0.0,0.0,0.0,0.0,0.0,0.0,0.0,0.0,0.0,5.301,5.5162,5.7465,5.9651,5.9523,5.9477,6.0229,0.0,0.0,0.0,0.0,0.0,0.0,0.0,5.7165,5.6379,5.6499,5.698,5.7774,5.9048,5.9858,5.955,0.0,0.0,5.7302,5.7307,5.7888,5.7884,5.8308,5.8693,5.8704,5.8965,5.9187,0.0,0.0,0.0,0.0,0.0,0.0,0.0,0.0,5.1328,5.1289,0.0,4.8789,0.0,0.0,0.0,0.0,0.0,4.9805,0.0,0.0,5.8242,5.9844,5.6953,5.7617,5.8008,5.7851,5.5508,5.3867,5.2969,5.2148,0.0,0.0,0.0,0.0,0.0,0.0,5.2734,5.3125,6.0351,6.4648,6.5469,6.5547,6.5976,6.6836,6.6724,6.5877,6.4232,6.0925,5.8626,5.7526,5.0476,0.0,0.0,0.0,0.0,0.0,0.0,0.0,0.0,0.0,0.0,0.0,0.0,0.0,0.0,0.0,0.0,0.0,0.0,0.0,0.0,5.0718,0.0,0.0,0.0,0.0,0.0,0.0,0.0,0.0,0.0,0.0,5.1982,5.5928,5.9056,5.91,0.0,0.0,0.0,0.0,5.8627,5.6357,5.5895,5.5703,5.5028,5.6802,5.8561,5.9254,0.0,0.0,6.2246,6.1464,6.0781,5.9896,6.182,6.2858,6.1243,6.0334,5.985,5.983,5.992,5.9741,5.9779,6.0635,6.1096,5.5312,0.0,0.0,0.0,0.0,4.9961,5.0859,5.2305,5.2344,5.2344,5.2266,5.1562,0.0,0.0,0.0,0.0,0.0,0.0,5.332,5.5195,5.7812,5.9453,6.0234,6.0508,6.0586,6.0547,5.9844,5.9375,5.914,5.8867,5.4531,4.6406,0.0,0.0,0.0,0.0,5.3281,5.6484,6.1015,6.3789,6.4648,6.5273,6.598,6.6722,6.6659,6.6353,6.58,6.4135,6.1737,5.853,5.5681,0.0,0.0,0.0,0.0,0.0,0.0,0.0,0.0,0.0,0.0,0.0,0.0,0.0,0.0,0.0,0.0,0.0,0.0,0.0,5.1327,5.3401,5.3409,0.0,0.0,0.0,0.0,0.0,0.0,0.0,0.0,0.0,5.5201,5.6875,5.837,0.0,0.0,5.7663,5.6808,5.7815,5.8819,5.9242,5.9358,0.0,5.9881,5.9463,5.9018,5.8726,6.0748,6.2565,6.29,6.3732,6.4359,6.4051,6.4628,6.4974,6.4589,6.4243,6.4026,6.4078,6.4078,6.4078,6.4078,6.427,6.4385,5.8281,5.4414,5.375,5.3437,5.3476,5.3476,5.4531,5.6289,5.625,5.6289,5.6172,5.5195,5.4258,5.3398,5.2031,0.0,0.0,0.0,5.582,5.8633,5.918,6.0234,6.164,6.1719,6.1719,6.1719,6.1719,6.1719,6.168,6.0664,5.6914,5.0547,0.0,0.0,4.918,5.2344,5.543,5.8437,6.2109,6.4453,6.5312,6.5814,6.6256,6.6651,6.6578,6.6306,6.5896,6.4986,6.3149,6.0307,5.8046,5.4779,0.0,0.0,0.0,0.0,0.0,0.0,0.0,0.0,0.0,0.0,0.0,4.6147,4.4582,0.0,0.0,0.0,5.2198,5.3049,5.386,5.4298,0.0,0.0,0.0,0.0,0.0,0.0,0.0,5.2468,5.5439,5.7707,5.8059,5.8519,5.9274,6.036,5.9424,5.848,5.8048,0.0,6.005,6.0704,6.0781,6.1089,6.1944,6.1797,6.1566,6.1796,6.2746,6.3707,6.4232,6.5218,6.5859,6.5897,6.5897,6.5897,6.5897,6.5897,6.5897,6.5897,6.5897,6.5897,6.5897,6.5897,6.5897,5.9219,5.9062,5.7461,5.6797,5.6797,5.6875,5.8672,6.1562,6.164,6.1676,6.152,5.9217,5.7733,5.6797,5.3632,0.0,5.6991,5.6992,5.8672,6.168,6.1719,6.1719,6.1719,6.1719,6.1719,6.1719,6.1719,6.1719,6.1601,5.9375,5.7695,5.6719,5.6719,5.5,5.1992,5.5508,5.8086,5.9336,6.3164,6.5703,6.6875,6.675,6.6688,6.6688,6.6495,6.6031,6.518,6.429,6.34,6.2433,5.8681,5.6364,5.5845,0.0,0.0,0.0,0.0,0.0,0.0,0.0,0.0,0.0,0.0,0.0,0.0,0.0,0.0,0.0,5.6177,0.0,5.8041,5.4576,0.0,0.0,0.0,5.2819,5.5318,5.7074,5.805,5.7933,0.0,0.0,6.0479,6.0588,6.1286,6.3047,6.2773,6.2102,6.1283,6.1679,6.1897,6.1204,6.1166,6.1512,6.2574,6.3646,6.4926,6.6275,6.6434,6.582,6.5859,6.5859,6.5897,6.5897,6.5897,6.5897,6.5897,6.5897,6.5897,6.5897,6.5897,6.5897,6.5897,6.5897,6.5897,5.9219,5.918,5.875,5.8594,5.8633,5.9258,5.9961,6.0742,6.1344,6.1599,6.1575,6.0867,6.0457,6.0223,5.9404,5.9482,6.0269,6.0342,6.0859,6.1601,6.168,6.1719,6.1719,6.1719,6.1719,6.1719,6.1719,6.1719,6.168,6.1094,5.9687,5.7695,5.7578,5.6172,5.3516,5.375,5.5976,6.0078,6.1094,6.3359,6.6758,6.675,6.6688,6.6611,6.6456,6.6263,6.5953,6.5141,6.429,6.34,6.1776,5.9418,5.6136,5.1429,0.0,0.0,0.0,0.0,0.0,0.0,0.0,0.0,0.0,4.7008,4.3806,0.0,4.9274,0.0,5.6891,6.0561,6.0757,5.9851,0.0,0.0,5.6216,5.6098,5.8011,5.9729,6.0276,5.8948,6.0705,6.2149,6.2384,6.2379,6.3238,6.5502,6.3352,6.1419,6.1092,6.2215,6.2974,6.2858,6.3782,6.4743,6.4949,6.5308,6.5949,6.691,6.6423,6.609,6.6731,6.6307,6.5897,6.5897,6.5897,6.5897,6.5936,6.5897,6.5897,6.5897,6.5897,6.5897,6.5897,6.5897,6.5897,5.8047,5.8047,5.8047,5.7567,5.6998,5.8928,5.9779,5.981,6.0242,6.0383,6.0401,6.074,6.1058,6.1408,6.1408,6.1408,6.1421,6.1471,6.1554,6.1601,6.164,6.168,6.1719,6.1719,6.1719,6.1719,6.1719,6.1719,6.1719,6.1719,6.0976,5.9609,5.957,5.832,5.5781,5.4101,5.4883,5.8086,6.0039,6.2876,6.6633,6.6711,6.5907,6.4309,6.4097,6.3284,6.1737,6.0886,6.0074,5.9184,5.8333,5.6789,5.44,5.0682,4.7692,0.0,0.0,0.0,0.0,0.0,0.0,0.0,0.0,0.0,0.0,0.0,5.1804,5.2397,5.8059,6.1221,6.0085,5.9963,5.9998,6.0115,5.9729,6.0237,6.2306,6.336,6.3594,6.2657,6.3789,6.4687,6.4687,6.4687,6.5194,6.66,6.4888,6.3456,6.3413,6.405,6.4436,6.4512,6.5282,6.6205,6.6833,6.7011,6.7318,6.7987,6.7564,6.7179,6.7616,6.7321,6.7013,6.7013,6.7013,6.7013,6.7,6.6692,6.6461,6.6384,6.6128,6.5897,6.5897,6.5897,6.5897,5.6719,5.6601,5.6597,5.5652,5.4435,5.7395,5.8463,5.817,5.8114,5.8195,5.8449,5.9532,6.0364,6.1041,6.1157,6.1195,6.1195,6.135,6.1434,6.155,6.1601,6.164,6.1719,6.1719,6.1719,6.1719,6.1719,6.1719,6.1719,6.1719,6.1523,6.125,6.1211,5.9922,5.7422,5.5156,5.4492,5.5508,5.9453,6.2981,6.5954,6.5542,6.3806,6.0807,6.0499,5.9068,5.6128,5.5316,5.4542,5.3691,5.2956,5.2691,5.2895,4.9797,4.8073,0.0,4.5309,0.0,0.0,0.0,0.0,0.0,0.0,0.0,0.0,5.5248,5.5567,5.6071,5.9495,6.0934,5.9095,5.8939,6.0154,6.3081,6.3477,6.4375,6.6483,6.6795,6.6795,6.6795,6.6795,6.6795,6.6717,6.6795,6.6795,6.6751,6.6368,6.5949,6.6134,6.5891,6.5743,6.5897,6.6013,6.659,6.7744,6.8306,6.8806,6.9382,6.8998,6.8575,6.8564,6.8436,6.8359,6.8359,6.8282,6.8321,6.8373,6.7757,6.7308,6.7256,6.6769,6.6269,6.5974,6.5897,6.5897,5.7226,5.6601,5.6573,5.6335,5.6046,5.6532,5.5603,5.3723,5.3659,5.4366,5.5702,5.7907,5.899,5.9184,5.9841,6.019,6.0228,6.0963,6.1346,6.1415,6.1564,6.164,6.1719,6.1719,6.1719,6.1719,6.1719,6.1719,6.1719,6.1719,6.0664,5.8672,5.8633,5.7305,5.4844,0.0,0.0,0.0,5.918,6.1286,6.2376,5.9724,5.7915,5.7172,5.7018,0.0,5.6062,5.5874,5.5393,5.4619,5.4387,0.0,0.0,0.0,0.0,0.0,0.0,0.0,0.0,0.0,0.0,0.0,5.3914,5.3884,5.4746,5.5609,5.7338,6.0202,6.1252,6.2652,6.4882,6.5077,6.5351,6.5975,6.6053,6.6288,6.6756,6.6795,6.6795,6.6795,6.6795,6.6795,6.6795,6.6795,6.6756,6.6673,6.6446,6.6244,6.6183,6.6019,6.5923,6.5936,6.6359,6.6898,6.7308,6.8475,6.9267,6.964,6.9613,6.9421,6.941,6.8871,6.8436,6.8475,6.8398,6.8436,6.8436,6.8244,6.8155,6.8142,6.8013,6.7526,6.6192,6.5897,6.5897,5.8208,0.0,5.7247,5.6534,0.0,5.5139,5.3707,5.1811,5.3475,5.4868,5.6089,5.7404,5.8178,5.8565,5.8139,5.7985,5.7985,5.758,5.8142,5.9455,5.9542,6.0298,6.164,6.168,6.1719,6.1719,6.1719,6.1719,6.1719,6.1719,6.1055,5.9765,5.9765,5.9101,5.7851,5.7812,5.7812,5.789,5.9492,6.1342,6.3247,6.202,6.0416,5.8699,5.8526,0.0,0.0,0.0,0.0,0.0,0.0,0.0,0.0,5.5087,0.0,5.6493,5.5432,5.5277,5.6493,5.6946,5.8122,6.0267,6.0344,5.9611,5.8041,6.003,6.2145,6.3906,6.4179,6.4921,6.6561,6.6795,6.6795,6.6795,6.6795,6.6795,6.6795,6.6795,6.6795,6.6795,6.6795,6.6795,6.6795,6.6795,6.6756,6.6628,6.6411,6.6242,6.6119,6.5982,6.5897,6.5897,6.6205,6.6654,6.7077,6.7731,6.8821,6.941,6.9717,6.9871,7.0217,6.9937,6.9629,6.9629,6.9629,6.9629,6.959,6.9294,6.9025,6.8975,6.8667,6.8205,6.7295,6.7141,6.7128,5.8892,5.8702,5.8078,5.6926,5.5526,5.4791,5.3614,5.2414,0.0,0.0,0.0,5.6863,5.7482,5.8062,5.6961,5.6459,5.6364,5.5264,5.598,5.8142,5.8143,5.9342,6.1518,6.164,6.168,6.168,6.168,6.1719,6.1719,6.1719,6.1719,6.1719,6.1719,6.1719,6.1719,6.1719,6.1013,5.9709,5.9919,6.146,6.4243,6.452,6.3184,6.0247,6.019,5.8874,5.6106,5.6012,5.5702,5.5045,5.5006,5.5304,5.5874,5.5916,5.6497,5.7679,5.7814,5.903,6.1754,6.2007,6.3186,6.601,6.6097,6.4904,6.225,6.4816,6.6549,6.6595,6.6678,6.6756,6.6795,6.6795,6.6795,6.6795,6.6795,6.6795,6.6795,6.6795,6.6795,6.6795,6.6795,6.6795,6.6795,6.6795,6.6717,6.6571,6.6406,6.623,6.609,6.5961,6.5897,6.5897,6.5974,6.6167,6.6692,6.7077,6.7731,6.9129,6.9563,6.9986,7.0667,7.0898,7.0898,7.0744,7.0898,7.0821,7.0821,7.0333,6.9948,6.991,6.9344,6.8844,6.8844,6.8871,6.8744,5.8478,5.7814,5.8329,5.8407,5.816,5.7985,5.7753,5.7327,5.4929,5.3498,5.3033,5.5238,5.6265,5.6405,5.7602,5.8124,5.8162,5.9338,6.021,6.0654,6.0615,6.091,6.1417,6.1511,6.1562,6.164,6.168,6.1719,6.1719,6.1719,6.1719,6.1719,6.1719,6.1719,6.1719,6.1719,6.1554,6.1229,5.9909,5.9675,6.0677,5.8703,5.7352,5.6786,5.6863,5.6539,5.6039,5.6114,5.5935,5.5857,5.5857,5.7129,5.9985,6.0201,6.1599,6.4463,6.4773,6.5005,6.5391,6.5469,6.5642,6.6024,6.6052,6.5804,6.5548,6.5891,6.6299,6.6571,6.6595,6.6678,6.6795,6.6795,6.6795,6.6795,6.6795,6.6795,6.6795,6.6795,6.6795,6.6795,6.6795,6.6795,6.6795,6.6795,6.6678,6.6408,6.6312,6.623,6.6013,6.5897,6.5897,6.5897,6.5897,6.5936,6.6167,6.6692,6.7449,6.8373,6.9206,6.991,7.0783,7.0898,7.0898,7.0898,7.0898,7.0898,7.0898,7.0821,7.0667,7.0629,7.0409,7.0371,7.0333,7.0398,7.0025,5.8545,5.8199,5.8005,5.8199,5.8642,5.8604,5.8604,5.8449,5.694,5.6051,5.5818,5.6866,5.7389,5.7332,5.7178,5.7082,5.7062,5.6906,5.7602,5.8916,5.8993,5.9823,6.1158,6.1357,6.1403,6.1446,6.1452,6.1525,6.1598,6.1601,6.164,6.168,6.1719,6.1719,6.1719,6.168,6.1807,6.2172,6.1885,6.1823,6.2065,6.1795,6.1601,6.1543,6.1543,6.1524,6.1523,6.1544,6.1543,6.1543,6.1543,6.2259,6.3748,6.3864,6.4561,6.6069,6.6185,6.6185,6.6147,6.6084,6.6058,6.6052,6.6005,6.6005,6.6036,6.6073,6.619,6.6406,6.6537,6.6639,6.6795,6.6795,6.6795,6.6795,6.6795,6.6795,6.6795,6.6795,6.6795,6.6795,6.6795,6.6795,6.6795,6.6795,6.6678,6.6349,6.6195,6.6038,6.5897,6.5897,6.5897,6.5897,6.5897,6.5897,6.5897,6.6167,6.6962,6.8167,6.8706,6.9525,7.0552,7.0898,7.0898,7.0898,7.0898,7.0898,7.0898,7.0898,7.0898,7.0898,7.0898,7.0898,7.0898,7.0898,7.0629,5.8389,5.8312,5.783,5.8101,5.8874,5.8913,5.899,5.9145,5.9145,5.9145,5.9088,5.8703,5.8491,5.8336,5.7216,5.6734,5.6559,5.5555,5.6095,5.7852,5.7986,5.9104,6.0916,6.1186,6.1254,6.1235,6.1289,6.1367,6.1432,6.1451,6.1516,6.168,6.1875,6.1988,6.1954,6.2119,6.2444,6.2964,6.3796,6.4193,6.4115,6.5489,6.6185,6.6185,6.6147,6.6185,6.6185,6.6185,6.6185,6.6185,6.6185,6.6185,6.6185,6.6185,6.6185,6.6185,6.6185,6.6165,6.6063,6.6036,6.6005,6.5996,6.5996,6.5947,6.5897,6.5974,6.6128,6.6251,6.6426,6.6561,6.6717,6.6795,6.6795,6.6795,6.6795,6.6795,6.6795,6.6795,6.6795,6.6795,6.6795,6.6795,6.6795,6.6795,6.6649,6.6368,6.607,6.5909,6.5897,6.5897,6.5897,6.5897,6.5897,6.5897,6.5897,6.6128,6.6846,6.8206,6.8629,6.9448,7.0486,7.0898,7.0898,7.0898,7.0898,7.0898,7.0898,7.0898,7.0898,7.0898,7.0898,7.0898,7.0898,7.0898,7.0898,5.7443,5.7559,5.808,5.897,5.9648,5.9725,6.0112,6.0731,6.0847,6.0828,6.0558,5.9204,5.8491,5.8428,5.8967,5.9138,5.9149,5.9781,6.0173,6.041,6.0481,6.0657,6.0976,6.1042,6.1065,6.1134,6.1208,6.1267,6.1292,6.1337,6.14,6.1601,6.2422,6.2824,6.2887,6.3478,6.3826,6.3748,6.4561,6.4986,6.4948,6.576,6.6185,6.6185,6.6185,6.6185,6.6185,6.6185,6.6185,6.6185,6.6185,6.6185,6.6185,6.6185,6.6185,6.6185,6.6147,6.6063,6.601,6.5999,6.5986,6.5996,6.5947,6.5923,6.5897,6.5897,6.5974,6.6106,6.6257,6.6421,6.66,6.6717,6.6795,6.6795,6.6795,6.6795,6.6795,6.6795,6.6795,6.6795,6.6795,6.6795,6.6795,6.6756,6.6644,6.6322,6.6067,6.5897,6.5897,6.5897,6.5897,6.5897,6.5897,6.5897,6.5974,6.6538,6.7295,6.8219,6.9078,6.9833,7.0591,7.0898,7.0898,7.0898,7.0898,7.0898,7.0898,7.0898,7.0898,7.0898,7.0898,7.0898,7.0898,7.0898,7.0898,5.6553,5.6592,5.6902,5.7559,5.8372,5.8913,5.9609,6.0383,6.0345,6.0577,6.0923,6.021,5.9899,5.987,6.0195,6.0304,6.0281,6.0627,6.0843,6.0827,6.0843,6.0804,6.0888,6.0881,6.0881,6.0904,6.0958,6.1026,6.1214,6.1733,6.203,6.2201,6.3045,6.3496,6.3532,6.3804,6.4115,6.4579,6.487,6.5218,6.5682,6.6031,6.6185,6.6185,6.6185,6.6185,6.6185,6.6185,6.6185,6.6185,6.6144,6.6144,6.6185,6.6108,6.6108,6.6108,6.6097,6.602,6.6038,6.5974,6.5923,6.5947,6.5923,6.5897,6.5897,6.5897,6.5936,6.601,6.6069,6.6281,6.6571,6.6639,6.6717,6.6795,6.6795,6.6795,6.6795,6.6795,6.6795,6.6795,6.6795,6.6795,6.6756,6.6639,6.6457,6.6273,6.6051,6.5897,6.5897,6.5897,6.5897,6.5897,6.5897,6.5897,6.5974,6.6577,6.7423,6.8282,6.914,6.9948,7.0667,7.0898,7.0898,7.0898,7.0898,7.0898,7.0898,7.0898,7.0898,7.0898,7.0898,7.0898,7.0898,7.0898,7.0898,5.6012,5.6012,5.6012,5.6515,5.7366,5.7985,5.872,5.9514,5.9708,6.0112,6.0629,6.0783,6.0877,6.0888,6.0804,6.0781,6.0781,6.0781,6.0781,6.0781,6.0781,6.0781,6.0781,6.0781,6.0781,6.0781,6.0781,6.0988,6.1368,6.2297,6.2817,6.2947,6.3765,6.4183,6.4192,6.4348,6.4732,6.5294,6.5334,6.5586,6.6108,6.6185,6.6185,6.6185,6.6185,6.6204,6.6183,6.6144,6.6144,6.6144,6.6102,6.608,6.6123,6.5972,6.5835,6.5771,6.5804,6.582,6.582,6.5859,6.5897,6.5897,6.5897,6.5897,6.5897,6.5897,6.5897,6.5897,6.5974,6.6185,6.6426,6.6557,6.6639,6.6717,6.6756,6.6795,6.6795,6.6795,6.6795,6.6795,6.6795,6.6795,6.6717,6.6478,6.6283,6.6212,6.6051,6.5897,6.5897,6.5897,6.5897,6.5897,6.5897,6.5897,6.5974,6.6885,6.7628,6.8371,6.9229,7.0256,7.0783,7.086,7.0898,7.0898,7.0898,7.0898,7.0898,7.0898,7.0898,7.0898,7.0898,7.0898,7.0898,7.0898,7.0898,5.6012,5.6012,5.6012,5.6476,5.7288,5.7309,5.7794,5.8588,5.9379,5.9745,5.9793,6.053,6.0894,6.0843,6.0781,6.0781,6.0781,6.0781,6.0781,6.0781,6.0742,6.0781,6.0781,6.0781,6.0781,6.0896,6.0819,6.1228,6.1982,6.3029,6.3548,6.3623,6.4561,6.5006,6.4977,6.5589,6.6052,6.5986,6.5972,6.6069,6.6147,6.6147,6.6147,6.6185,6.6185,6.6162,6.6113,6.6097,6.6058,6.6013,6.599,6.599,6.599,6.5694,6.5341,6.4987,6.5231,6.541,6.541,6.5705,6.5897,6.5897,6.5897,6.5897,6.5897,6.5897,6.5897,6.5897,6.5897,6.5972,6.6174,6.64,6.6577,6.6639,6.6717,6.6795,6.6795,6.6795,6.6795,6.6795,6.6795,6.6756,6.6639,6.6444,6.6256,6.614,6.5974,6.5897,6.5897,6.5897,6.5897,6.5897,6.5936,6.5897,6.6051,6.7141,6.8078,6.8794,6.9756,7.0783,7.086,7.0898,7.0898,7.0898,7.0898,7.0898,7.0898,7.0898,7.0898,7.0898,7.0898,7.0898,7.0898,7.0898,7.0898,5.6012,5.6012,5.6012,5.6188,5.6423,5.6462,5.6792,5.7418,5.8389,5.9018,5.9418,6.0358,6.0827,6.0781,6.0781,6.0781,6.0781,6.0781,6.0781,6.0742,6.0242,6.0281,6.0704,6.0242,6.0627,6.1435,6.1089,6.1243,6.2113,6.2991,6.3723,6.4345,6.5219,6.5627,6.5673,6.589,6.6052,6.6058,6.6028,6.6028,6.608,6.6028,6.6028,6.608,6.608,6.6058,6.6052,6.6013,6.6013,6.6013,6.5743,6.564,6.564,6.5263,6.4978,6.4784,6.5124,6.5331,6.5344,6.5705,6.5897,6.5897,6.5897,6.5897,6.5897,6.5897,6.5897,6.5897,6.5897,6.5936,6.5986,6.6165,6.6358,6.6564,6.6639,6.6717,6.6756,6.6795,6.6795,6.6795,6.6795,6.6756,6.6571,6.6438,6.6264,6.6112,6.5974,6.5897,6.5897,6.5897,6.5897,6.5974,6.6346,6.6692,6.6654,6.7603,6.8565,6.9283,7.0102,7.0667,7.0898,7.0898,7.0898,7.0898,7.0898,7.0898,7.0898,7.0898,7.0898,7.0898,7.0898,7.0898,7.0898,7.0898,7.0898,5.5941,5.5941,5.5941,5.5904,5.5827,5.5748,5.5907,5.6244,5.7416,5.817,5.8716,5.9868,6.0388,6.0224,6.0219,6.0127,6.0089,6.0512,6.0781,6.0742,6.0204,6.0204,6.0627,6.0204,6.0512,6.1512,6.1396,6.1627,6.2474,6.332,6.4166,6.5051,6.5678,6.5972,6.5933,6.5958,6.6005,6.599,6.6019,6.5997,6.6013,6.6019,6.6019,6.6013,6.5967,6.5982,6.5982,6.6005,6.6005,6.5919,6.5559,6.5282,6.5108,6.4775,6.452,6.442,6.4741,6.5007,6.5148,6.5513,6.5743,6.5859,6.5897,6.5897,6.5897,6.5897,6.5897,6.5897,6.5897,6.5897,6.5897,6.5999,6.614,6.6399,6.6549,6.6628,6.6733,6.6784,6.6795,6.6795,6.6795,6.6717,6.6532,6.6394,6.6237,6.6051,6.5936,6.5897,6.5897,6.5897,6.6051,6.6282,6.6731,6.7346,6.7808,6.8655,6.8963,6.9602,7.0217,7.0706,7.0898,7.0898,7.0898,7.0898,7.0898,7.0898,7.0898,7.0898,7.0898,7.0898,7.0898,7.0898,7.0898,7.0898,7.1014,5.5787,5.5787,5.5787,5.5647,5.5477,5.5336,5.5107,5.5256,5.6586,5.7279,5.7514,5.8987,5.9409,5.9102,5.9072,5.8803,5.8819,6.0012,6.0666,6.0666,6.0589,6.0666,6.0781,6.0589,6.0627,6.0973,6.1666,6.2435,6.3089,6.3897,6.4782,6.5628,6.582,6.5923,6.5897,6.5923,6.5947,6.5972,6.601,6.601,6.6005,6.5996,6.5972,6.5967,6.5933,6.5923,6.5999,6.601,6.5972,6.5833,6.5485,6.4921,6.4393,6.4176,6.403,6.3817,6.4018,6.4368,6.468,6.509,6.5487,6.5705,6.5833,6.5897,6.5808,6.5872,6.5897,6.5897,6.5897,6.5897,6.5897,6.5897,6.5986,6.6097,6.6373,6.6555,6.6585,6.6713,6.6795,6.6756,6.6756,6.6639,6.6393,6.6273,6.6178,6.5974,6.5897,6.5897,6.5936,6.6013,6.632,6.6821,6.7423,6.8078,6.8924,6.9706,6.9679,6.9871,7.0409,7.0898,7.0898,7.0898,7.0898,7.0898,7.0898,7.0898,7.0898,7.0898,7.0898,7.0898,7.0898,7.0898,7.0937,7.1014,7.1321,5.5577,5.5554,5.5446,5.5312,5.5212,5.5053,5.4798,5.4641,5.5882,5.6305,5.6404,5.7522,5.8101,5.8169,5.8174,5.8226,5.8396,5.9396,5.9896,5.9935,5.9935,6.0281,6.0589,6.0204,6.0242,6.0858,6.1666,6.2204,6.2589,6.332,6.4128,6.4936,6.559,6.5859,6.5859,6.5897,6.5923,6.5923,6.5961,6.5923,6.5909,6.5923,6.5923,6.5947,6.5923,6.5897,6.5936,6.5923,6.5781,6.5513,6.5105,6.4554,6.3978,6.3813,6.3718,6.3684,6.3981,6.4227,6.4405,6.4894,6.5158,6.5214,6.5542,6.5728,6.558,6.5755,6.5897,6.5897,6.5897,6.5897,6.5897,6.5897,6.5936,6.6051,6.6179,6.6329,6.6425,6.6438,6.6527,6.6628,6.6522,6.6405,6.6315,6.6256,6.6101,6.5936,6.5897,6.5897,6.5974,6.6397,6.6744,6.709,6.7962,6.8847,6.954,7.009,7.0283,7.0256,7.0629,7.0898,7.0898,7.0898,7.0898,7.0898,7.0898,7.0898,7.0898,7.0898,7.0898,7.0937,7.0975,7.0975,7.0975,7.1321,7.186,5.5365,5.525,5.5134,5.496,5.4857,5.4647,5.443,5.4308,5.5194,5.5532,5.5619,5.6476,5.6899,5.6966,5.6957,5.721,5.768,5.8486,5.9072,5.9527,5.9896,6.0319,6.0704,6.0281,6.0204,6.0781,6.1358,6.1781,6.2127,6.2627,6.3281,6.4128,6.4974,6.5397,6.5474,6.5743,6.5897,6.5897,6.5897,6.5897,6.5897,6.5897,6.5897,6.5897,6.5897,6.5897,6.5897,6.5755,6.5542,6.5268,6.4769,6.4251,6.3691,6.3602,6.3602,6.3639,6.3788,6.4018,6.4227,6.4634,6.4894,6.4837,6.5299,6.558,6.5427,6.5663,6.5897,6.5897,6.5897,6.5897,6.5897,6.5897,6.5936,6.6013,6.6076,6.6174,6.6273,6.6275,6.6347,6.642,6.6369,6.6315,6.6231,6.6146,6.6038,6.5936,6.5897,6.609,6.632,6.6782,6.7205,6.7821,6.8783,6.954,7.0079,7.0475,7.0821,7.0821,7.0821,7.0898,7.0898,7.0898,7.0898,7.0898,7.0898,7.0898,7.0898,7.0898,7.0898,7.0975,7.1052,7.1437,7.1706,7.2283,7.2717,5.5064,5.4895,5.4857,5.4647,5.4359,5.4196,5.4018,5.3944,5.4576,5.4911,5.5096,5.5655,5.5847,5.5532,5.5668,5.6092,5.6637,5.771,5.8667,5.9542,6.0242,6.0742,6.0742,6.0666,6.0704,6.0781,6.0858,6.1243,6.1858,6.2127,6.2474,6.3281,6.4089,6.4589,6.482,6.5436,6.5782,6.5859,6.5897,6.5897,6.5897,6.5897,6.5897,6.5897,6.5897,6.5897,6.5833,6.5485,6.5268,6.5144,6.4483,6.3963,6.3691,6.3602,6.3602,6.3602,6.3602,6.3788,6.4056,6.4233,6.4346,6.452,6.4938,6.5268,6.5268,6.5531,6.582,6.5859,6.5897,6.5897,6.5897,6.5897,6.5897,6.5897,6.6013,6.6113,6.6256,6.6251,6.6251,6.6275,6.6252,6.6234,6.6119,6.6088,6.5999,6.5936,6.5897,6.6205,6.6821,6.7282,6.8013,6.8783,6.959,7.0052,7.0514,7.0591,7.0898,7.0898,7.0898,7.0898,7.0898,7.0898,7.0898,7.0898,7.0898,7.0898,7.0898,7.0898,7.0898,7.0937,7.1321,7.1937,7.2476,7.2909,7.337,5.473,5.4623,5.4397,5.4265,5.4161,5.3981,5.3832,5.3831,5.4017,5.4203,5.4203,5.4351,5.4615,5.464,5.5285,5.589,5.674,5.7974,5.8924,5.9565,6.0396,6.0781,6.0781,6.0781,6.0781,6.0781,6.0781,6.0935,6.1166,6.1743,6.2166,6.2435,6.3243,6.3974,6.4551,6.482,6.5282,6.5782,6.5897,6.5897,6.5897,6.5897,6.5897,6.5897,6.5897,6.5897,6.5808,6.5238,6.4737,6.4483,6.4046,6.3698,6.3602,6.3602,6.3602,6.3602,6.3602,6.3639,6.3788,6.4056,6.4115,6.3958,6.4482,6.4837,6.4871,6.5217,6.5577,6.5782,6.5897,6.5897,6.5897,6.5897,6.5897,6.5897,6.5936,6.5972,6.6013,6.5974,6.6036,6.6135,6.6069,6.6041,6.6082,6.6013,6.5936,6.5897,6.6013,6.6282,6.709,6.7859,6.859,6.936,7.009,7.0514,7.0821,7.086,7.0898,7.0898,7.0898,7.0898,7.0898,7.0898,7.0898,7.0898,7.0898,7.0898,7.0898,7.0898,7.0898,7.0975,7.1695,7.2388,7.2755,7.3188,7.3716,5.4476,5.4368,5.4198,5.4055,5.3981,5.3869,5.3794,5.3794,5.3794,5.3794,5.3794,5.3794,5.4093,5.4615,5.5096,5.5995,5.7187,5.828,5.912,5.9881,6.0503,6.0781,6.0781,6.0781,6.0781,6.0781,6.0781,6.0781,6.0896,6.132,6.1512,6.1704,6.2397,6.3051,6.3474,6.432,6.482,6.532,6.5667,6.5897,6.5897,6.5897,6.5897,6.5897,6.5897,6.5781,6.5388,6.4904,6.4519,6.4212,6.383,6.3602,6.3602,6.3602,6.3602,6.3602,6.3602,6.3602,6.3639,6.3825,6.3825,6.3773,6.4172,6.4482,6.4727,6.5082,6.5474,6.582,6.5897,6.5897,6.5897,6.5897,6.5897,6.5897,6.5897,6.5897,6.5897,6.5884,6.5936,6.5974,6.5936,6.5936,6.6013,6.5936,6.5897,6.5974,6.6295,6.6859,6.759,6.8398,6.9167,6.9975,7.0398,7.0706,7.086,7.0898,7.0898,7.0898,7.0898,7.0898,7.0898,7.0898,7.0898,7.0898,7.0898,7.0898,7.0898,7.0975,7.1206,7.1503,7.2157,7.2888,7.3409,7.388,7.437,5.4275,5.4091,5.4091,5.3944,5.3832,5.3794,5.3794,5.3794,5.3794,5.3794,5.3831,5.3868,5.4351,5.4981,5.5424,5.633,5.7935,5.857,5.9367,6.0135,6.0647,6.0781,6.0781,6.0781,6.0781,6.0781,6.0781,6.0781,6.0819,6.0858,6.0819,6.105,6.1666,6.2012,6.2589,6.3666,6.4436,6.482,6.5513,6.5859,6.5897,6.5897,6.5897,6.5897,6.5897,6.5513,6.5009,6.4699,6.4519,6.4128,6.3786,6.3602,6.3602,6.3602,6.3602,6.3602,6.3602,6.3602,6.3602,6.3639,6.3639,6.3691,6.392,6.433,6.4661,6.4993,6.5356,6.5859,6.5897,6.5897,6.5897,6.5897,6.5897,6.5897,6.5897,6.5897,6.5897,6.5897,6.5897,6.5897,6.5897,6.5897,6.5897,6.5897,6.5936,6.6333,6.6718,6.7333,6.8129,6.8975,6.9744,7.0552,7.0783,7.0821,7.0898,7.0898,7.0898,7.0898,7.0898,7.0898,7.0898,7.0898,7.0898,7.0898,7.0898,7.0898,7.0937,7.1091,7.1464,7.208,7.2773,7.363,7.4409,7.4909,7.5399,5.4164,5.4091,5.3907,5.3832,5.3794,5.3794,5.3794,5.3794,5.3794,5.3794,5.3943,5.4465,5.4836,5.5129,5.624,5.7372,5.8126,5.9001,5.9968,6.0608,6.0734,6.0781,6.0781,6.0781,6.0781,6.0781,6.0781,6.0781,6.0781,6.0781,6.0781,6.0858,6.105,6.1435,6.2127,6.3089,6.3974,6.4628,6.5436,6.5859,6.5897,6.5897,6.5897,6.5897,6.5897,6.5485,6.4871,6.4699,6.4407,6.3878,6.3647,6.3602,6.3602,6.3602,6.3602,6.3602,6.3602,6.3602,6.3602,6.3602,6.3602,6.3602,6.3698,6.3967,6.4628,6.4761,6.5184,6.569,6.5897,6.5897,6.5897,6.5897,6.5897,6.5897,6.5897,6.5897,6.5897,6.5897,6.5897,6.5897,6.5897,6.5897,6.5897,6.5974,6.6205,6.6679,6.7295,6.7871,6.8641,6.9513,7.0167,7.086,7.0898,7.0898,7.0898,7.0898,7.0898,7.0898,7.0898,7.0898,7.0898,7.0898,7.0898,7.0898,7.0898,7.0937,7.1091,7.1541,7.1964,7.2657,7.3388,7.4168,7.4909,7.563,7.5976,5.3944,5.3944,5.3832,5.3794,5.3794,5.3794,5.3794,5.3794,5.3794,5.3794,5.3943,5.4651,5.5206,5.568,5.6904,5.7776,5.8465,5.9345,6.0179,6.0685,6.0781,6.0781,6.0781,6.0781,6.0781,6.0781,6.0781,6.0781,6.0781,6.0781,6.0781,6.0781,6.0781,6.105,6.1627,6.2666,6.3474,6.4128,6.5243,6.5897,6.5897,6.5897,6.5897,6.5897,6.5872,6.5513,6.4803,6.4699,6.4292,6.383,6.3602,6.3602,6.3602,6.3602,6.3602,6.3602,6.3602,6.3602,6.3602,6.3602,6.3602,6.3602,6.3602,6.4009,6.4482,6.4699,6.5105,6.5663,6.5897,6.5897,6.5897,6.5897,6.5897,6.5897,6.5897,6.5897,6.5897,6.5897,6.5897,6.5897,6.5897,6.5897,6.5897,6.623,6.6551,6.7102,6.8333,6.891,6.9167,6.9937,7.036,7.0821,7.086,7.0898,7.0898,7.0898,7.0898,7.0898,7.0898,7.0898,7.0898,7.0898,7.0898,7.0975,7.1091,7.1321,7.1541,7.2003,7.2696,7.3553,7.4255,7.4755,7.5255,7.5784,7.5976,5.3794,5.3794,5.3794,5.3794,5.3794,5.3794,5.3794,5.3794,5.3794,5.3905,5.4167,5.4837,5.5763,5.6529,5.7348,5.8136,5.876,5.9241,5.9845,6.0597,6.0757,6.0781,6.0781,6.0781,6.0781,6.0781,6.0781,6.0781,6.0781,6.0781,6.0781,6.0781,6.0781,6.0858,6.1204,6.2243,6.3166,6.3589,6.482,6.5743,6.5859,6.5897,6.5897,6.5897,6.5897,6.5513,6.4871,6.4664,6.4369,6.3691,6.3602,6.3602,6.3602,6.3602,6.3602,6.3602,6.3602,6.3602,6.3602,6.3602,6.3602,6.3602,6.3602,6.3963,6.4482,6.4765,6.513,6.5569,6.5897,6.5897,6.5897,6.5897,6.5897,6.5897,6.5897,6.5936,6.6051,6.6051,6.6128,6.5936,6.6128,6.6346,6.6538,6.6808,6.7128,6.7641,6.891,6.9833,7.0052,7.0283,7.0667,7.0821,7.086,7.0898,7.0898,7.0937,7.0937,7.1091,7.1052,7.1245,7.1321,7.1668,7.1783,7.1321,7.136,7.1695,7.2195,7.2811,7.3581,7.4486,7.4985,7.5332,7.5668,7.5938,7.5976,5.3794,5.3794,5.3794,5.3794,5.3794,5.3794,5.3794,5.3794,5.3794,5.4204,5.4837,5.5693,5.6469,5.7316,5.8095,5.8713,5.899,5.9152,5.946,6.0326,6.0622,6.0781,6.0781,6.0781,6.0781,6.0781,6.0781,6.0781,6.0781,6.0781,6.0781,6.0781,6.0781,6.0781,6.105,6.182,6.2743,6.3358,6.4397,6.5205,6.5743,6.5897,6.5974,6.5974,6.6051,6.5638,6.5057,6.4775,6.4369,6.3736,6.3602,6.3676,6.3788,6.3788,6.3713,6.3602,6.3602,6.3602,6.3602,6.3602,6.3602,6.3602,6.3602,6.3925,6.4481,6.4752,6.5077,6.5624,6.5897,6.5897,6.5897,6.6013,6.5974,6.5936,6.6128,6.6282,6.6744,6.6859,6.6667,6.6397,6.6615,6.6923,6.7231,6.7616,6.8129,6.8564,6.9371,7.0179,7.0514,7.0629,7.0783,7.0898,7.0898,7.0898,7.0898,7.0975,7.1052,7.1321,7.1514,7.2024,7.2255,7.2822,7.2822,7.2437,7.2206,7.2426,7.3004,7.3619,7.4197,7.487,7.5361,7.5784,7.5899,7.5976,7.5976,5.3794,5.3794,5.3794,5.3794,5.3794,5.3794,5.3794,5.3794,5.3831,5.424,5.5096,5.5912,5.6763,5.7538,5.8359,5.8905,5.9065,5.9228,5.9619,6.0255,6.0622,6.0781,6.0781,6.0781,6.0781,6.0781,6.0781,6.0781,6.0781,6.0781,6.0781,6.0781,6.0781,6.0781,6.0973,6.1666,6.2474,6.332,6.4166,6.5013,6.582,6.5897,6.6051,6.641,6.6538,6.6423,6.6396,6.6059,6.5766,6.5315,6.5001,6.4919,6.4845,6.477,6.451,6.3825,6.3676,6.3639,6.3639,6.3602,6.3602,6.3602,6.3639,6.3925,6.4481,6.4785,6.5176,6.5678,6.5936,6.609,6.65,6.6513,6.6744,6.709,6.7128,6.7321,6.7628,6.7744,6.7513,6.7205,6.7577,6.7885,6.791,6.841,6.9129,6.9629,7.0025,7.0409,7.086,7.0898,7.0898,7.0937,7.0975,7.1091,7.1206,7.1503,7.1552,7.1783,7.2168,7.2678,7.3024,7.3486,7.3745,7.3668,7.3553,7.3388,7.3735,7.435,7.4784,7.5207,7.5592,7.5899,7.5938,7.5976,7.5976,5.3794,5.3794,5.3794,5.3794,5.3794,5.3794,5.3794,5.3831,5.4017,5.4537,5.5317,5.6169,5.6948,5.7464,5.7955,5.8455,5.9028,5.9386,5.9703,6.017,6.0597,6.0781,6.0781,6.0781,6.0781,6.0781,6.0781,6.0781,6.0781,6.0781,6.0781,6.0781,6.0781,6.0781,6.0973,6.1666,6.2474,6.332,6.4166,6.5013,6.5705,6.609,6.6397,6.7076,6.7268,6.7505,6.7515,6.7151,6.6825,6.6462,6.6224,6.6026,6.6081,6.6089,6.544,6.4382,6.4122,6.4093,6.4167,6.4233,6.4382,6.4382,6.4196,6.457,6.5159,6.5715,6.5906,6.623,6.65,6.6731,6.7269,6.7359,6.7679,6.8025,6.8256,6.8436,6.859,6.8706,6.8859,6.877,6.8835,6.8809,6.8794,6.9294,6.9975,7.009,7.0448,7.0552,7.0898,7.0898,7.0898,7.1014,7.1091,7.1283,7.1618,7.2195,7.2322,7.2524,7.3063,7.364,7.3832,7.4063,7.4332,7.4668,7.4553,7.4476,7.4774,7.4966,7.5322,7.563,7.5861,7.5976,7.5976,7.5976,7.5976,5.3794,5.3794,5.3794,5.3794,5.3794,5.3794,5.3794,5.3905,5.45,5.5356,5.6063,5.6915,5.736,5.7509,5.6989,5.7587,5.8424,5.894,5.9311,5.9954,6.052,6.0781,6.0781,6.0781,6.0781,6.0781,6.0781,6.0781,6.0781,6.0781,6.0781,6.0781,6.0781,6.0781,6.0896,6.1512,6.2474,6.3281,6.4166,6.5089,6.5897,6.6577,6.6936,6.741,6.7818,6.8234,6.8112,6.7791,6.7354,6.6921,6.6441,6.6175,6.6091,6.6138,6.6081,6.5848,6.5794,6.5791,6.5672,6.5543,6.5534,6.5459,6.5571,6.6181,6.6522,6.7194,6.7614,6.8039,6.7988,6.8026,6.8155,6.8256,6.8345,6.846,6.8641,6.8975,6.9206,6.8821,6.909,6.9552,6.9386,6.9475,6.9563,7.0179,7.0744,7.0783,7.0821,7.086,7.0975,7.1052,7.1168,7.1283,7.1745,7.1975,7.2283,7.2811,7.3129,7.3332,7.3947,7.4562,7.4678,7.487,7.5322,7.5553,7.5438,7.5322,7.5438,7.5592,7.5822,7.5899,7.5976,7.5976,7.5976,7.5976,7.5976,5.3794,5.3794,5.3794,5.3794,5.3794,5.3794,5.3794,5.398,5.4648,5.5466,5.636,5.7138,5.7732,5.7955,5.7769,5.8066,5.8679,5.9018,5.9393,5.9823,6.0403,6.0781,6.0781,6.0781,6.0781,6.0781,6.0781,6.0781,6.0781,6.0781,6.0781,6.0781,6.0781,6.0781,6.0819,6.1166,6.2127,6.3281,6.4589,6.5705,6.6423,6.6962,6.7577,6.8487,6.8921,6.9212,6.9298,6.8891,6.8603,6.8251,6.7815,6.7465,6.7465,6.7503,6.7455,6.7443,6.7465,6.703,6.6229,6.6182,6.6182,6.6155,6.6212,6.6357,6.7127,6.7952,6.8462,6.8385,6.8359,6.8629,6.904,6.914,6.9448,6.9525,6.9217,6.9244,6.9398,6.8975,6.8936,6.9475,6.991,6.9833,6.9986,7.0591,7.0898,7.086,7.086,7.0937,7.1206,7.1475,7.1591,7.1745,7.2322,7.2899,7.3206,7.363,7.4014,7.4293,7.4832,7.5361,7.5476,7.5745,7.5938,7.5976,7.5784,7.5822,7.5976,7.5976,7.5938,7.5976,7.5976,7.5976,7.5976,7.5976,7.5976,5.3794,5.3794,5.3794,5.3794,5.3794,5.3794,5.3794,5.3905,5.4946,5.5726,5.6357,5.7138,5.7955,5.8475,5.8438,5.8326,5.8702,5.9399,5.9639,5.9962,6.0321,6.0647,6.0757,6.0781,6.0781,6.0781,6.0781,6.0781,6.0781,6.0781,6.0781,6.0781,6.0781,6.0781,6.0858,6.1243,6.2089,6.3743,6.5089,6.6192,6.6962,6.7616,6.8475,6.9294,6.9948,7.0294,7.0661,7.0195,6.9811,6.9434,6.8897,6.8399,6.8331,6.8283,6.8283,6.8271,6.8246,6.7863,6.7221,6.6913,6.6679,6.6738,6.7,6.7601,6.8106,6.8655,6.9052,6.9206,6.9217,6.9525,6.9833,6.9986,7.0179,7.0217,7.0052,6.986,6.9552,6.8859,6.8552,6.8975,6.9371,6.9756,7.0063,7.0821,7.1052,7.0937,7.0937,7.1014,7.1475,7.2014,7.2322,7.2552,7.3168,7.3745,7.3976,7.4361,7.4716,7.5062,7.563,7.5899,7.5861,7.5899,7.5976,7.5976,7.5976,7.5976,7.5976,7.5976,7.5976,7.5976,7.5976,7.5976,7.5976,7.6053,7.6245,5.3794,5.3794,5.3794,5.3794,5.3794,5.3794,5.3794,5.4054,5.5503,5.6246,5.6617,5.7175,5.8066,5.8401,5.8215,5.8178,5.8698,5.9102,5.9467,5.9836,6.0141,6.0546,6.071,6.0781,6.0781,6.0781,6.0781,6.0781,6.0781,6.0781,6.0781,6.0781,6.0781,6.0781,6.1089,6.1627,6.2627,6.4128,6.5436,6.6423,6.7462,6.8398,6.9448,6.9794,7.0371,7.086,7.0871,7.0432,7.0064,6.9777,6.9261,6.8846,6.8677,6.8543,6.8543,6.8543,6.8543,6.8271,6.8011,6.8007,6.8257,6.853,6.8833,6.9171,6.9523,7.0248,7.0602,7.0437,7.0217,7.0437,7.0667,7.0821,7.0744,7.0321,6.9898,6.936,6.8936,6.8359,6.8167,6.8513,6.8898,6.9321,7.0206,7.0964,7.1437,7.136,7.1668,7.1783,7.2283,7.2783,7.3206,7.3553,7.4168,7.4553,7.4697,7.5014,7.5399,7.5515,7.5822,7.5938,7.5976,7.5976,7.5976,7.5976,7.5976,7.5976,7.5976,7.5976,7.5976,7.5976,7.6015,7.6092,7.6361,7.6562,7.6861,5.3794,5.3794,5.3794,5.3794,5.3794,5.3794,5.4091,5.4686,5.58,5.6915,5.7769,5.8141,5.8401,5.8549,5.8475,5.8364,5.8743,5.9363,5.9605,5.9931,6.0293,6.0622,6.0781,6.0781,6.0781,6.0781,6.0781,6.0781,6.0781,6.0781,6.0781,6.0781,6.0781,6.0781,6.1166,6.2012,6.3128,6.4089,6.5628,6.7039,6.7975,6.8948,6.9948,7.0486,7.0629,7.0898,7.0843,7.0532,7.0233,6.9959,6.9428,6.9109,6.8788,6.8617,6.8543,6.8543,6.8543,6.8543,6.8623,6.8713,6.8955,6.9306,6.9702,7.0133,7.0369,7.0652,7.0871,7.086,7.0898,7.0898,7.0898,7.086,7.0706,7.0129,6.9513,6.8898,6.8282,6.7744,6.7628,6.7898,6.8462,6.8989,7.0067,7.1145,7.1514,7.1832,7.2245,7.2629,7.3091,7.363,7.4053,7.4361,7.4899,7.5207,7.5361,7.5668,7.5976,7.5976,7.5976,7.5976,7.5976,7.5976,7.5976,7.5976,7.6015,7.6053,7.6053,7.6015,7.6053,7.6169,7.6245,7.6284,7.6601,7.7139,7.7523,5.3944,5.3981,5.4242,5.4131,5.3831,5.4054,5.4463,5.5131,5.6209,5.7398,5.8698,5.8698,5.8698,5.8698,5.8825,5.8828,5.9025,5.9432,5.9809,6.0091,6.0376,6.0685,6.0757,6.0781,6.0781,6.0781,6.0781,6.0781,6.0781,6.0781,6.0781,6.0781,6.0781,6.0781,6.1127,6.2127,6.3166,6.4166,6.5769,6.75,6.8359,6.9525,7.0217,7.0821,7.0898,7.0898,7.0871,7.0622,7.0432,7.0167,6.9815,6.9402,6.9099,6.884,6.8654,6.858,6.8543,6.8543,6.8717,6.8898,6.9317,6.9809,7.003,7.0337,7.0532,7.0748,7.0871,7.0898,7.0898,7.086,7.086,7.086,7.0514,7.0002,6.909,6.8436,6.7705,6.7167,6.7128,6.7244,6.8103,6.922,7.0194,7.1398,7.236,7.2794,7.3255,7.3591,7.3899,7.4399,7.4976,7.5245,7.5515,7.5745,7.5976,7.5976,7.5976,7.5976,7.5976,7.5976,7.5976,7.6015,7.6015,7.5976,7.6015,7.613,7.6322,7.6583,7.6544,7.6438,7.6707,7.7169,7.7716,7.8292,7.8408,5.4322,5.4409,5.5125,5.48,5.4129,5.4686,5.5057,5.5466,5.6803,5.7955,5.8661,5.8698,5.8739,5.8784,5.9025,5.914,5.9289,5.9639,6.0,6.0237,6.0376,6.0572,6.071,6.0781,6.0781,6.0781,6.0781,6.0781,6.0781,6.0781,6.0781,6.0858,6.0935,6.0973,6.0935,6.1704,6.2974,6.4551,6.6242,6.7564,6.8513,6.9898,7.0667,7.086,7.0898,7.0898,7.0871,7.0843,7.0622,7.04,7.0238,6.9815,6.9341,6.9107,6.8889,6.8617,6.858,6.874,6.9043,6.9119,6.9559,7.0184,7.04,7.0494,7.0777,7.086,7.086,7.0821,7.0667,7.0706,7.0783,7.0783,7.0244,6.9629,6.8783,6.8359,6.7705,6.7282,6.7398,6.7808,6.8809,6.9848,7.0679,7.165,7.2996,7.3764,7.4293,7.4591,7.4745,7.5014,7.5553,7.5668,7.5822,7.5899,7.5976,7.5976,7.5976,7.5976,7.6053,7.6092,7.6207,7.6322,7.6245,7.613,7.6438,7.6899,7.7121,7.7314,7.7506,7.7707,7.8045,7.8507,7.9023,7.9408,7.9485,5.495,5.5416,5.5488,5.5653,5.5771,5.5843,5.6134,5.6803,5.7769,5.8475,5.8661,5.8698,5.8825,5.8988,5.9178,5.9357,5.9639,5.9962,6.0265,6.0293,6.0494,6.0647,6.0781,6.0781,6.0781,6.0781,6.0781,6.0781,6.0781,6.0781,6.0781,6.0858,6.1473,6.1627,6.205,6.2897,6.4205,6.4936,6.6602,6.818,6.859,6.9898,7.0821,7.0783,7.0783,7.0744,7.0706,7.0667,7.0584,7.0507,7.0417,7.009,6.974,6.9536,6.9171,6.9011,6.8974,6.9197,6.9664,6.9961,7.0162,7.0527,7.0613,7.0643,7.086,7.0333,7.0448,7.0514,7.0063,6.9986,6.991,7.0063,6.9717,6.9179,6.8641,6.8706,6.8359,6.8129,6.8167,6.8809,6.9655,7.0952,7.1964,7.2399,7.3486,7.462,7.5187,7.5322,7.5476,7.5553,7.5861,7.5861,7.5938,7.5976,7.6015,7.6092,7.6053,7.5976,7.613,7.6322,7.6438,7.6784,7.7092,7.7284,7.7515,7.7746,7.8045,7.8353,7.8823,7.9169,7.9285,7.9392,7.96,8.01,8.0554,5.5673,5.6235,5.6573,5.6954,5.7291,5.6891,5.7175,5.7918,5.8475,5.8781,5.8862,5.8892,5.9059,5.9363,5.9568,5.9663,6.003,6.0321,6.0494,6.052,6.0685,6.0757,6.0781,6.0781,6.0781,6.0781,6.0781,6.0781,6.0781,6.0781,6.1012,6.1512,6.2358,6.2935,6.3358,6.4051,6.4705,6.5436,6.6885,6.7795,6.8244,6.9064,6.9948,6.991,6.991,6.9937,7.0014,7.009,7.0244,7.0382,7.0335,7.0209,7.0133,7.0144,6.9842,6.9827,7.0319,7.0649,7.1137,7.1497,7.1563,7.1371,7.0898,7.0514,7.0437,7.0025,7.009,6.9975,6.9487,6.9706,6.9937,7.0014,6.9717,6.9217,6.9102,6.9167,6.8821,6.859,6.8898,6.9552,7.0194,7.1645,7.2981,7.3493,7.4043,7.5099,7.6118,7.6062,7.5967,7.5899,7.5938,7.5976,7.5861,7.5784,7.5976,7.6284,7.6207,7.6015,7.6399,7.6899,7.7284,7.7707,7.8092,7.8323,7.8246,7.8361,7.8968,7.943,7.9823,8.0061,8.0208,8.0246,8.0254,8.0561,8.1054,5.6552,5.6818,5.8318,5.8743,5.8457,5.7941,5.8077,5.8706,5.8781,5.8984,5.9215,5.9206,5.9441,5.9815,6.0137,6.0246,6.0321,6.0622,6.071,6.0757,6.0757,6.0781,6.0781,6.0781,6.0781,6.0781,6.0781,6.0781,6.0819,6.105,6.1435,6.2358,6.3589,6.4128,6.4474,6.4743,6.5166,6.5859,6.6654,6.7308,6.7667,6.8179,6.8794,6.8871,6.8833,6.9052,6.9167,6.9283,6.9667,6.9948,7.0179,7.0294,7.0602,7.1206,7.1253,7.1441,7.2147,7.2241,7.2419,7.2601,7.2322,7.1552,7.0552,6.9975,6.986,6.991,6.9975,7.0052,6.9898,7.0298,7.0593,7.0452,7.0271,6.9975,6.9756,6.9513,6.909,6.9167,6.959,7.009,7.0514,7.1657,7.3124,7.3894,7.4392,7.527,7.6006,7.5954,7.5837,7.563,7.5707,7.5938,7.5784,7.5515,7.5784,7.639,7.663,7.6524,7.7408,7.7985,7.8323,7.8631,7.8938,7.9054,7.8784,7.9015,7.9738,8.0315,8.0746,8.0939,8.0785,8.0785,8.0638,8.0785,8.1093,5.7543,5.8626,5.8885,5.9327,5.9701,5.9332,5.9279,5.9467,5.9505,5.9537,5.9643,5.9616,5.982,6.0141,6.0277,6.0457,6.0608,6.0734,6.0757,6.0781,6.0781,6.0781,6.0781,6.0781,6.0781,6.0781,6.0781,6.0858,6.1012,6.132,6.2589,6.3858,6.4397,6.4897,6.5282,6.5513,6.5667,6.5974,6.6654,6.6885,6.7192,6.7744,6.8129,6.8359,6.8398,6.8847,6.9706,6.9937,7.0667,7.1898,7.2245,7.2476,7.2619,7.258,7.2409,7.2286,7.2241,7.2006,7.2265,7.1958,7.1678,7.1475,7.0437,7.0321,7.0206,7.0129,6.9975,7.0014,6.9975,7.0117,7.0413,7.0387,7.0283,7.0206,7.0129,7.0129,6.9821,6.9937,7.036,7.0514,7.0975,7.1814,7.3278,7.4088,7.4625,7.5431,7.5867,7.5875,7.5748,7.5617,7.5592,7.5861,7.5784,7.5515,7.6044,7.6621,7.6899,7.7186,7.8177,7.8985,7.9254,7.9554,7.9785,7.9862,7.9785,8.0092,8.0631,8.1016,8.1093,8.1093,8.0977,8.1054,8.1093,8.1093,8.1093,5.855,5.9488,5.969,6.0035,6.0391,6.015,6.0061,6.0112,5.9899,5.9836,6.0,6.0026,6.0175,6.0456,6.0493,6.0604,6.0757,6.0781,6.0781,6.0781,6.0781,6.0781,6.0781,6.0781,6.0781,6.0781,6.0896,6.1012,6.1473,6.2551,6.3782,6.4397,6.4859,6.5359,6.5705,6.5782,6.582,6.6013,6.6346,6.6577,6.6885,6.7231,6.7616,6.8347,6.8411,6.9398,7.0706,7.0975,7.1745,7.2783,7.2976,7.3206,7.3399,7.3476,7.3927,7.3859,7.3475,7.3293,7.3283,7.2591,7.1975,7.136,7.0898,7.0821,7.0475,7.0206,7.0117,7.0079,6.9794,6.9679,6.9948,7.0179,7.0217,7.0217,7.0552,7.086,7.0821,7.0821,7.0937,7.1052,7.157,7.2291,7.3159,7.3992,7.4831,7.5538,7.6058,7.6271,7.6066,7.5813,7.5793,7.5938,7.5784,7.5553,7.6236,7.6996,7.7515,7.8177,7.9215,7.9869,8.0177,8.0323,8.0439,8.0669,8.09,8.1054,8.0977,8.1016,8.1093,8.1093,8.1093,8.1093,8.1093,8.1093,8.1093,5.9511,5.9704,6.0473,6.0719,6.0757,6.0468,6.0494,6.071,6.0179,6.0061,6.0304,6.0327,6.0495,6.0685,6.0742,6.0742,6.0781,6.0781,6.0781,6.0781,6.0781,6.0781,6.0781,6.0819,6.0935,6.0896,6.1127,6.1627,6.2589,6.3512,6.4282,6.4743,6.5397,6.582,6.5859,6.5897,6.5897,6.5974,6.6128,6.6346,6.6128,6.6269,6.6692,6.8142,6.8706,6.9382,7.0717,7.1321,7.1552,7.2206,7.2745,7.3283,7.364,7.3986,7.4716,7.4832,7.4187,7.3937,7.3581,7.2993,7.2388,7.208,7.2052,7.1437,7.0783,7.0398,7.0348,7.0348,7.0167,7.0217,7.0486,7.0591,7.0591,7.0591,7.0744,7.0898,7.0898,7.0925,7.1043,7.13,7.195,7.2675,7.351,7.4408,7.5149,7.5768,7.6216,7.6526,7.6326,7.5972,7.6029,7.6072,7.5861,7.5928,7.6659,7.7429,7.8314,7.9169,8.0061,8.0523,8.0669,8.0862,8.1054,8.1093,8.1093,8.1093,8.1093,8.1093,8.1093,8.1093,8.1093,8.1093,8.1093,8.1093,8.1093,5.9896,6.0473,6.0704,6.0781,6.0781,6.071,6.071,6.0781,6.0622,6.0572,6.066,6.0674,6.0712,6.0757,6.0781,6.0781,6.0781,6.0781,6.0781,6.0781,6.0781,6.0781,6.0819,6.0935,6.1166,6.1627,6.1973,6.2512,6.3628,6.4397,6.4974,6.5513,6.5897,6.5897,6.5897,6.5897,6.5897,6.609,6.6423,6.6461,6.6244,6.6692,6.7372,6.8385,6.9102,7.0594,7.1919,7.286,7.3783,7.4784,7.5014,7.4938,7.4486,7.4072,7.4226,7.4601,7.3803,7.3486,7.3273,7.2646,7.1772,7.1475,7.1245,7.1129,7.0898,7.0706,7.0591,7.0667,7.0706,7.0821,7.0898,7.0898,7.0898,7.0898,7.0898,7.0898,7.0937,7.1082,7.1197,7.1804,7.2418,7.3184,7.4,7.4759,7.5462,7.6047,7.6477,7.6661,7.6274,7.6032,7.6199,7.6261,7.6072,7.6275,7.7083,7.7997,7.893,7.9631,8.0407,8.0823,8.1093,8.1093,8.1093,8.1093,8.1093,8.1093,8.1093,8.1093,8.1093,8.1093,8.1093,8.1093,8.1093,8.1093,8.1093,6.0358,6.0781,6.0781,6.0781,6.0781,6.0781,6.0781,6.0781,6.0781,6.0781,6.0781,6.0781,6.0781,6.0781,6.0781,6.0781,6.0781,6.0781,6.0781,6.0781,6.0781,6.0781,6.0896,6.1166,6.1589,6.2089,6.2974,6.3782,6.4589,6.5089,6.5551,6.5859,6.5897,6.5897,6.5897,6.5897,6.6128,6.6474,6.6923,6.7039,6.6898,6.75,6.8642,6.9617,7.0497,7.1852,7.3111,7.3976,7.4284,7.4745,7.4591,7.4514,7.4024,7.3755,7.3755,7.3678,7.3178,7.2419,7.2399,7.1849,7.0937,7.0898,7.0898,7.0937,7.0937,7.0783,7.0783,7.0821,7.0821,7.0898,7.0898,7.0898,7.0898,7.0898,7.1002,7.1068,7.1441,7.1873,7.2358,7.3123,7.3643,7.4141,7.4936,7.5657,7.6164,7.5969,7.6438,7.6802,7.6442,7.631,7.645,7.6649,7.6657,7.6958,7.7776,7.8699,7.9691,8.0277,8.0746,8.0939,8.1093,8.1093,8.1093,8.1093,8.1093,8.1093,8.1093,8.1093,8.1093,8.1093,8.1093,8.1093,8.1093,8.1093,8.1093,6.0781,6.0781,6.0781,6.0781,6.0781,6.0781,6.0781,6.0781,6.0781,6.0781,6.0781,6.0781,6.0781,6.0781,6.0781,6.0781,6.0781,6.0781,6.0781,6.0781,6.0781,6.1012,6.132,6.1666,6.2166,6.3012,6.4012,6.4436,6.4936,6.5397,6.5743,6.5859,6.5897,6.5897,6.5897,6.609,6.6397,6.6936,6.7462,6.7962,6.827,6.8604,6.9836,7.0848,7.1678,7.2381,7.3822,7.4399,7.4091,7.3793,7.3591,7.3437,7.3245,7.2986,7.3119,7.2965,7.2447,7.2101,7.208,7.1503,7.1052,7.0898,7.0898,7.0898,7.0898,7.0898,7.0898,7.0898,7.0898,7.0898,7.0898,7.0898,7.0898,7.1041,7.1145,7.1416,7.1989,7.2633,7.3451,7.4234,7.4676,7.5078,7.5659,7.6386,7.6516,7.6281,7.6347,7.6661,7.6916,7.6918,7.7001,7.7418,7.7703,7.8122,7.8622,7.9392,8.0346,8.0585,8.0939,8.1016,8.1093,8.1093,8.1093,8.1093,8.1093,8.1093,8.1093,8.1093,8.1093,8.1093,8.1093,8.1093,8.1093,8.1093,8.1093,6.0781,6.0781,6.0781,6.0781,6.0781,6.0781,6.0781,6.0781,6.0781,6.0781,6.0781,6.0781,6.0781,6.0781,6.0781,6.0781,6.0781,6.0781,6.0781,6.0781,6.0935,6.1281,6.1781,6.2281,6.2974,6.3974,6.4974,6.5474,6.5397,6.5667,6.5923,6.5884,6.5897,6.5936,6.6076,6.6359,6.6936,6.7552,6.8462,6.9117,6.9283,6.959,7.004,7.0887,7.1695,7.258,7.3455,7.3696,7.363,7.336,7.2822,7.2552,7.2294,7.2052,7.208,7.2234,7.1678,7.1706,7.1514,7.1245,7.0975,7.0898,7.0898,7.0898,7.0898,7.0898,7.0898,7.0937,7.0937,7.0975,7.0937,7.0898,7.0937,7.1325,7.157,7.2105,7.2667,7.341,7.4209,7.4781,7.5268,7.5551,7.5865,7.6477,7.6906,7.675,7.675,7.7036,7.7255,7.743,7.7619,7.8137,7.8657,7.9114,7.9546,8.0092,8.0854,8.1016,8.1093,8.1093,8.1093,8.1093,8.1093,8.1093,8.1093,8.1093,8.1093,8.1093,8.1093,8.1093,8.1093,8.1093,8.1093,8.1093,8.1093]},{"header":{"parameterUnit":"m.s-1","parameterCategory":1,"la1":31.0,"la2":29.5877,"lo1":-88.7671,"lo2":-86.6584,"dy":0.0162,"dx":0.0185,"nx":115,"ny":88,"refTime":"2024-03-19T06:00:00:Z","depth":0,"parameterNumber":3,"parameterNumberName":"V-component_of_WINDS"},"data":[0.0,0.0,0.0,0.0,0.0,0.0,0.0,0.0,0.0,0.0,0.0,0.0,0.0,0.0,0.0,0.0,0.0,0.0,0.0,0.0,0.0,0.0,0.0,0.0,0.0,0.0,0.0,0.0,0.0,0.0,0.0,0.0,0.0,0.0,0.0,0.0,0.0,0.0,0.0,0.0,0.0,0.0,0.0,0.0,0.0,0.0,0.0,0.0,0.0,0.0,0.0,0.0,0.0,0.0,0.0,0.0,0.0,0.0,0.0,0.0,0.0,0.0,0.0,0.0,0.0,0.0,0.0,0.0,0.0,0.0,0.0,0.0,0.0,0.0,0.0,0.0,0.0,0.0,0.0,0.0,0.0,0.0,0.0,0.0,0.0,0.0,0.0,0.0,0.0,0.0,0.0,0.0,0.0,0.0,0.0,0.0,0.0,0.0,0.0,0.0,0.0,0.0,0.0,0.0,0.0,0.0,0.0,0.0,0.0,0.0,0.0,0.0,0.0,0.0,0.0,0.0,0.0,0.0,0.0,0.0,0.0,0.0,0.0,0.0,0.0,0.0,0.0,0.0,0.0,0.0,0.0,0.0,0.0,0.0,0.0,0.0,0.0,0.0,0.0,0.0,0.0,0.0,0.0,0.0,0.0,0.0,0.0,0.0,0.0,0.0,0.0,0.0,0.0,0.0,0.0,0.0,0.0,0.0,0.0,0.0,0.0,0.0,0.0,0.0,0.0,0.0,0.0,0.0,0.0,0.0,0.0,0.0,0.0,0.0,0.0,0.0,0.0,0.0,0.0,0.0,0.0,0.0,0.0,0.0,0.0,0.0,0.0,0.0,0.0,0.0,0.0,0.0,0.0,0.0,0.0,0.0,0.0,0.0,0.0,0.0,0.0,0.0,0.0,0.0,0.0,0.0,0.0,0.0,0.0,0.0,0.0,0.0,0.0,0.0,0.0,0.0,0.0,0.0,0.0,0.0,0.0,0.0,0.0,0.0,0.0,0.0,0.0,0.0,0.0,0.0,0.0,0.0,0.0,0.0,0.0,0.0,0.0,0.0,0.0,0.0,0.0,0.0,0.0,0.0,0.0,0.0,0.0,0.0,0.0,0.0,0.0,0.0,0.0,0.0,0.0,0.0,0.0,0.0,0.0,0.0,0.0,0.0,0.0,0.0,0.0,0.0,0.0,0.0,0.0,0.0,0.0,0.0,0.0,0.0,0.0,0.0,0.0,0.0,0.0,0.0,0.0,0.0,0.0,0.0,0.0,0.0,0.0,0.0,0.0,0.0,0.0,0.0,0.0,0.0,0.0,0.0,0.0,0.0,0.0,0.0,0.0,0.0,0.0,0.0,0.0,0.0,0.0,0.0,0.0,0.0,0.0,0.0,0.0,0.0,0.0,0.0,0.0,0.0,0.0,0.0,0.0,0.0,0.0,0.0,0.0,0.0,0.0,0.0,0.0,0.0,0.0,0.0,0.0,0.0,0.0,0.0,0.0,0.0,0.0,0.0,0.0,0.0,0.0,0.0,0.0,0.0,0.0,0.0,0.0,0.0,0.0,0.0,0.0,0.0,0.0,0.0,0.0,0.0,0.0,0.0,0.0,0.0,0.0,0.0,0.0,0.0,0.0,0.0,0.0,0.0,0.0,0.0,0.0,0.0,0.0,0.0,0.0,0.0,0.0,0.0,0.0,0.0,0.0,0.0,0.0,0.0,0.0,0.0,0.0,0.0,0.0,0.0,0.0,0.0,0.0,0.0,0.0,0.0,0.0,0.0,0.0,0.0,0.0,0.0,0.0,0.0,0.0,0.0,0.0,0.0,0.0,0.0,0.0,0.0,0.0,0.0,0.0,0.0,0.0,0.0,0.0,0.0,0.0,0.0,0.0,0.0,0.0,0.0,0.0,0.0,0.0,0.0,0.0,0.0,0.0,0.0,0.0,0.0,0.0,0.0,0.0,0.0,0.0,0.0,0.0,0.0,0.0,0.0,0.0,0.0,0.0,0.0,0.0,0.0,0.0,0.0,0.0,0.0,0.0,0.0,0.0,0.0,0.0,0.0,0.0,0.0,0.0,0.0,0.0,0.0,0.0,0.0,0.0,0.0,0.0,0.0,0.0,0.0,0.0,0.0,0.0,0.0,0.0,0.0,0.0,0.0,0.0,0.0,0.0,0.0,0.0,0.0,0.0,0.0,0.0,0.0,0.0,0.0,0.0,0.0,0.0,0.0,0.0,0.0,0.0,0.0,0.0,0.0,0.0,0.0,0.0,0.0,0.0,0.0,0.0,0.0,0.0,0.0,0.0,0.0,0.0,0.0,0.0,0.0,0.0,0.0,0.0,0.0,0.0,0.0,0.0,0.0,0.0,0.0,0.0,0.0,0.0,0.0,0.0,0.0,0.0,0.0,0.0,0.0,0.0,0.0,0.0,0.0,0.0,0.0,0.0,0.0,0.0,0.0,0.0,0.0,0.0,0.0,0.0,0.0,0.0,0.0,0.0,0.0,0.0,0.0,0.0,0.0,0.0,0.0,0.0,0.0,0.0,0.0,0.0,0.0,0.0,0.0,0.0,0.0,0.0,0.0,0.0,0.0,0.0,0.0,0.0,0.0,0.0,0.0,0.0,0.0,0.0,0.0,0.0,0.0,0.0,0.0,0.0,0.0,0.0,0.0,0.0,0.0,0.0,0.0,0.0,0.0,0.0,0.0,0.0,0.0,0.0,0.0,0.0,0.0,0.0,0.0,0.0,0.0,0.0,0.0,0.0,0.0,0.0,0.0,0.0,0.0,0.0,0.0,0.0,0.0,0.0,0.0,0.0,0.0,0.0,0.0,0.0,0.0,0.0,0.0,0.0,0.0,0.0,0.0,0.0,0.0,0.0,0.0,0.0,0.0,0.0,0.0,0.0,0.0,0.0,0.0,0.0,0.0,0.0,0.0,0.0,0.0,0.0,0.0,0.0,0.0,0.0,0.0,0.0,0.0,0.0,0.0,0.0,0.0,0.0,0.0,0.0,0.0,0.0,0.0,0.0,0.0,0.0,0.0,0.0,0.0,0.0,0.0,0.0,0.0,0.0,0.0,0.0,0.0,0.0,0.0,0.0,0.0,0.0,0.0,0.0,0.0,0.0,0.0,0.0,0.0,0.0,0.0,0.0,0.0,0.0,0.0,0.0,0.0,0.0,0.0,0.0,0.0,0.0,0.0,0.0,0.0,0.0,0.0,0.0,0.0,0.0,0.0,0.0,0.0,0.0,0.0,0.0,0.0,0.0,0.0,0.0,0.0,0.0,0.0,0.0,0.0,0.0,0.0,0.0,0.0,0.0,0.0,0.0,0.0,0.0,0.0,0.0,0.0,0.0,0.0,0.0,0.0,0.0,0.0,0.0,0.0,0.0,0.0,0.0,0.0,0.0,0.0,0.0,0.0,0.0,0.0,0.0,0.0,0.0,0.0,0.0,0.0,0.0,0.0,0.0,0.0,0.0,0.0,0.0,0.0,0.0,0.0,0.0,0.0,0.0,0.0,0.0,0.0,0.0,0.0,0.0,0.0,0.0,0.0,0.0,0.0,0.0,0.0,0.0,0.0,0.0,0.0,0.0,0.0,0.0,0.0,0.0,0.0,0.0,0.0,0.0,0.0,0.0,0.0,0.0,0.0,0.0,0.0,0.0,0.0,0.0,0.0,0.0,0.0,0.0,0.0,0.0,0.0,0.0,0.0,0.0,0.0,0.0,0.0,0.0,0.0,0.0,0.0,0.0,0.0,0.0,0.0,0.0,0.0,0.0,0.0,0.0,0.0,0.0,0.0,0.0,0.0,0.0,0.0,0.0,0.0,0.0,0.0,0.0,0.0,0.0,0.0,0.0,0.0,0.0,0.0,0.0,0.0,0.0,0.0,0.0,0.0,0.0,0.0,0.0,0.0,0.0,0.0,0.0,0.0,0.0,0.0,0.0,0.0,0.0,0.0,0.0,0.0,0.0,0.0,0.0,0.0,0.0,0.0,0.0,0.0,0.0,0.0,0.0,0.0,0.0,0.0,0.0,0.0,0.0,0.0,0.0,0.0,0.0,0.0,0.0,0.0,0.0,0.0,0.0,0.0,0.0,0.0,0.0,0.0,0.0,0.0,0.0,0.0,0.0,0.0,0.0,0.0,0.0,0.0,0.0,0.0,0.0,0.0,0.0,0.0,0.0,0.0,0.0,0.0,0.0,0.0,0.0,0.0,0.0,0.0,0.0,0.0,0.0,0.0,0.0,0.0,0.0,0.0,0.0,0.0,0.0,0.0,0.0,0.0,0.0,0.0,0.0,0.0,0.0,0.0,0.0,0.0,0.0,0.0,0.0,0.0,0.0,0.0,0.0,0.0,0.0,0.0,0.0,0.0,0.0,0.0,0.0,0.0,0.0,0.0,0.0,0.0,0.0,0.0,0.0,0.0,0.0,0.0,0.0,0.0,0.0,0.0,0.0,0.0,0.0,0.0,0.0,0.0,0.0,0.0,0.0,0.0,0.0,0.0,0.0,0.0,0.0,0.0,0.0,0.0,0.0,0.0,0.0,0.0,0.0,0.0,0.0,0.0,0.0,0.0,0.0,0.0,0.0,0.0,0.0,0.0,0.0,0.0,0.0,0.0,0.0,0.0,0.0,0.0,0.0,0.0,0.0,0.0,0.0,0.0,0.0,0.0,0.0,0.0,0.0,0.0,0.0,0.0,0.0,0.0,0.0,0.0,0.0,0.0,0.0,0.0,0.0,0.0,0.0,0.0,0.0,0.0,0.0,0.0,0.0,0.0,0.0,0.0,0.0,0.0,0.0,0.0,0.0,0.0,0.0,0.0,0.0,0.0,0.0,0.0,0.0,0.0,0.0,0.0,0.0,0.0,0.0,0.0,0.0,0.0,0.0,0.0,0.0,0.0,0.0,0.0,0.0,0.0,0.0,0.0,0.0,0.0,0.0,0.0,0.0,0.0,0.0,0.0,0.0,0.0,0.0,0.0,0.0,0.0,0.0,0.0,0.0,0.0,0.0,0.0,0.0,0.0,0.0,0.0,0.0,0.0,0.0,0.0,0.0,0.0,0.0,0.0,0.0,0.0,0.0,0.0,0.0,0.0,0.0,0.0,0.0,0.0,0.0,0.0,0.0,0.0,0.0,0.0,0.0,0.0,0.0,0.0,0.0,0.0,0.0,0.0,0.0,0.0,0.0,0.0,0.0,0.0,0.0,0.0,0.0,0.0,0.0,0.0,0.0,0.0,0.0,0.0,0.0,0.0,0.0,0.0,0.0,0.0,0.0,0.0,0.0,0.0,0.0,0.0,0.0,0.0,0.0,0.0,0.0,0.0,0.0,0.0,0.0,0.0,0.0,0.0,0.0,0.0,0.0,0.0,0.0,0.0,0.0,0.0,0.0,0.0,0.0,0.0,0.0,0.0,0.0,0.0,0.0,0.0,0.0,0.0,0.0,0.0,0.0,0.0,0.0,0.0,0.0,0.0,0.0,0.0,0.0,0.0,0.0,0.0,0.0,0.0,0.0,0.0,0.0,0.0,0.0,0.0,0.0,0.0,0.0,0.0,0.0,0.0,0.0,0.0,0.0,0.0,0.0,0.0,0.0,0.0,0.0,0.0,0.0,0.0,0.0,0.0,0.0,0.0,0.0,0.0,0.0,0.0,0.0,0.0,0.0,0.0,0.0,0.0,0.0,0.0,0.0,0.0,0.0,0.0,0.0,0.0,0.0,0.0,0.0,0.0,0.0,0.0,0.0,0.0,0.0,0.0,0.0,0.0,0.0,0.0,0.0,0.0,0.0,0.0,0.0,0.0,0.0,0.0,0.0,0.0,0.0,0.0,0.0,0.0,0.0,0.0,0.0,0.0,0.0,0.0,0.0,0.0,0.0,0.0,0.0,0.0,0.0,0.0,0.0,0.0,0.0,0.0,0.0,0.0,0.0,0.0,0.0,0.0,0.0,0.0,0.0,0.0,0.0,0.0,0.0,0.0,0.0,0.0,0.0,0.0,0.0,0.0,0.0,0.0,0.0,0.0,0.0,0.0,0.0,0.0,0.0,0.0,0.0,0.0,0.0,0.0,0.0,0.0,0.0,0.0,0.0,0.0,0.0,0.0,0.0,0.0,0.0,0.0,0.0,0.0,0.0,0.0,0.0,0.0,0.0,0.0,0.0,0.0,0.0,0.0,0.0,0.0,0.0,0.0,0.0,0.0,0.0,0.0,0.0,0.0,0.0,0.0,0.0,0.0,0.0,0.0,0.0,0.0,0.0,0.0,0.0,0.0,0.0,0.0,0.0,0.0,0.0,0.0,0.0,0.0,0.0,0.0,0.0,0.0,0.0,0.0,0.0,0.0,0.0,0.0,0.0,0.0,0.0,0.0,0.0,0.0,0.0,0.0,0.0,0.0,0.0,0.0,0.0,0.0,0.0,0.0,0.0,0.0,0.0,0.0,0.0,0.0,0.0,0.0,0.0,0.0,0.0,0.0,0.0,0.0,0.0,0.0,0.0,0.0,0.0,0.0,0.0,0.0,0.0,0.0,0.0,0.0,0.0,0.0,0.0,0.0,0.0,0.0,0.0,0.0,0.0,0.0,0.0,0.0,0.0,0.0,0.0,0.0,0.0,0.0,0.0,0.0,0.0,0.0,0.0,0.0,0.0,0.0,0.0,0.0,0.0,0.0,0.0,0.0,0.0,0.0,0.0,0.0,0.0,0.0,0.0,0.0,0.0,0.0,0.0,0.0,0.0,0.0,0.0,0.0,0.0,0.0,0.0,0.0,0.0,0.0,0.0,0.0,0.0,0.0,0.0,0.0,0.0,0.0,0.0,0.0,0.0,0.0,0.0,0.0,0.0,0.0,0.0,0.0,0.0,0.0,0.0,0.0,0.0,0.0,0.0,0.0,0.0,0.0,0.0,0.0,0.0,0.0,0.0,0.0,0.0,0.0,0.0,0.0,0.0,0.0,0.0,0.0,0.0,0.0,0.0,0.0,0.0,0.0,0.0,0.0,0.0,0.0,0.0,0.0,0.0,0.0,0.0,0.0,0.0,0.0,0.0,0.0,0.0,0.0,0.0,0.0,0.0,0.0,0.0,0.0,0.0,0.0,0.0,0.0,0.0,0.0,0.0,0.0,0.0,0.0,0.0,0.0,0.0,0.0,0.0,0.0,0.0,0.0,0.0,0.0,0.0,0.0,0.0,0.0,0.0,0.0,0.0,0.0,0.0,0.0,0.0,0.0,0.0,0.0,0.0,0.0,0.0,0.0,0.0,0.0,0.0,0.0,0.0,0.0,0.0,0.0,0.0,0.0,0.0,0.0,0.0,0.0,0.0,0.0,0.0,0.0,0.0,0.0,0.0,0.0,0.0,0.0,0.0,0.0,0.0,0.0,0.0,0.0,0.0,0.0,0.0,0.0,0.0,0.0,0.0,0.0,0.0,0.0,0.0,0.0,0.0,0.0,0.0,0.0,0.0,0.0,0.0,0.0,0.0,0.0,0.0,0.0,0.0,0.0,0.0,0.0,0.0,0.0,0.0,0.0,0.0,0.0,0.0,0.0,0.0,0.0,0.0,0.0,0.0,0.0,0.0,0.0,0.0,0.0,0.0,0.0,0.0,0.0,0.0,0.0,0.0,0.0,0.0,0.0,0.0,0.0,0.0,0.0,0.0,0.0,0.0,0.0,0.0,0.0,0.0,0.0,0.0,0.0,0.0,0.0,0.0,0.0,0.0,0.0,0.0,0.0,0.0,0.0,0.0,0.0,0.0,0.0,0.0,0.0,0.0,0.0,0.0,0.0,0.0,0.0,0.0,0.0,0.0,0.0,0.0,0.0,0.0,0.0,0.0,0.0,0.0,0.0,0.0,0.0,0.0,0.0,0.0,0.0,0.0,0.0,0.0,0.0,0.0,0.0,0.0,0.0,0.0,0.0,0.0,0.0,0.0,0.0,0.0,0.0,0.0,0.0,0.0,0.0,0.0,0.0,0.0,0.0,0.0,0.0,0.0,0.0,0.0,0.0,0.0,0.0,0.0,0.0,0.0,0.0,0.0,0.0,0.0,0.0,0.0,0.0,0.0,0.0,0.0,0.0,0.0,0.0,0.0,0.0,0.0,0.0,0.0,0.0,0.0,0.0,0.0,0.0,0.0,0.0,0.0,0.0,0.0,0.0,0.0,0.0,0.0,0.0,0.0,0.0,0.0,0.0,0.0,0.0,0.0,0.0,0.0,0.0,0.0,0.0,0.0,0.0,0.0,0.0,0.0,0.0,0.0,0.0,0.0,0.0,0.0,0.0,0.0,0.0,0.0,0.0,0.0,0.0,0.0,0.0,0.0,0.0,0.0,0.0,0.0,0.0,0.0,0.0,0.0,0.0,0.0,0.0,0.0,0.0,0.0,0.0,0.0,0.0,0.0,0.0,0.0,0.0,0.0,0.0,0.0,0.0,0.0,0.0,0.0,0.0,0.0,0.0,0.0,0.0,0.0,0.0,0.0,0.0,0.0,0.0,0.0,0.0,0.0,0.0,0.0,0.0,0.0,0.0,0.0,0.0,0.0,0.0,0.0,0.0,0.0,0.0,0.0,0.0,0.0,0.0,0.0,0.0,0.0,0.0,0.0,0.0,0.0,0.0,0.0,0.0,0.0,0.0,0.0,0.0,0.0,0.0,0.0,0.0,0.0,0.0,0.0,0.0,0.0,0.0,0.0,0.0,0.0,0.0,0.0,0.0,0.0,0.0,0.0,0.0,0.0,0.0,0.0,0.0,0.0,0.0,0.0,0.0,0.0,0.0,0.0,0.0,0.0,0.0,0.0,0.0,0.0,0.0,0.0,0.0,0.0,0.0,0.0,0.0,0.0,0.0,0.0,0.0,0.0,0.0,0.0,0.0,0.0,0.0,0.0,0.0,0.0,0.0,0.0,0.0,0.0,0.0,0.0,0.0,0.0,0.0,0.0,0.0,0.0,0.0,0.0,0.0,0.0,0.0,0.0,0.0,0.0,0.0,0.0,0.0,0.0,0.0,0.0,0.0,0.0,0.0,0.0,0.0,0.0,0.0,0.0,0.0,0.0,0.0,0.0,0.0,0.0,0.0,0.0,0.0,0.0,0.0,0.0,0.0,0.0,0.0,0.0,0.0,0.0,0.0,0.0,0.0,0.0,0.0,0.0,0.0,0.0,0.0,0.0,0.0,0.0,0.0,0.0,0.0,0.0,0.0,0.0,0.0,0.0,0.0,0.0,0.0,0.0,0.0,0.0,0.0,0.0,0.0,0.0,0.0,0.0,0.0,0.0,0.0,0.0,0.0,0.0,0.0,0.0,0.0,0.0,0.0,0.0,0.0,0.0,0.0,0.0,0.0,0.0,0.0,0.0,0.0,0.0,0.0,0.0,0.0,0.0,0.0,0.0,0.0,0.0,0.0,0.0,0.0,0.0,0.0,0.0,0.0,0.0,0.0,0.0,0.0,0.0,0.0,0.0,0.0,0.0,0.0,0.0,0.0,0.0,0.0,0.0,0.0,0.0,0.0,0.0,0.0,0.0,0.0,0.0,0.0,0.0,0.0,0.0,0.0,0.0,0.0,0.0,0.0,0.0,0.0,0.0,0.0,0.0,0.0,0.0,0.0,0.0,0.0,0.0,0.0,0.0,0.0,0.0,0.0,0.0,0.0,0.0,0.0,0.0,0.0,0.0,0.0,0.0,0.0,0.0,0.0,0.0,0.0,0.0,0.0,0.0,0.0,0.0,0.0,0.0,0.0,0.0,0.0,0.0,0.0,0.0,0.0,0.0,0.0,0.0,0.0,0.0,0.0,0.0,0.0,0.0,0.0,0.0,0.0,0.0,0.0,0.0,0.0,0.0,0.0,0.0,0.0,0.0,0.0,0.0,0.0,0.0,0.0,0.0,0.0,0.0,0.0,0.0,0.0,0.0,0.0,0.0,0.0,0.0,0.0,0.0,0.0,0.0,0.0,0.0,0.0,0.0,0.0,0.0,0.0,0.0,0.0,0.0,0.0,0.0,0.0,0.0,0.0,0.0,0.0,0.0,0.0,0.0,0.0,0.0,0.0,0.0,0.0,0.0,0.0,0.0,0.0,0.0,0.0,0.0,0.0,0.0,0.0,0.0,0.0,0.0,0.0,0.0,0.0,0.0,0.0,0.0,0.0,0.0,0.0,0.0,0.0,0.0,0.0,0.0,0.0,0.0,0.0,0.0,0.0,0.0,0.0,0.0,0.0,0.0,0.0,0.0,0.0,0.0,0.0,0.0,0.0,0.0,0.0,0.0,0.0,0.0,0.0,0.0,0.0,0.0,0.0,0.0,0.0,0.0,0.0,0.0,0.0,0.0,0.0,0.0,0.0,0.0,0.0,0.0,0.0,0.0,0.0,0.0,0.0,0.0,0.0,0.0,0.0,0.0,0.0,0.0,0.0,0.0,0.0,0.0,0.0,0.0,0.0,0.0,0.0,0.0,0.0,0.0,0.0,0.0,0.0,0.0,0.0,0.0,0.0,0.0,0.0,0.0,0.0,0.0,0.0,0.0,0.0,0.0,0.0,0.0,0.0,0.0,0.0,0.0,0.0,0.0,0.0,0.0,0.0,0.0,0.0,0.0,0.0,0.0,0.0,0.0,0.0,0.0,0.0,0.0,0.0,0.0,0.0,0.0,0.0,0.0,0.0,0.0,0.0,0.0,0.0,0.0,0.0,0.0,0.0,0.0,0.0,0.0,0.0,0.0,0.0,0.0,0.0,0.0,0.0,0.0,0.0,0.0,0.0,0.0,0.0,0.0,0.0,0.0,0.0,0.0,0.0,0.0,0.0,0.0,0.0,0.0,0.0,0.0,0.0,0.0,0.0,0.0,0.0,0.0,0.0,0.0,0.0,0.0,0.0,0.0,0.0,0.0,0.0,0.0,0.0,0.0,0.0,0.0,0.0,0.0,0.0,0.0,0.0,0.0,0.0,0.0,0.0,0.0,0.0,0.0,0.0,0.0,0.0,0.0,0.0,0.0,0.0,0.0,0.0,0.0,0.0,0.0,0.0,0.0,0.0,0.0,0.0,0.0,0.0,0.0,0.0,0.0,0.0,0.0,0.0,0.0,0.0,0.0,0.0,0.0,0.0,0.0,0.0,0.0,0.0,0.0,0.0,0.0,0.0,0.0,0.0,0.0,0.0,0.0,0.0,0.0,0.0,0.0,0.0,0.0,0.0,0.0,0.0,0.0,0.0,0.0,0.0,0.0,0.0,0.0,0.0,0.0,0.0,0.0,0.0,0.0,0.0,0.0,0.0,0.0,0.0,0.0,0.0,0.0,0.0,0.0,0.0,0.0,0.0,0.0,0.0,0.0,0.0,0.0,0.0,0.0,0.0,0.0,0.0,0.0,0.0,0.0,0.0,0.0,0.0,0.0,0.0,0.0,0.0,0.0,0.0,0.0,0.0,0.0,0.0,0.0,0.0,0.0,0.0,0.0,0.0,0.0,0.0,0.0,0.0,0.0,0.0,0.0,0.0,0.0,0.0,0.0,0.0,0.0,0.0,0.0,0.0,0.0,0.0,0.0,0.0,0.0,0.0,0.0,0.0,0.0,0.0,0.0,0.0,0.0,0.0,0.0,0.0,0.0,0.0,0.0,0.0,0.0,0.0,0.0,0.0,0.0,0.0,0.0,0.0,0.0,0.0,0.0,0.0,0.0,0.0,0.0,0.0,0.0,0.0,0.0,0.0,0.0,0.0,0.0,0.0,0.0,0.0,0.0,0.0,0.0,0.0,0.0,0.0,0.0,0.0,0.0,0.0,0.0,0.0,0.0,0.0,0.0,0.0,0.0,0.0,0.0,0.0,0.0,0.0,0.0,0.0,0.0,0.0,0.0,0.0,0.0,0.0,0.0,0.0,0.0,0.0,0.0,0.0,0.0,0.0,0.0,0.0,0.0,0.0,0.0,0.0,0.0,0.0,0.0,0.0,0.0,0.0,0.0,0.0,0.0,0.0,0.0,0.0,0.0,0.0,0.0,0.0,0.0,0.0,0.0,0.0,0.0,0.0,0.0,0.0,0.0,0.0,0.0,0.0,0.0,0.0,0.0,0.0,0.0,0.0,0.0,0.0,0.0,0.0,0.0,0.0,0.0,0.0,0.0,0.0,0.0,0.0,0.0,0.0,0.0,0.0,0.0,0.0,0.0,0.0,0.0,0.0,0.0,0.0,0.0,0.0,0.0,0.0,0.0,0.0,0.0,0.0,0.0,0.0,0.0,0.0,0.0,0.0,0.0,0.0,0.0,0.0,0.0,0.0,0.0,0.0,0.0,0.0,0.0,0.0,0.0,0.0,0.0,0.0,0.0,0.0,0.0,0.0,0.0,0.0,0.0,0.0,0.0,0.0,0.0,0.0,0.0,0.0,0.0,0.0,0.0,0.0,0.0,0.0,0.0,0.0,0.0,0.0,0.0,0.0,0.0,0.0,0.0,0.0,0.0,0.0,0.0,0.0,0.0,0.0,0.0,0.0,0.0,0.0,0.0,0.0,0.0,0.0,0.0,0.0,0.0,0.0,0.0,0.0,0.0,0.0,0.0,0.0,0.0,0.0,0.0,0.0,0.0,0.0,0.0,0.0,0.0,0.0,0.0,0.0,0.0,0.0,0.0,0.0,-0.4681,0.0,0.0,0.0,0.0,0.0,0.0,0.0,0.0,0.0,0.0,0.0,0.0,0.0,0.0,0.0,0.0,0.0,0.0,0.0,0.0,0.0,0.0,0.0,0.0,0.0,0.0,0.0,0.0,0.0,0.0,0.0,0.0,0.0,0.0,0.0,0.0,0.0,0.0,0.0,0.0,0.0,0.0,0.0,0.0,0.0,0.0,0.0,0.0,0.0,0.0,0.0,0.0,0.0,0.0,0.0,0.0,0.0,0.0,0.0,0.0,0.0,0.0,0.0,0.0,0.0,0.0,0.0,0.0,0.0,0.0,0.0,0.0,0.0,0.0,0.0,0.0,0.0,0.0,0.0,0.0,0.0,0.0,0.0,0.0,0.0,0.0,0.0,0.0,0.0,0.0,0.0,0.0,0.0,0.0,0.0,0.0,0.0,0.0,0.0,0.0,0.0,0.0,0.0,0.0,0.0,0.0,0.0,0.0,0.0,0.0,0.0,0.0,0.0,0.0,0.0,0.0,0.0,0.0,0.0,0.0,0.0,0.0,0.0,0.0,0.0,0.0,0.0,0.0,0.0,0.0,0.0,0.0,0.0,0.0,0.0,0.0,0.0,0.0,0.0,0.0,0.0,0.0,0.0,0.0,0.0,0.0,0.0,0.0,0.0,0.0,0.0,0.0,0.0,0.0,0.0,0.0,0.0,0.0,0.0,0.0,0.0,0.0,0.0,0.0,0.0,0.0,0.0,0.0,0.0,0.0,0.0,0.0,0.0,0.0,0.0,0.0,0.0,0.0,0.0,0.0,0.0,0.0,0.0,0.0,0.0,0.0,0.0,0.0,0.0,0.0,0.0,0.0,0.0,0.0,0.0,0.0,0.0,0.0,0.0,0.0,0.0,0.0,0.0,0.0,0.0,0.0,0.0,0.0,0.0,0.0,0.0,0.0,0.0,0.0,0.0,0.0,0.0,0.0,0.0,0.0,-0.1821,-0.1928,0.0,0.0,0.0,0.0,0.0,0.0,0.0,0.0,-0.6287,0.0,0.0,0.0,0.0,0.0,0.0,0.0,0.0,0.0,0.0,0.0,0.0,0.0,0.0,0.0,0.0,0.0,0.0,0.0,0.0,0.0,0.0,0.0,0.0,0.0,0.0,0.0,0.0,0.0,0.0,0.0,0.0,0.0,0.0,0.0,0.0,0.0,0.0,0.0,0.0,0.0,0.0,0.0,0.0,0.0,0.0,0.0,0.0,0.0,0.0,0.0,0.0,0.0,0.0,0.0,0.0,0.0,0.0,0.0,0.0,0.0,0.0,0.0,0.0,0.0,0.0,0.0,0.0,0.0,0.0,0.0,0.0,0.0,0.0,0.0,0.0,0.0,0.0,0.0,0.0,0.0,0.0,0.0,0.0,0.0,0.0,0.0,0.0,0.0,0.0,0.0,0.0,0.0,0.0,0.0,0.0,0.0,0.0,0.0,0.0,0.0,0.0,0.0,0.0,0.0,-0.2141,-0.2132,0.0,0.0,0.0,0.0,0.0,0.0,0.0,0.0,-0.3039,0.0,0.0,0.0,0.0,0.0,0.0,0.0,0.0,0.0,0.0,0.0,0.0,0.0,0.0,0.0,0.0,0.0,0.0,0.0,0.0,0.0,0.0,0.0,0.0,0.0,0.0,0.0,0.0,0.0,0.0,0.0,0.0,0.0,0.0,0.0,0.0,0.0,0.0,0.0,0.0,0.0,0.0,0.0,0.0,0.0,0.0,0.0,0.0,0.0,0.0,0.0,0.0,0.0,0.0,0.0,0.0,0.0,0.0,0.0,0.0,0.0,0.0,0.0,0.0,0.0,0.0,0.0,0.0,0.0,0.0,0.0,0.0,0.0,0.0,0.0,0.0,0.0,0.0,0.0,0.0,0.0,0.0,0.0,0.0,0.0,0.0,0.0,0.0,0.0,0.0,0.0,0.0,0.0,0.0,0.0,0.0,0.0,0.0,0.0,0.0,0.0,0.0,0.0,0.0,-0.2179,-0.2549,-0.3173,0.0,0.0,0.0,0.0,0.0,0.0,-0.2934,-0.1817,0.0,0.0,0.0,0.0,0.0,0.0,0.0,0.0,0.0,0.0,0.0,0.0,0.0,0.0,0.0,0.0,0.0,0.0,0.0,0.0,0.0,0.0,0.0,0.0,0.0,0.0,0.0,0.0,0.0,0.0,0.0,0.0,0.0,0.0,0.0,0.0,0.0,0.0,0.0,0.0,0.0,0.0,0.0,0.0,0.0,0.0,0.0,0.0,0.0,0.0,0.0,0.0,0.0,0.0,0.0,0.0,0.0,0.0,0.0,0.0,0.0,0.0,0.0,0.0,0.0,0.0,0.0,0.0,0.0,0.0,0.0,0.0,0.0,0.0,0.0,0.0,0.0,0.0,0.0,0.0,0.0,0.0,0.0,0.0,0.0,0.0,0.0,0.0,0.0,0.0,0.0,0.0,0.0,0.0,0.0,0.0,0.0,0.0,0.0,0.0,0.0,0.0,0.0,0.0,0.0,-0.2729,-0.4164,-0.3009,0.0,0.0,0.0,0.0,-0.6228,-0.479,0.0,0.0,0.0,0.0,0.0,0.0,0.0,0.0,0.0,0.0,0.0,0.0,0.0,0.0,0.0,0.0,0.0,0.0,0.0,0.0,0.0,0.0,0.0,0.0,0.0,0.0,0.0,0.0,0.0,0.0,0.0,0.0,0.0,0.0,0.0,0.0,0.0,0.0,0.0,0.0,0.0,0.0,0.0,0.0,0.0,0.0,0.0,0.0,0.0,0.0,0.0,0.0,0.0,0.0,0.0,0.0,0.0,0.0,0.0,0.0,0.0,0.0,0.0,0.0,0.0,0.0,0.0,0.0,0.0,0.0,0.0,0.0,0.0,0.0,0.0,0.0,0.0,0.0,0.0,0.0,0.0,0.0,0.0,0.0,0.0,0.0,0.0,0.0,0.0,0.0,0.0,0.0,0.0,0.0,0.0,0.0,0.0,0.0,0.0,0.0,0.0,0.0,0.0,0.0,0.0,0.0,-0.2779,-0.4249,-0.3015,-0.2952,0.0,0.0,-0.2933,-0.6206,-0.7417,0.0,0.0,0.0,0.0,0.0,0.0,0.0,0.0,0.0,0.0,0.0,0.0,0.0,0.0,0.0,0.0,0.0,0.0,0.0,0.0,0.0,0.0,0.0,0.0,0.0,0.0,0.0,0.0,0.0,0.0,0.0,0.0,0.0,0.0,0.0,0.0,0.0,0.0,0.0,0.0,0.0,0.0,0.0,0.0,0.0,0.0,0.0,0.0,0.0,0.0,0.0,0.0,0.0,0.0,0.0,0.0,0.0,0.0,0.0,0.0,0.0,0.0,0.0,0.0,0.0,0.0,0.0,0.0,0.0,0.0,0.0,0.0,0.0,0.0,0.0,0.0,0.0,0.0,0.0,0.0,0.0,0.0,0.0,0.0,0.0,0.0,0.0,0.0,0.0,0.0,0.0,0.0,0.0,0.0,0.0,0.0,0.0,0.0,0.0,0.0,0.0,0.0,0.0,0.0,0.0,0.0,0.0,-0.565,-0.5052,0.0,0.0,0.0,-0.5536,-0.6575,0.0,0.0,0.0,0.0,0.0,0.0,0.0,0.0,0.0,0.0,0.0,0.0,0.0,0.0,0.0,0.0,0.0,0.0,0.0,0.0,0.0,0.0,0.0,0.0,0.0,0.0,0.0,0.0,0.0,0.0,0.0,0.0,0.0,0.0,0.0,0.0,0.0,0.0,0.0,0.0,0.0,0.0,0.0,0.0,0.0,0.0,0.0,0.0,0.0,0.0,0.0,0.0,0.0,0.0,0.0,0.0,0.0,0.0,0.0,0.0,0.0,0.0,0.0,0.0,0.0,0.0,0.0,0.0,0.0,0.0,0.0,0.0,0.0,0.0,0.0,0.0,0.0,0.0,0.0,0.0,0.0,0.0,0.0,0.0,0.0,0.0,0.0,0.0,0.0,0.0,0.0,0.0,-0.1644,0.0,0.0,0.0,0.0,0.0,0.0,0.0,0.0,0.0,0.0,0.0,0.0,0.0,0.0,-0.6766,-0.6779,-0.6613,-0.7117,0.0,0.0,-0.7667,-0.7759,-0.9896,-1.1658,0.0,0.0,0.0,0.0,0.0,0.0,0.0,0.0,0.0,0.0,0.0,0.0,0.0,0.0,0.0,0.0,0.0,0.0,0.0,0.0,0.0,0.0,0.0,0.0,0.0,0.0,0.0,0.0,0.0,0.0,0.0,0.0,0.0,0.0,0.0,0.0,0.0,0.0,0.0,0.0,0.0,0.0,0.0,0.0,0.0,0.0,0.0,0.0,0.0,0.0,0.0,0.0,0.0,0.0,0.0,0.0,0.0,0.0,0.0,0.0,0.0,0.0,0.0,0.0,0.0,0.0,0.0,0.0,0.0,0.0,0.0,0.0,0.0,0.0,0.0,0.0,0.0,0.0,0.0,0.0,0.0,0.0,0.0,0.0,0.0,0.0,0.0,0.0,0.0,0.0,0.0,0.0,0.0,0.0,0.0,0.0,0.0,0.0,0.0,0.0,0.0,0.0,0.0,0.0,0.0,-0.6739,-0.6688,-0.657,-0.7455,0.0,0.0,-0.8355,-1.0172,-1.1061,-1.1559,-1.1577,0.0,0.0,0.0,0.0,0.0,0.0,0.0,0.0,0.0,0.0,0.0,0.0,0.0,0.0,0.0,0.0,0.0,0.0,0.0,0.0,0.0,0.0,0.0,0.0,0.0,0.0,0.0,0.0,0.0,0.0,0.0,0.0,0.0,0.0,0.0,0.0,0.0,0.0,0.0,0.0,0.0,0.0,0.0,0.0,0.0,0.0,0.0,0.0,0.0,0.0,0.0,0.0,0.0,0.0,0.0,0.0,0.0,0.0,0.0,0.0,0.0,0.0,0.0,0.0,0.0,0.0,0.0,0.0,0.0,0.0,0.0,0.0,0.0,0.0,0.0,0.0,0.0,0.0,0.0,0.0,0.0,0.0,0.0,0.0,0.0,0.0,0.0,0.0,0.0,0.0,0.0,-0.1869,-0.1865,-0.1802,0.0,0.0,0.0,0.0,0.0,0.0,0.0,0.0,0.0,0.0,-0.6788,-0.6787,-0.8319,0.0,0.0,-1.0457,-1.0078,-1.0617,-1.1207,-1.1632,-1.1556,-1.0053,0.0,0.0,0.0,0.0,0.0,0.0,0.0,0.0,0.0,0.0,0.0,0.0,0.0,0.0,0.0,0.0,0.0,0.0,0.0,0.0,0.0,0.0,0.0,0.0,0.0,0.0,0.0,0.0,0.0,0.0,0.0,0.0,0.0,0.0,0.0,0.0,0.0,0.0,0.0,0.0,0.0,0.0,0.0,0.0,0.0,0.0,0.0,0.0,0.0,0.0,0.0,0.0,0.0,0.0,0.0,0.0,0.0,0.0,0.0,0.0,0.0,0.0,0.0,0.0,0.0,0.0,0.0,0.0,0.0,0.0,0.0,0.0,0.0,0.0,0.0,0.0,0.0,0.0,0.0,0.0,0.0,0.0,0.0,0.0,0.0,0.0,0.0,0.0,0.0,0.0,-0.1782,-0.1653,-0.1804,0.0,0.0,0.0,0.0,0.0,0.0,0.0,0.0,0.0,0.0,-0.6898,-0.6731,-0.924,-1.1029,-1.1029,-1.0955,-1.098,-1.0948,-1.1192,-1.1212,-1.0834,0.0,0.0,0.0,0.0,0.0,0.0,0.0,0.0,0.0,0.0,0.0,0.0,0.0,0.0,0.0,0.0,0.0,0.0,0.0,0.0,0.0,0.0,0.0,0.0,0.0,0.0,0.0,0.0,0.0,0.0,0.0,0.0,0.0,0.0,0.0,0.0,0.0,0.0,0.0,0.0,0.0,0.0,0.0,0.0,0.0,0.0,0.0,0.0,0.0,0.0,0.0,0.0,0.0,0.0,0.0,0.0,0.0,0.0,0.0,0.0,0.0,0.0,0.0,0.0,0.0,0.0,0.0,0.0,0.0,0.0,0.0,0.0,0.0,0.0,0.0,0.0,0.0,0.0,0.0,0.0,0.0,0.0,0.0,0.0,0.0,0.0,0.0,0.0,0.0,0.0,-0.1957,-0.1839,-0.18,0.0,0.0,0.0,0.0,0.0,0.0,0.0,0.0,0.0,0.0,-0.4936,-0.68,-0.6451,-0.8851,-1.0744,-1.0744,-1.05,-1.0621,-1.1423,-1.103,-1.0346,0.0,0.0,0.0,0.0,0.0,0.0,0.0,0.0,0.0,0.0,0.0,0.0,0.0,0.0,0.0,0.0,0.0,0.0,0.0,0.0,0.0,0.0,0.0,0.0,0.0,0.0,0.0,0.0,0.0,0.0,0.0,0.0,0.0,0.0,0.0,0.0,0.0,0.0,0.0,0.0,0.0,0.0,0.0,0.0,0.0,0.0,0.0,0.0,0.0,0.0,0.0,0.0,0.0,0.0,0.0,0.0,0.0,0.0,0.0,0.0,0.0,0.0,-0.4055,-0.6141,-0.6215,0.0,0.0,0.0,0.0,0.0,0.0,0.0,0.0,0.0,0.0,0.0,0.0,0.0,0.0,0.0,0.0,0.0,0.0,0.0,0.0,0.0,0.0,0.0,0.0,0.0,-0.1668,0.0,0.0,0.0,0.0,0.0,0.0,0.0,0.0,0.0,0.0,0.0,-0.1949,-0.2165,-0.4637,-0.6398,-0.6411,-0.8839,-1.0785,0.0,0.0,0.0,0.0,0.0,0.0,0.0,0.0,0.0,0.0,0.0,0.0,0.0,0.0,-0.9988,-0.9255,-0.8916,-0.8757,-0.8877,0.0,0.0,0.0,0.0,0.0,0.0,0.0,0.0,0.0,0.0,0.0,0.0,0.0,0.0,0.0,0.0,0.0,0.0,0.0,0.0,0.0,0.0,0.0,0.0,0.0,0.0,0.0,0.0,0.0,0.0,0.0,0.0,0.0,0.0,0.0,0.0,0.0,0.0,0.0,0.0,0.0,0.0,0.0,0.0,0.0,0.0,0.0,0.0,0.0,-0.5987,-0.9243,-0.9099,-0.7176,-0.5208,0.0,0.0,0.0,0.0,0.0,0.0,0.0,0.0,0.0,0.0,0.0,0.0,0.0,0.0,0.0,0.0,0.0,0.0,0.0,0.0,0.0,0.0,0.0,-0.1571,0.0,0.0,0.0,0.0,0.0,0.0,0.0,0.0,0.0,-0.1967,-0.1926,-0.2007,-0.2083,-0.4423,-0.6251,-0.6197,0.0,0.0,0.0,0.0,0.0,0.0,0.0,-1.008,-0.9814,-1.0471,-1.1076,-1.1492,-1.1077,-1.0555,-1.05,0.0,0.0,-0.9975,-0.9718,-0.9557,-0.9816,-0.9888,-0.9954,-1.0351,-1.0663,-1.097,0.0,0.0,0.0,0.0,0.0,0.0,0.0,0.0,0.0,0.0,0.0,0.0,0.0,0.0,0.0,0.0,0.0,0.0,0.0,0.0,0.0,0.0,0.0,0.0,0.0,0.0,0.0,0.0,0.0,0.0,0.0,0.0,0.0,0.0,0.0,0.0,0.0,0.0,0.0,0.0,0.0,0.0,0.0,0.0,-0.5984,-0.8965,-0.8599,-0.8834,-0.8893,-0.8854,-0.5194,0.0,0.0,0.0,0.0,0.0,0.0,0.0,0.0,0.0,0.0,0.0,0.0,0.0,0.0,0.0,0.0,0.0,0.0,0.0,0.0,-0.155,0.0,0.0,0.0,0.0,0.0,0.0,0.0,0.0,0.0,0.0,-0.227,-0.232,-0.232,-0.2193,0.0,0.0,0.0,0.0,-1.0337,-0.9937,-0.9856,-0.9822,-0.9827,-0.9888,-0.98,-0.9916,0.0,0.0,-1.1396,-1.1114,-1.0717,-1.0561,-1.09,-1.1084,-1.0799,-1.0774,-1.0823,-1.1359,-1.1512,-1.1612,-1.162,-1.1512,-1.1599,0.0,0.0,0.0,0.0,0.0,0.0,0.0,0.0,0.0,0.0,0.0,0.0,0.0,0.0,0.0,0.0,0.0,0.0,0.0,0.0,0.0,0.0,0.0,0.0,0.0,0.0,0.0,0.0,0.0,0.0,0.0,0.0,0.0,0.0,0.0,0.0,0.0,0.0,0.0,0.0,0.0,0.0,-0.216,-0.6425,-0.6272,-0.6974,-0.8955,-0.9014,-0.8951,-0.8747,-0.7702,0.0,0.0,0.0,0.0,0.0,0.0,0.0,0.0,0.0,0.0,0.0,0.0,0.0,0.0,0.0,0.0,0.0,0.0,0.0,-0.2017,-0.1981,-0.1748,0.0,0.0,0.0,0.0,0.0,0.0,0.0,0.0,0.0,-0.1928,-0.211,-0.2804,0.0,0.0,-0.6315,-0.7227,-0.9028,-1.0371,-1.0446,-1.0466,0.0,-1.0424,-1.0084,-1.0141,-1.0884,-1.1122,-1.1173,-1.1516,-1.1525,-1.1348,-1.1294,-1.1396,-1.1457,-1.1389,-1.1328,-1.1434,-1.1587,-1.1587,-1.1587,-1.1587,-1.1622,-1.1643,0.0,0.0,0.0,0.0,0.0,0.0,0.0,0.0,0.0,0.0,0.0,0.0,0.0,0.0,0.0,0.0,0.0,0.0,0.0,0.0,0.0,0.0,0.0,0.0,0.0,0.0,0.0,0.0,0.0,0.0,0.0,0.0,0.0,0.0,0.0,0.0,0.0,0.0,0.0,0.0,0.0,-0.2442,-0.5505,-0.9071,-0.7438,-0.7408,-0.9115,-0.9133,-0.9015,-0.8744,-0.8546,-0.7943,0.0,0.0,0.0,0.0,0.0,0.0,0.0,0.0,0.0,0.0,0.0,-0.1511,-0.1557,0.0,0.0,0.0,-0.1709,-0.1968,-0.2234,-0.2015,0.0,0.0,0.0,0.0,0.0,0.0,0.0,-0.1832,-0.1815,-0.1763,-0.1774,-0.2044,-0.2718,-0.4221,-0.6377,-0.7699,-0.7385,0.0,-1.0588,-1.0704,-1.0717,-1.0772,-1.0644,-1.0341,-1.0303,-1.1035,-1.1488,-1.1664,-1.1615,-1.1646,-1.1613,-1.1619,-1.1619,-1.1619,-1.1619,-1.1619,-1.1619,-1.1619,-1.1619,-1.1619,-1.1619,-1.1619,-1.1619,0.0,0.0,0.0,0.0,0.0,0.0,0.0,0.0,0.0,-0.0673,-0.0671,-0.0388,-0.0378,0.0,-0.0351,0.0,-0.0373,-0.0124,0.0,0.0,0.0,0.0,0.0,0.0,0.0,0.0,0.0,0.0,0.0,0.0,0.0,0.0,0.0,0.0,0.0,0.0,0.0,0.0,0.0,0.0,0.0,-0.6133,-0.9372,-0.9372,-0.9345,-0.928,-0.916,-0.9035,-0.891,-0.8774,-0.8247,-0.8172,-0.8471,0.0,0.0,0.0,0.0,0.0,0.0,0.0,0.0,0.0,0.0,0.0,0.0,0.0,0.0,0.0,-0.1962,0.0,-0.228,-0.1906,0.0,0.0,0.0,-0.1844,-0.1932,-0.1993,-0.2027,-0.2023,0.0,0.0,-0.1848,-0.2116,-0.2274,-0.2202,-0.7013,-0.942,-0.6982,-0.908,-1.0914,-1.0792,-1.0785,-1.0846,-1.0893,-1.0651,-1.0574,-1.0794,-1.1266,-1.1606,-1.1613,-1.1613,-1.1619,-1.1619,-1.1619,-1.1619,-1.1619,-1.1619,-1.1619,-1.1619,-1.1619,-1.1619,-1.1619,-1.1619,-1.1619,0.0,0.0,0.0,0.0,0.0,0.0,0.0,0.0,-0.4693,-0.661,-0.6472,-0.4256,-0.3301,-0.3288,-0.3243,-0.3247,-0.3159,-0.1053,0.0,0.0,0.0,0.0,0.0,0.0,0.0,0.0,0.0,0.0,0.0,0.0,0.0,0.0,0.0,0.0,0.0,0.0,0.0,0.0,0.0,0.0,0.0,-0.6133,-0.9372,-0.9362,-0.934,-0.9313,-0.9269,-0.9155,-0.9035,-0.891,-0.8682,-0.8615,-0.864,-0.8146,0.0,0.0,0.0,0.0,0.0,0.0,0.0,0.0,0.0,-0.4113,-0.2967,0.0,-0.2475,0.0,-0.1614,-0.1718,-0.1724,-0.1959,0.0,0.0,-0.1963,-0.1959,-0.2026,-0.2086,-0.2105,-0.2059,-0.212,-0.217,-0.2178,-0.2315,-0.2346,-0.243,-0.5543,-0.7813,-0.7907,-0.9715,-1.1104,-1.1084,-1.1246,-1.1416,-1.1598,-1.181,-1.1777,-1.1497,-1.1563,-1.1653,-1.1616,-1.1543,-1.1619,-1.1619,-1.1619,-1.1619,-1.1626,-1.1619,-1.1619,-1.1619,-1.1619,-1.1619,-1.1619,-1.1619,-1.1619,0.0,0.0,0.0,-0.113,-0.2862,-0.3346,-0.3525,-0.3658,-0.5668,-0.728,-0.8355,-0.692,-0.6148,-0.6183,-0.6183,-0.6183,-0.6049,-0.4568,-0.2418,0.0,0.0,0.0,0.0,0.0,0.0,0.0,0.0,0.0,0.0,0.0,0.0,0.0,0.0,0.0,0.0,0.0,0.0,0.0,0.0,-0.1372,-0.4075,-0.613,-0.7801,-0.8895,-0.9008,-0.8894,-0.8677,-0.8557,-0.8443,-0.8318,-0.8198,-0.8234,-0.8616,-0.8595,-0.7767,0.0,0.0,0.0,0.0,0.0,0.0,0.0,0.0,0.0,0.0,0.0,-0.2715,-0.1601,-0.1774,-0.187,-0.1967,-0.2094,-0.2226,-0.2231,-0.2086,-0.2104,-0.2176,-0.2213,-0.2221,-0.2188,-0.2228,-0.2259,-0.2259,-0.2259,-0.2277,-0.2326,-0.4964,-0.723,-0.7927,-0.9858,-1.1362,-1.1375,-1.1511,-1.1674,-1.1935,-1.2269,-1.2325,-1.2141,-1.2065,-1.1997,-1.177,-1.187,-1.1816,-1.1816,-1.1816,-1.1816,-1.1663,-1.161,-1.1569,-1.1556,-1.166,-1.1619,-1.1619,-1.1619,-1.1619,0.0,0.0,-0.0741,-0.316,-0.6684,-0.7556,-0.7827,-0.7658,-0.534,-0.5732,-0.8214,-0.8367,-0.8618,-0.8579,-0.8595,-0.86,-0.86,-0.8622,-0.5915,-0.1209,-0.0269,0.0,0.0,0.0,0.0,0.0,0.0,0.0,0.0,0.0,0.0,0.0,0.0,0.0,0.0,0.0,0.0,0.0,0.0,-0.2887,-0.8683,-0.6455,-0.6144,-0.8275,-0.8503,-0.8301,-0.7888,-0.7774,-0.7665,-0.7546,-0.7442,-0.764,-0.8378,-0.8445,-0.7614,0.0,-0.5363,0.0,0.0,0.0,0.0,0.0,0.0,0.0,0.0,-0.3379,-0.2548,-0.1591,-0.2078,-0.2261,-0.2322,-0.2316,-0.2232,-0.2341,-0.2217,-0.2248,-0.2322,-0.2333,-0.2333,-0.2333,-0.2333,-0.2333,-0.233,-0.2333,-0.2333,-0.2477,-0.5078,-0.7077,-0.7535,-0.9701,-1.1592,-1.1619,-1.164,-1.1742,-1.1945,-1.2352,-1.2442,-1.2546,-1.2477,-1.24,-1.2244,-1.2067,-1.2054,-1.2054,-1.204,-1.2047,-1.1749,-1.1643,-1.1717,-1.1557,-1.1623,-1.1536,-1.1633,-1.1619,-1.1619,0.0,0.0,-0.4577,-0.6917,-0.7627,-0.7819,-0.7691,-0.7311,-0.6589,-0.6916,-0.7828,-0.8138,-0.8291,-0.8318,-0.841,-0.8459,-0.8465,-0.8568,-0.8076,-0.6862,-0.215,0.0,0.0,0.0,0.0,0.0,0.0,0.0,0.0,0.0,0.0,0.0,0.0,0.0,0.0,0.0,0.0,0.0,0.0,-0.2274,-0.6694,-0.7201,-0.7496,-0.8035,-0.8013,0.0,-0.7505,-0.7728,-0.7785,-0.7676,-0.7644,0.0,0.0,0.0,0.0,0.0,0.0,0.0,0.0,0.0,0.0,0.0,-0.8178,-0.7573,-0.7329,-0.4377,-0.2253,-0.1971,-0.2139,-0.2325,-0.2266,-0.2273,-0.2282,-0.2304,-0.2307,-0.2315,-0.2331,-0.2333,-0.2333,-0.2333,-0.2333,-0.2333,-0.2333,-0.2333,-0.2331,-0.2474,-0.5084,-0.7255,-0.8126,-1.0161,-1.1476,-1.1626,-1.1701,-1.1796,-1.1717,-1.2074,-1.2526,-1.2436,-1.2588,-1.2553,-1.2395,-1.2299,-1.2067,-1.2074,-1.206,-1.2067,-1.2067,-1.2033,-1.1864,-1.1709,-1.1534,-1.1603,-1.1523,-1.1619,-1.1619,-0.4198,0.0,-0.5386,-0.6566,0.0,-0.7627,-0.7429,-0.7166,-0.7397,-0.7589,-0.7883,-0.8068,-0.8176,-0.8231,-0.8171,-0.8149,-0.8149,-0.822,-0.843,-0.8356,-0.4164,-0.1316,0.0,0.0,0.0,0.0,0.0,0.0,0.0,0.0,0.0,0.0,0.0,0.0,0.0,0.0,0.0,0.0,0.0,-0.174,-0.5394,-0.7066,-0.7954,-0.8119,-0.8225,0.0,0.0,0.0,0.0,0.0,0.0,0.0,0.0,-0.713,0.0,-0.7814,-0.779,-0.7769,-0.7814,-0.8765,-0.9336,-0.9276,-0.9288,-0.8909,-0.8028,-0.4461,-0.2306,-0.2232,-0.2241,-0.2267,-0.2324,-0.2333,-0.2333,-0.2333,-0.2333,-0.2333,-0.2333,-0.2333,-0.2333,-0.2333,-0.2333,-0.2333,-0.2333,-0.2333,-0.2331,-0.2618,-0.6395,-0.9457,-1.0029,-1.0894,-1.1619,-1.1619,-1.1674,-1.1603,-1.1677,-1.1791,-1.2135,-1.2395,-1.245,-1.2477,-1.2539,-1.2332,-1.2277,-1.2277,-1.2277,-1.2277,-1.2271,-1.2374,-1.2326,-1.2162,-1.2108,-1.2026,-1.2017,-1.199,-1.1837,-0.8146,-0.8381,-0.572,-0.5858,-0.768,-0.7578,-0.7535,-0.7366,0.0,0.0,0.0,-0.7992,-0.8079,-0.816,-0.8132,-0.806,-0.8172,-0.8136,-0.8366,-0.843,-0.6239,-0.363,-0.0805,-0.0269,0.0,0.0,0.0,0.0,0.0,0.0,0.0,0.0,0.0,0.0,0.0,0.0,-0.0532,-0.1433,-0.0523,-0.1744,-0.5197,-0.7209,-0.8178,-0.8333,-0.8459,-0.8274,-0.776,-0.7872,-0.7828,-0.7736,-0.7731,-0.7281,-0.649,-0.7113,-0.8066,-0.9136,-0.9286,-0.9349,-0.9367,-0.9267,-0.9302,-0.9424,-1.0173,-0.97,-0.7781,-0.5386,-0.3488,-0.2471,-0.2328,-0.2331,-0.2333,-0.2333,-0.2333,-0.2333,-0.2333,-0.2333,-0.2333,-0.2333,-0.2333,-0.2333,-0.2333,-0.2333,-0.2333,-0.2333,-0.233,-0.3052,-0.7566,-1.1529,-1.1653,-1.1482,-1.1619,-1.1619,-1.1633,-1.1667,-1.161,-1.1677,-1.1791,-1.2189,-1.2422,-1.2498,-1.2461,-1.2501,-1.2501,-1.2474,-1.2501,-1.2488,-1.2488,-1.256,-1.2491,-1.2484,-1.2539,-1.2449,-1.2449,-1.2299,-1.2121,-0.6404,-0.8511,-0.7938,-0.7949,-0.8303,-0.8149,-0.8117,-0.8057,-0.772,-0.7519,-0.7453,-0.7763,-0.8033,-0.843,-0.8609,-0.8816,-0.9082,-0.9398,-0.9133,-0.8524,-0.8519,-0.6805,-0.3622,-0.1208,0.0,0.0,0.0,0.0,0.0,0.0,0.0,0.0,0.0,0.0,0.0,0.0,-0.2418,-0.7111,-0.2485,-0.2475,-0.745,-0.8642,-0.8699,-0.7981,-0.7992,-0.8324,-0.9001,-0.8261,-0.7861,-0.785,-0.785,-0.7775,-0.7631,-0.7792,-0.8246,-0.9203,-0.9247,-0.928,-0.9336,-0.9347,-0.9518,-0.9867,-1.0462,-1.0275,-0.8775,-0.9701,-0.814,-0.3052,-0.2471,-0.2328,-0.2333,-0.2333,-0.2333,-0.2333,-0.2333,-0.2333,-0.2333,-0.2333,-0.2333,-0.2333,-0.2333,-0.2333,-0.2333,-0.2333,-0.2328,-0.319,-0.7702,-1.1529,-1.164,-1.1619,-1.1619,-1.1619,-1.1619,-1.1626,-1.1667,-1.161,-1.159,-1.1749,-1.2203,-1.2484,-1.2481,-1.2501,-1.2501,-1.2501,-1.2501,-1.2501,-1.2501,-1.2488,-1.2461,-1.2454,-1.2574,-1.2567,-1.256,-1.2413,-1.2505,-0.7188,-0.8309,-0.8281,-0.8309,-0.8242,-0.8236,-0.8236,-0.8214,-0.8002,-0.7877,-0.7845,-0.8245,-0.8449,-0.8568,-0.8801,-0.8913,-0.9038,-0.9268,-0.9123,-0.8805,-0.908,-0.8541,-0.7374,-0.5908,-0.4428,-0.3086,-0.2952,-0.2148,-0.0672,-0.0134,0.0,0.0,0.0,0.0,0.0,-0.3098,-0.5272,-0.6397,-0.5278,-0.5953,-0.8585,-0.9098,-0.9069,-0.8649,-0.8649,-0.8784,-0.9332,-0.8923,-0.8649,-0.8649,-0.8649,-0.8611,-0.8676,-0.8692,-0.8786,-0.9285,-0.9302,-0.9302,-0.9296,-0.9729,-1.0167,-1.0462,-1.075,-1.075,-1.0311,-1.1057,-1.0335,-0.7566,-0.4361,-0.2327,-0.2333,-0.2333,-0.2333,-0.2333,-0.2333,-0.2333,-0.2333,-0.2333,-0.2333,-0.2333,-0.2333,-0.2333,-0.2333,-0.2333,-0.2328,-0.2752,-0.7688,-1.1496,-1.1619,-1.1619,-1.1619,-1.1619,-1.1619,-1.1619,-1.1619,-1.1667,-1.1657,-1.156,-1.2115,-1.2416,-1.244,-1.2501,-1.2501,-1.2501,-1.2501,-1.2501,-1.2501,-1.2501,-1.2501,-1.2501,-1.2501,-1.2501,-1.2501,-1.2501,-1.2454,-0.8076,-0.8066,-0.8127,-0.8166,-0.8274,-0.828,-0.8291,-0.8312,-0.8312,-0.8312,-0.8436,-0.8642,-0.8742,-0.8979,-0.9062,-0.9113,-0.9211,-0.9297,-0.9387,-0.9292,-0.9444,-0.9626,-0.9921,-0.9965,-0.8745,-0.6706,-0.6577,-0.5369,-0.3354,-0.2012,-0.094,0.0,0.0,-0.0676,-0.2163,-0.6529,-0.7805,-0.5924,-0.7692,-0.8879,-0.9154,-0.9204,-0.9302,-0.9302,-0.9296,-0.9302,-0.9302,-0.9302,-0.9302,-0.9302,-0.9302,-0.9302,-0.9302,-0.9302,-0.9302,-0.9302,-0.9302,-0.9446,-0.9873,-1.0311,-1.075,-1.1044,-1.1044,-1.1332,-1.1619,-1.1633,-1.166,-1.0938,-0.5812,-0.2324,-0.233,-0.2333,-0.2333,-0.2333,-0.2333,-0.2333,-0.2333,-0.2333,-0.2333,-0.2333,-0.2333,-0.2333,-0.2333,-0.2333,-0.3056,-0.5078,-0.8698,-1.1325,-1.1619,-1.1619,-1.1619,-1.1619,-1.1619,-1.1619,-1.1619,-1.166,-1.1636,-1.1567,-1.2101,-1.2402,-1.2587,-1.2501,-1.2501,-1.2501,-1.2501,-1.2501,-1.2501,-1.2501,-1.2501,-1.2501,-1.2501,-1.2501,-1.2501,-1.2501,-1.2501,-0.8073,-0.8089,-0.8033,-0.8156,-0.8383,-0.8394,-0.8448,-0.8535,-0.8552,-0.8684,-0.8915,-0.8452,-0.8742,-0.9646,-0.9736,-0.9896,-1.0297,-1.0541,-1.034,-1.0109,-1.0392,-1.0287,-0.9794,-1.0352,-1.0219,-0.9546,-0.9831,-0.9704,-0.9024,-0.6853,-0.389,0.0,0.0,-0.288,-0.7722,-0.8921,-0.897,-0.8676,-0.9073,-0.9133,-0.9128,-0.9242,-0.9302,-0.9302,-0.9302,-0.9302,-0.9302,-0.9302,-0.9302,-0.9302,-0.9302,-0.9302,-0.9302,-0.9302,-0.9302,-0.9302,-0.9296,-0.9873,-1.1194,-1.1489,-1.1338,-1.1044,-1.1332,-1.1476,-1.1619,-1.1619,-1.1633,-1.0618,-0.5942,-0.29,-0.2326,-0.233,-0.2333,-0.2333,-0.2333,-0.2333,-0.2333,-0.2333,-0.2333,-0.2333,-0.2333,-0.2333,-0.2333,-0.2331,-0.4514,-0.9173,-1.0612,-1.1619,-1.1619,-1.1619,-1.1619,-1.1619,-1.1619,-1.1619,-1.1633,-1.1583,-1.1563,-1.1722,-1.2025,-1.2471,-1.2447,-1.2501,-1.2501,-1.2501,-1.2501,-1.2501,-1.2501,-1.2501,-1.2501,-1.2501,-1.2501,-1.2501,-1.2501,-1.2501,-1.2501,-0.7948,-0.7954,-0.7997,-0.8089,-0.8204,-0.828,-0.8378,-0.8486,-0.875,-0.9053,-0.9377,-0.9133,-0.9353,-1.0019,-1.0208,-1.0498,-1.0629,-1.069,-1.0591,-1.0452,-1.0591,-1.0585,-1.0326,-1.0598,-1.0598,-1.0465,-1.0611,-1.0212,-0.9285,-0.8127,-0.6246,-0.4213,-0.3166,-0.4162,-0.6537,-0.8258,-0.9154,-0.922,-0.9117,-0.9166,-0.9231,-0.928,-0.9302,-0.9302,-0.9302,-0.9302,-0.9302,-0.9302,-0.9302,-0.9302,-0.959,-0.959,-0.9302,-0.9291,-0.9291,-0.9291,-1.0173,-1.09,-1.1496,-1.1633,-1.1476,-1.1332,-1.1476,-1.1619,-1.1619,-1.1619,-1.1626,-1.1194,-0.9285,-0.6528,-0.3052,-0.2327,-0.233,-0.2333,-0.2333,-0.2333,-0.2333,-0.2333,-0.2333,-0.2333,-0.2333,-0.2333,-0.2331,-0.2327,-0.4939,-1.0052,-1.1647,-1.1619,-1.1619,-1.1619,-1.1619,-1.1619,-1.1619,-1.1619,-1.1633,-1.159,-1.1737,-1.204,-1.2347,-1.2491,-1.2461,-1.2501,-1.2501,-1.2501,-1.2501,-1.2501,-1.2501,-1.2501,-1.2501,-1.2501,-1.2501,-1.2501,-1.2501,-1.2501,-1.2501,-0.7872,-0.7872,-0.7872,-0.7943,-0.8062,-0.8149,-0.8253,-0.8497,-0.879,-0.9252,-0.9738,-0.9763,-0.9915,-1.0326,-1.0585,-1.0717,-1.0717,-1.0717,-1.0717,-1.0717,-1.0717,-1.0717,-1.0717,-1.0717,-1.0717,-1.0717,-1.0717,-1.0206,-0.9308,-0.8617,-0.827,-0.7868,-0.6561,-0.5898,-0.6605,-0.8614,-0.953,-0.9467,-0.9182,-0.9072,-0.9291,-0.9302,-0.9302,-0.9302,-0.9302,-0.9452,-0.9596,-0.959,-0.959,-0.959,-0.9879,-1.0023,-0.9735,-0.9419,-0.9546,-0.9976,-1.1012,-1.1606,-1.1606,-1.1613,-1.1619,-1.1619,-1.1619,-1.1619,-1.1619,-1.1619,-1.1619,-1.1619,-1.1633,-0.9302,-0.5812,-0.3342,-0.2327,-0.233,-0.2331,-0.2333,-0.2333,-0.2333,-0.2333,-0.2333,-0.2333,-0.2333,-0.233,-0.2467,-0.4635,-1.0191,-1.1647,-1.1619,-1.1619,-1.1619,-1.1619,-1.1619,-1.1619,-1.1619,-1.1633,-1.1643,-1.1925,-1.221,-1.2519,-1.2546,-1.2481,-1.2494,-1.2501,-1.2501,-1.2501,-1.2501,-1.2501,-1.2501,-1.2501,-1.2501,-1.2501,-1.2501,-1.2501,-1.2501,-1.2501,-0.7872,-0.7872,-0.7872,-0.7937,-0.8051,-0.8182,-0.838,-0.8887,-0.8874,-0.9329,-1.0006,-0.9858,-1.0054,-1.0591,-1.0717,-1.0717,-1.0717,-1.0717,-1.0717,-1.0717,-1.0711,-1.0717,-1.0717,-1.0717,-1.0717,-1.0738,-1.0724,-1.0658,-1.065,-0.956,-0.9781,-1.079,-0.9073,-0.8991,-1.0001,-1.0388,-1.0462,-0.9862,-0.9419,-0.9285,-0.9296,-0.9296,-0.9296,-0.9302,-0.9302,-0.974,-1.0323,-1.0173,-1.0167,-1.0455,-1.0599,-1.0599,-1.0599,-0.9965,-1.0203,-1.1605,-1.1796,-1.1681,-1.1681,-1.1586,-1.1619,-1.1619,-1.1619,-1.1619,-1.1619,-1.1619,-1.1619,-1.1619,-1.1619,-1.1188,-1.0185,-0.6101,-0.2907,-0.2327,-0.233,-0.2333,-0.2333,-0.2333,-0.2333,-0.2333,-0.2333,-0.2331,-0.2327,-0.232,-0.5505,-0.9885,-1.1633,-1.1619,-1.1619,-1.1619,-1.1619,-1.1619,-1.1626,-1.1619,-1.1647,-1.1537,-1.1851,-1.2285,-1.2457,-1.2481,-1.2494,-1.2501,-1.2501,-1.2501,-1.2501,-1.2501,-1.2501,-1.2501,-1.2501,-1.2501,-1.2501,-1.2501,-1.2501,-1.2501,-1.2501,-0.7872,-0.7872,-0.7872,-0.8022,-0.8307,-0.8312,-0.8995,-0.9995,-0.964,-1.0141,-1.1012,-1.0643,-1.0452,-1.0717,-1.0717,-1.0717,-1.0717,-1.0717,-1.0717,-1.0711,-1.0622,-1.0629,-1.0704,-1.0622,-1.069,-1.0833,-1.0772,-1.0799,-1.0812,-1.0541,-1.0664,-1.1201,-1.0476,-1.0394,-1.0843,-1.0731,-1.0462,-1.0167,-0.9574,-0.9574,-1.0023,-0.9574,-0.9574,-1.0023,-1.0023,-1.0167,-1.0462,-1.0455,-1.0455,-1.0455,-1.1592,-1.2166,-1.2166,-1.2686,-1.4257,-1.7056,-1.745,-1.5685,-1.2258,-1.1586,-1.1619,-1.1619,-1.1619,-1.1619,-1.1619,-1.1619,-1.1619,-1.1619,-1.1619,-1.1626,-1.1338,-0.9446,-0.6536,-0.3197,-0.2327,-0.233,-0.2331,-0.2333,-0.2333,-0.2333,-0.2333,-0.2331,-0.3052,-0.5667,-0.9018,-1.1063,-1.1633,-1.1619,-1.1619,-1.1619,-1.1619,-1.1633,-1.1549,-1.161,-1.1603,-1.1616,-1.1782,-1.2216,-1.2519,-1.2461,-1.2501,-1.2501,-1.2501,-1.2501,-1.2501,-1.2501,-1.2501,-1.2501,-1.2501,-1.2501,-1.2501,-1.2501,-1.2501,-1.2501,-1.2501,-0.836,-0.836,-0.836,-0.8604,-0.9092,-0.9329,-1.0236,-1.1571,-1.1291,-1.1703,-1.2347,-1.1366,-1.092,-1.1162,-1.0754,-1.0602,-1.0595,-1.067,-1.0717,-1.0711,-1.0616,-1.0616,-1.069,-1.0616,-1.067,-1.0846,-1.0826,-1.0867,-1.1016,-1.1165,-1.1314,-1.147,-1.1286,-1.1188,-1.1181,-1.1038,-1.075,-1.0599,-1.0161,-1.0305,-1.0455,-1.0161,-1.0161,-1.0455,-1.0743,-1.0894,-1.0894,-1.075,-1.075,-1.1031,-1.2595,-1.3579,-1.3839,-1.4806,-1.6987,-2.0157,-2.0568,-1.8028,-1.2663,-1.1552,-1.1592,-1.1613,-1.1619,-1.1619,-1.1619,-1.1619,-1.1619,-1.1619,-1.1619,-1.1619,-1.1619,-1.1489,-0.9885,-0.5663,-0.3488,-0.2618,-0.2914,-0.2624,-0.2333,-0.2333,-0.2333,-0.233,-0.305,-0.8005,-1.0787,-1.1647,-1.1626,-1.1619,-1.1619,-1.1619,-1.1647,-1.1687,-1.1616,-1.1724,-1.1804,-1.1951,-1.2005,-1.2429,-1.2539,-1.2467,-1.2501,-1.2501,-1.2501,-1.2501,-1.2501,-1.2501,-1.2501,-1.2501,-1.2501,-1.2501,-1.2501,-1.2501,-1.2501,-1.2501,-1.2522,-0.9335,-0.9335,-0.9335,-0.9687,-1.0407,-1.1133,-1.2217,-1.3138,-1.3455,-1.3751,-1.3941,-1.2001,-1.1682,-1.2024,-1.0948,-1.0236,-1.0371,-1.0582,-1.0697,-1.0697,-1.0683,-1.0697,-1.0717,-1.0683,-1.069,-1.0751,-1.0873,-1.1009,-1.1124,-1.1267,-1.1423,-1.1572,-1.1606,-1.1476,-1.1619,-1.1476,-1.1332,-1.1188,-1.1194,-1.1194,-1.075,-1.1044,-1.1188,-1.0743,-1.1181,-1.1476,-1.1489,-1.1194,-1.1188,-1.1756,-1.3174,-1.469,-1.5906,-1.6448,-1.7607,-2.0121,-2.0647,-1.77,-1.3013,-1.1917,-1.1695,-1.2029,-1.1756,-1.1619,-1.19,-1.1763,-1.1619,-1.1619,-1.1619,-1.1619,-1.1619,-1.1619,-1.1338,-1.0913,-0.6391,-0.4071,-0.4218,-0.335,-0.2333,-0.2331,-0.2331,-0.2327,-0.348,-0.7697,-1.1372,-1.1633,-1.1619,-1.1619,-1.1626,-1.164,-1.1694,-1.1782,-1.1737,-1.1851,-1.1998,-1.2291,-1.2443,-1.2477,-1.2574,-1.2501,-1.2501,-1.2501,-1.2501,-1.2501,-1.2501,-1.2501,-1.2501,-1.2501,-1.2501,-1.2501,-1.2501,-1.2501,-1.2508,-1.2522,-1.2576,-1.0301,-1.0422,-1.0778,-1.1253,-1.1736,-1.2457,-1.3536,-1.4769,-1.4192,-1.443,-1.4981,-1.4075,-1.3147,-1.2099,-1.0651,-1.0136,-1.0297,-1.0473,-1.0561,-1.0568,-1.0568,-1.0629,-1.0683,-1.0616,-1.0622,-1.0731,-1.0873,-1.0968,-1.1036,-1.1165,-1.1307,-1.145,-1.1565,-1.1613,-1.1613,-1.1619,-1.1476,-1.1476,-1.1482,-1.1476,-1.1325,-1.1476,-1.1476,-1.1332,-1.1476,-1.1619,-1.1626,-1.1476,-1.2043,-1.3031,-1.4583,-1.6545,-1.8648,-1.9206,-1.9785,-2.0539,-2.0635,-2.0251,-1.7861,-1.409,-1.2813,-1.3713,-1.2888,-1.233,-1.2896,-1.2187,-1.1619,-1.1619,-1.1619,-1.1619,-1.1619,-1.1619,-1.1626,-1.1647,-0.9891,-0.7557,-0.625,-0.5667,-0.4506,-0.2618,-0.2323,-0.2319,-0.3475,-0.7842,-1.1358,-1.1626,-1.1619,-1.1619,-1.1633,-1.1708,-1.1769,-1.183,-1.1831,-1.1985,-1.2105,-1.2359,-1.2393,-1.2546,-1.2454,-1.2501,-1.2501,-1.2501,-1.2501,-1.2501,-1.2501,-1.2501,-1.2501,-1.2501,-1.2501,-1.2508,-1.2515,-1.2515,-1.2515,-1.2576,-1.2671,-1.1768,-1.1744,-1.2097,-1.2689,-1.3297,-1.4133,-1.5095,-1.6087,-1.5696,-1.5793,-1.6475,-1.6328,-1.5246,-1.3545,-1.1977,-1.1121,-1.0951,-1.1104,-1.0948,-1.063,-1.0561,-1.0636,-1.0704,-1.0629,-1.0616,-1.0717,-1.0819,-1.0894,-1.0955,-1.1043,-1.1158,-1.1307,-1.1457,-1.1531,-1.1545,-1.1592,-1.1619,-1.1619,-1.1619,-1.1619,-1.1619,-1.1619,-1.1619,-1.1619,-1.1619,-1.1619,-1.1619,-1.2187,-1.2888,-1.4022,-1.5849,-1.8121,-2.0388,-2.0665,-2.0665,-2.0678,-2.0726,-2.0647,-2.0251,-1.7168,-1.4982,-1.5566,-1.388,-1.2896,-1.346,-1.2466,-1.1619,-1.1619,-1.1619,-1.1619,-1.1619,-1.1619,-1.1626,-1.164,-1.1502,-1.0185,-0.7697,-0.6966,-0.6242,-0.4353,-0.3188,-0.3475,-0.6231,-0.8415,-1.1496,-1.1626,-1.1619,-1.1653,-1.1694,-1.1775,-1.185,-1.1959,-1.2128,-1.2105,-1.2199,-1.2427,-1.2488,-1.2488,-1.2488,-1.2501,-1.2501,-1.2501,-1.2501,-1.2501,-1.2501,-1.2501,-1.2501,-1.2501,-1.2501,-1.2515,-1.2528,-1.2596,-1.2644,-1.2745,-1.2986,-1.3601,-1.3306,-1.3297,-1.4133,-1.5203,-1.6053,-1.6773,-1.7397,-1.7601,-1.7577,-1.7769,-1.7815,-1.7207,-1.5793,-1.4397,-1.3337,-1.2168,-1.2004,-1.1404,-1.0767,-1.0622,-1.0711,-1.0711,-1.0697,-1.0704,-1.0717,-1.0731,-1.0799,-1.0907,-1.0955,-1.1016,-1.1158,-1.1301,-1.1389,-1.143,-1.1538,-1.1599,-1.1613,-1.1619,-1.1619,-1.1619,-1.1619,-1.1619,-1.1619,-1.1619,-1.1619,-1.1756,-1.3174,-1.4022,-1.4591,-1.7127,-1.9251,-2.0388,-2.0665,-2.0665,-2.0665,-2.0665,-2.0726,-2.0659,-2.0099,-1.906,-1.6987,-1.5141,-1.4022,-1.4022,-1.2738,-1.1606,-1.1613,-1.1619,-1.1619,-1.1619,-1.1619,-1.1619,-1.1619,-1.164,-1.0323,-0.7842,-0.7548,-0.7548,-0.6966,-0.5069,-0.4777,-1.0029,-1.1208,-1.1489,-1.1626,-1.1619,-1.1674,-1.1782,-1.1864,-1.1993,-1.2128,-1.2271,-1.2352,-1.2433,-1.2447,-1.2501,-1.2501,-1.2501,-1.2501,-1.2501,-1.2501,-1.2501,-1.2501,-1.2501,-1.2501,-1.2501,-1.2501,-1.2501,-1.2508,-1.2576,-1.2684,-1.2779,-1.302,-1.3102,-1.4282,-1.4381,-1.5213,-1.5817,-1.6172,-1.6891,-1.7361,-1.7491,-1.7551,-1.7612,-1.7612,-1.766,-1.6958,-1.5926,-1.6639,-1.5237,-1.2969,-1.2455,-1.1721,-1.0637,-1.0649,-1.0717,-1.0717,-1.0717,-1.0717,-1.0717,-1.0717,-1.0744,-1.0785,-1.0887,-1.0962,-1.1009,-1.1151,-1.128,-1.1382,-1.143,-1.1511,-1.1599,-1.1619,-1.1619,-1.1619,-1.1619,-1.1619,-1.1619,-1.1619,-1.1619,-1.19,-1.4164,-1.6141,-1.7278,-1.8971,-2.0237,-2.0665,-2.0665,-2.0665,-2.0665,-2.0665,-2.0678,-2.0726,-2.0659,-2.0215,-1.9401,-1.6977,-1.5566,-1.5425,-1.312,-1.1858,-1.1599,-1.1619,-1.1619,-1.1619,-1.1619,-1.1619,-1.1619,-1.1626,-1.1188,-1.0455,-1.0449,-1.0311,-1.0179,-0.9285,-1.0017,-1.0762,-1.164,-1.1626,-1.1619,-1.164,-1.1687,-1.183,-1.1965,-1.2094,-1.223,-1.2359,-1.2433,-1.2488,-1.2494,-1.2501,-1.2501,-1.2501,-1.2501,-1.2501,-1.2501,-1.2501,-1.2501,-1.2501,-1.2501,-1.2501,-1.2501,-1.2501,-1.2515,-1.2481,-1.2601,-1.2992,-1.3235,-1.3164,-1.5364,-1.5461,-1.6183,-1.6655,-1.6891,-1.7373,-1.7479,-1.7479,-1.7479,-1.7479,-1.7479,-1.7479,-1.7185,-1.6828,-1.7769,-1.6719,-1.4126,-1.3589,-1.2701,-1.1504,-1.0941,-1.0717,-1.0717,-1.0717,-1.0717,-1.0717,-1.0717,-1.0717,-1.0738,-1.0812,-1.0846,-1.088,-1.1002,-1.1118,-1.1192,-1.1341,-1.143,-1.1518,-1.1579,-1.1619,-1.1619,-1.1619,-1.1619,-1.1619,-1.1619,-1.2043,-1.3452,-1.5283,-1.6836,-1.8261,-1.982,-2.0665,-2.0665,-2.0665,-2.0665,-2.0665,-2.0665,-2.0665,-2.0678,-2.0738,-2.0738,-2.0261,-1.8401,-1.6977,-1.5689,-1.3389,-1.1545,-1.1606,-1.1619,-1.1619,-1.1619,-1.1619,-1.1619,-1.1619,-1.1619,-1.1619,-1.1619,-1.1469,-1.1626,-1.1633,-1.1626,-1.1626,-1.164,-1.1626,-1.1619,-1.1633,-1.1839,-1.1789,-1.1918,-1.206,-1.2196,-1.2338,-1.2413,-1.2467,-1.2494,-1.2501,-1.2501,-1.2501,-1.2501,-1.2501,-1.2501,-1.2501,-1.2501,-1.2501,-1.2501,-1.2501,-1.2501,-1.2515,-1.2556,-1.2447,-1.2561,-1.2688,-1.3109,-1.336,-1.3281,-1.6335,-1.6537,-1.6537,-1.7009,-1.7361,-1.7479,-1.7479,-1.7479,-1.7479,-1.7479,-1.7491,-1.7503,-1.766,-1.7997,-1.8276,-1.7626,-1.6339,-1.4875,-1.357,-1.2235,-1.124,-1.0717,-1.0717,-1.0717,-1.0717,-1.0717,-1.0717,-1.0717,-1.0724,-1.0731,-1.0724,-1.0765,-1.0873,-1.0934,-1.1036,-1.1226,-1.1362,-1.143,-1.1552,-1.1613,-1.1619,-1.1619,-1.1619,-1.1619,-1.1619,-1.3031,-1.5008,-1.6131,-1.6836,-1.8692,-1.9959,-2.0665,-2.0665,-2.0665,-2.0665,-2.0665,-2.0665,-2.0665,-2.0665,-2.0678,-2.0678,-2.0388,-1.939,-1.784,-1.6122,-1.3815,-1.2408,-1.1613,-1.1619,-1.1619,-1.1619,-1.1619,-1.1619,-1.1619,-1.1619,-1.1619,-1.1619,-1.1619,-1.1619,-1.1619,-1.1619,-1.1619,-1.1619,-1.1619,-1.1626,-1.1846,-1.1914,-1.2024,-1.2013,-1.2162,-1.2298,-1.244,-1.2481,-1.2488,-1.2501,-1.2501,-1.2501,-1.2501,-1.2501,-1.2501,-1.2501,-1.2501,-1.2501,-1.2501,-1.2501,-1.2501,-1.2508,-1.2535,-1.244,-1.2548,-1.2668,-1.2983,-1.3288,-1.3377,-1.3295,-1.6431,-1.6537,-1.7126,-1.7361,-1.7479,-1.7479,-1.7479,-1.7479,-1.7479,-1.7479,-1.7527,-1.7434,-1.7685,-1.8046,-1.8545,-1.8089,-1.6667,-1.5396,-1.3569,-1.1233,-1.0982,-1.0717,-1.0717,-1.0717,-1.0717,-1.0717,-1.0717,-1.0717,-1.0717,-1.0717,-1.0717,-1.0731,-1.0765,-1.0833,-1.0955,-1.1124,-1.128,-1.1396,-1.1538,-1.1613,-1.1619,-1.1619,-1.1619,-1.1619,-1.1619,-1.3174,-1.5425,-1.6131,-1.7409,-1.9529,-2.0527,-2.0665,-2.0665,-2.0665,-2.0665,-2.0665,-2.0665,-2.0665,-2.0665,-2.0665,-2.0665,-2.0665,-2.0237,-1.91,-1.6413,-1.5548,-1.3855,-1.2323,-1.1619,-1.1619,-1.1619,-1.1619,-1.1619,-1.1619,-1.1619,-1.1619,-1.1619,-1.1619,-1.1619,-1.1619,-1.1619,-1.1619,-1.1619,-1.1633,-1.1674,-1.1907,-1.2017,-1.212,-1.2258,-1.2257,-1.2372,-1.2494,-1.2501,-1.2501,-1.2501,-1.2501,-1.2501,-1.2501,-1.2501,-1.2501,-1.2501,-1.2501,-1.2501,-1.2501,-1.2501,-1.2508,-1.2535,-1.2454,-1.2527,-1.2648,-1.2775,-1.3078,-1.3377,-1.3336,-1.3397,-1.7009,-1.7009,-1.7361,-1.7479,-1.7479,-1.7479,-1.7479,-1.7479,-1.7479,-1.7479,-1.7527,-1.7494,-1.7937,-1.8495,-1.8902,-1.8494,-1.7457,-1.5624,-1.3341,-1.1247,-1.0717,-1.0717,-1.0717,-1.0717,-1.0717,-1.0717,-1.0717,-1.0717,-1.0717,-1.0717,-1.0717,-1.0717,-1.0717,-1.0765,-1.0867,-1.105,-1.1192,-1.1307,-1.1504,-1.1619,-1.1619,-1.1619,-1.1619,-1.1619,-1.1763,-1.3031,-1.5707,-1.6131,-1.783,-1.982,-2.0665,-2.0665,-2.0665,-2.0665,-2.0665,-2.0665,-2.0665,-2.0665,-2.0665,-2.0665,-2.0665,-2.0665,-2.0665,-1.896,-1.6977,-1.6131,-1.4583,-1.2466,-1.1619,-1.1619,-1.1619,-1.1619,-1.1619,-1.1619,-1.1619,-1.1619,-1.1619,-1.1619,-1.1619,-1.1619,-1.1619,-1.1619,-1.1619,-1.1529,-1.1735,-1.1983,-1.2203,-1.2306,-1.2196,-1.2332,-1.2406,-1.2488,-1.2494,-1.2501,-1.2501,-1.2501,-1.2501,-1.2501,-1.2501,-1.2501,-1.2501,-1.2501,-1.2501,-1.2515,-1.2535,-1.2576,-1.2454,-1.2534,-1.2655,-1.2969,-1.326,-1.3349,-1.3439,-1.3363,-1.3397,-1.7479,-1.7479,-1.7479,-1.7479,-1.7479,-1.7479,-1.7479,-1.7479,-1.7479,-1.7515,-1.7469,-1.7553,-1.8118,-1.8914,-1.905,-1.903,-1.7965,-1.6012,-1.3404,-1.1505,-1.085,-1.0717,-1.0717,-1.0717,-1.0717,-1.0717,-1.0717,-1.0717,-1.0717,-1.0717,-1.0717,-1.0717,-1.0717,-1.0731,-1.0792,-1.0975,-1.1138,-1.1212,-1.143,-1.1592,-1.1613,-1.1619,-1.1619,-1.1619,-1.1619,-1.3031,-1.5425,-1.6272,-1.7549,-2.0388,-2.0665,-2.0665,-2.0665,-2.0665,-2.0665,-2.0665,-2.0665,-2.0665,-2.0665,-2.0665,-2.0665,-2.0665,-2.0665,-1.9251,-1.6977,-1.5698,-1.429,-1.2745,-1.1619,-1.1619,-1.1619,-1.1619,-1.1619,-1.1619,-1.1619,-1.1626,-1.1647,-1.1647,-1.166,-1.1626,-1.166,-1.1549,-1.1583,-1.163,-1.1837,-1.2079,-1.2306,-1.2471,-1.2352,-1.2393,-1.2461,-1.2488,-1.2494,-1.2501,-1.2501,-1.2508,-1.2508,-1.2535,-1.2528,-1.2562,-1.2576,-1.2637,-1.2657,-1.2576,-1.2583,-1.2481,-1.2568,-1.2675,-1.2809,-1.3301,-1.3391,-1.3453,-1.3342,-1.339,-1.3397,-1.7479,-1.7479,-1.7479,-1.7479,-1.7479,-1.7479,-1.7479,-1.7479,-1.7479,-1.7481,-1.7553,-1.7827,-1.8348,-1.89,-1.9157,-1.8512,-1.7334,-1.5435,-1.3864,-1.2274,-1.1372,-1.0717,-1.0717,-1.0717,-1.0717,-1.0717,-1.0717,-1.0717,-1.0717,-1.0717,-1.0717,-1.0717,-1.0717,-1.0717,-1.0765,-1.09,-1.1063,-1.1172,-1.1355,-1.1497,-1.1592,-1.1619,-1.1633,-1.1633,-1.1647,-1.3205,-1.5319,-1.615,-1.7549,-2.0249,-2.0665,-2.069,-2.0726,-2.0726,-2.0702,-2.0665,-2.0665,-2.0665,-2.0665,-2.0665,-2.0665,-2.0665,-2.0665,-1.9239,-1.6826,-1.5247,-1.3981,-1.2459,-1.1619,-1.1619,-1.1619,-1.164,-1.1633,-1.1626,-1.166,-1.1687,-1.1769,-1.1789,-1.1755,-1.1708,-1.1596,-1.165,-1.1703,-1.177,-1.2013,-1.2244,-1.2388,-1.2532,-1.2433,-1.2454,-1.2481,-1.2501,-1.2501,-1.2501,-1.2501,-1.2515,-1.2528,-1.2576,-1.261,-1.2862,-1.2903,-1.284,-1.284,-1.2773,-1.2732,-1.2608,-1.2708,-1.2816,-1.2916,-1.337,-1.3288,-1.3363,-1.3383,-1.3397,-1.3397,-1.7479,-1.7479,-1.7479,-1.7479,-1.7479,-1.7479,-1.7479,-1.7479,-1.7491,-1.7624,-1.7769,-1.8167,-1.858,-1.8973,-1.9103,-1.8291,-1.6937,-1.5455,-1.4038,-1.2808,-1.1372,-1.0717,-1.0717,-1.0717,-1.0717,-1.0717,-1.0717,-1.0717,-1.0717,-1.0717,-1.0717,-1.0717,-1.0717,-1.0717,-1.0751,-1.0873,-1.1016,-1.1165,-1.1314,-1.1463,-1.1606,-1.1619,-1.1647,-1.1859,-1.2032,-1.3062,-1.472,-1.6164,-1.7468,-1.9502,-2.0651,-2.0781,-2.0757,-2.0733,-2.065,-2.0738,-2.069,-2.0678,-2.0678,-2.0665,-2.0665,-2.0665,-2.0678,-1.9239,-1.6826,-1.5106,-1.3705,-1.2173,-1.1626,-1.1653,-1.1576,-1.1728,-1.1769,-1.183,-1.1837,-1.187,-1.1925,-1.1945,-1.1904,-1.185,-1.1764,-1.1817,-1.2127,-1.2216,-1.2189,-1.2277,-1.2505,-1.2574,-1.2494,-1.2501,-1.2501,-1.2508,-1.2515,-1.2535,-1.2556,-1.2447,-1.2617,-1.2657,-1.2725,-1.2979,-1.304,-1.3123,-1.3003,-1.299,-1.2969,-1.2775,-1.2836,-1.2943,-1.3186,-1.3261,-1.3329,-1.3383,-1.339,-1.3397,-1.3397,-1.7479,-1.7479,-1.7479,-1.7479,-1.7479,-1.7479,-1.7479,-1.7491,-1.7551,-1.772,-1.7974,-1.8386,-1.8641,-1.8949,-1.8831,-1.8291,-1.7205,-1.5774,-1.4196,-1.3202,-1.1505,-1.0717,-1.0717,-1.0717,-1.0717,-1.0717,-1.0717,-1.0717,-1.0717,-1.0717,-1.0717,-1.0717,-1.0717,-1.0717,-1.0751,-1.0873,-1.1016,-1.1165,-1.1314,-1.1463,-1.1586,-1.1653,-1.1708,-1.2129,-1.2164,-1.2816,-1.4351,-1.5967,-1.7438,-1.9058,-2.0405,-2.1294,-2.0994,-2.0838,-2.0947,-2.0919,-2.0834,-2.0671,-2.0695,-2.0871,-2.0919,-2.0919,-2.0859,-1.9127,-1.67,-1.4719,-1.3259,-1.1976,-1.1576,-1.1616,-1.171,-1.1877,-1.2086,-1.2148,-1.2189,-1.2067,-1.2094,-1.2115,-1.2142,-1.1971,-1.1828,-1.1978,-1.2285,-1.2374,-1.2338,-1.2359,-1.258,-1.244,-1.2501,-1.2501,-1.2501,-1.2522,-1.2535,-1.2569,-1.2467,-1.2568,-1.2752,-1.2951,-1.3047,-1.315,-1.3185,-1.3226,-1.3274,-1.3166,-1.3146,-1.3132,-1.3016,-1.305,-1.3281,-1.3336,-1.3376,-1.3397,-1.3397,-1.3397,-1.3397,-1.7479,-1.7479,-1.7479,-1.7479,-1.7479,-1.7479,-1.7479,-1.7515,-1.7708,-1.7853,-1.8081,-1.8493,-1.8638,-1.8686,-1.8517,-1.8572,-1.7862,-1.5931,-1.4651,-1.3979,-1.1901,-1.0717,-1.0717,-1.0717,-1.0717,-1.0717,-1.0717,-1.0717,-1.0717,-1.0717,-1.0717,-1.0717,-1.0717,-1.0717,-1.0738,-1.0846,-1.1016,-1.1158,-1.1314,-1.1477,-1.1619,-1.159,-1.1803,-1.2038,-1.2416,-1.2955,-1.4167,-1.5807,-1.7419,-1.8874,-2.063,-2.1342,-2.1474,-2.133,-2.1631,-2.1713,-2.1378,-2.0744,-2.0864,-2.1138,-2.1293,-2.1269,-2.1305,-1.9604,-1.7049,-1.3976,-1.2227,-1.1844,-1.1682,-1.1689,-1.1864,-1.2189,-1.2359,-1.238,-1.2258,-1.2162,-1.2203,-1.2135,-1.2182,-1.2264,-1.2079,-1.225,-1.2422,-1.2532,-1.2474,-1.2481,-1.2488,-1.2494,-1.2515,-1.2528,-1.2549,-1.2569,-1.2651,-1.2691,-1.2745,-1.2675,-1.2895,-1.3095,-1.3205,-1.3315,-1.3336,-1.337,-1.3281,-1.3322,-1.3302,-1.3281,-1.3302,-1.3329,-1.337,-1.3383,-1.3397,-1.3397,-1.3397,-1.3397,-1.3397,-1.7479,-1.7479,-1.7479,-1.7479,-1.7479,-1.7479,-1.7479,-1.7539,-1.7756,-1.8022,-1.8177,-1.8565,-1.8758,-1.8831,-1.877,-1.8867,-1.8361,-1.609,-1.4808,-1.4362,-1.2289,-1.0717,-1.0717,-1.0717,-1.0717,-1.0717,-1.0717,-1.0717,-1.0717,-1.0717,-1.0717,-1.0717,-1.0717,-1.0717,-1.0724,-1.0785,-1.0955,-1.1158,-1.1389,-1.1586,-1.1563,-1.1657,-1.1764,-1.223,-1.2463,-1.2828,-1.3627,-1.5905,-1.7264,-1.8607,-2.041,-2.1921,-2.1921,-2.1933,-2.208,-2.2239,-2.1921,-2.1618,-2.1679,-2.1824,-2.1824,-2.1655,-2.1354,-1.9971,-1.7048,-1.3979,-1.1918,-1.1904,-1.2054,-1.2101,-1.2018,-1.2347,-1.2402,-1.2416,-1.2361,-1.221,-1.2237,-1.2162,-1.2155,-1.225,-1.2484,-1.2471,-1.2498,-1.2447,-1.2501,-1.2494,-1.2494,-1.2508,-1.2556,-1.2603,-1.2623,-1.2651,-1.2752,-1.2854,-1.2908,-1.2983,-1.3051,-1.3267,-1.3363,-1.3288,-1.3308,-1.3356,-1.339,-1.3397,-1.3363,-1.337,-1.3397,-1.3397,-1.339,-1.3397,-1.3397,-1.3397,-1.3397,-1.3397,-1.3397,-1.7479,-1.7479,-1.7479,-1.7479,-1.7479,-1.7479,-1.7479,-1.7515,-1.7853,-1.8106,-1.8312,-1.8565,-1.8831,-1.9,-1.8988,-1.8951,-1.8932,-1.6473,-1.5424,-1.4119,-1.2684,-1.124,-1.085,-1.0717,-1.0717,-1.0717,-1.0717,-1.0717,-1.0717,-1.0717,-1.0717,-1.0717,-1.0717,-1.0717,-1.0731,-1.0799,-1.0948,-1.124,-1.1477,-1.1523,-1.1657,-1.177,-1.2074,-1.2374,-1.2491,-1.2553,-1.2937,-1.5081,-1.6599,-1.7957,-1.9919,-2.1566,-2.2037,-2.2186,-2.2186,-2.2347,-2.2174,-2.2214,-2.2166,-2.2226,-2.231,-2.2007,-2.0804,-1.8906,-1.6508,-1.3656,-1.2176,-1.2203,-1.2361,-1.2416,-1.2471,-1.2498,-1.2532,-1.2539,-1.2352,-1.2318,-1.2264,-1.2142,-1.2088,-1.2162,-1.2388,-1.2457,-1.2512,-1.2488,-1.2528,-1.2508,-1.2508,-1.2522,-1.2603,-1.2698,-1.2752,-1.2793,-1.2901,-1.3003,-1.3044,-1.3112,-1.3343,-1.3404,-1.3336,-1.3383,-1.3376,-1.3383,-1.3397,-1.3397,-1.3397,-1.3397,-1.3397,-1.3397,-1.3397,-1.3397,-1.3397,-1.3397,-1.3397,-1.341,-1.3444,-1.7479,-1.7479,-1.7479,-1.7479,-1.7479,-1.7479,-1.7479,-1.7563,-1.8034,-1.8275,-1.8396,-1.8577,-1.8867,-1.8976,-1.8915,-1.8903,-1.9072,-1.7507,-1.6073,-1.4642,-1.3333,-1.1769,-1.1115,-1.0717,-1.0717,-1.0717,-1.0717,-1.0717,-1.0717,-1.0717,-1.0717,-1.0717,-1.0717,-1.0717,-1.0772,-1.0867,-1.1043,-1.1307,-1.1538,-1.1563,-1.1744,-1.206,-1.2402,-1.2464,-1.2567,-1.2494,-1.2656,-1.433,-1.5854,-1.7074,-1.9208,-2.1048,-2.1984,-2.2271,-2.2271,-2.2271,-2.2271,-2.2347,-2.2262,-2.1769,-2.2013,-2.1279,-1.9575,-1.7246,-1.5413,-1.3655,-1.2608,-1.242,-1.2539,-1.242,-1.2461,-1.2488,-1.2474,-1.24,-1.2325,-1.223,-1.2155,-1.2054,-1.202,-1.2081,-1.2149,-1.2223,-1.2379,-1.2353,-1.2596,-1.2583,-1.2637,-1.2657,-1.2745,-1.2834,-1.2908,-1.2969,-1.3078,-1.3146,-1.3003,-1.3227,-1.3295,-1.3315,-1.337,-1.339,-1.3397,-1.3397,-1.3397,-1.3397,-1.3397,-1.3397,-1.3397,-1.3397,-1.3397,-1.3397,-1.3403,-1.3417,-1.3464,-1.3672,-1.3553,-1.7479,-1.7479,-1.7479,-1.7479,-1.7479,-1.7479,-1.7575,-1.7768,-1.8131,-1.8493,-1.877,-1.8891,-1.8976,-1.9024,-1.9,-1.8963,-1.8804,-1.6602,-1.5554,-1.425,-1.2816,-1.1372,-1.0717,-1.0717,-1.0717,-1.0717,-1.0717,-1.0717,-1.0717,-1.0717,-1.0717,-1.0717,-1.0717,-1.0717,-1.0785,-1.0934,-1.1131,-1.1301,-1.1572,-1.167,-1.1986,-1.2313,-1.2491,-1.2587,-1.2454,-1.2501,-1.2811,-1.403,-1.5089,-1.6312,-1.8441,-2.0307,-2.2019,-2.2295,-2.2271,-2.2271,-2.2271,-2.2271,-2.1637,-2.068,-1.9285,-1.8895,-1.7217,-1.5548,-1.4637,-1.3414,-1.2656,-1.2494,-1.2501,-1.2501,-1.2501,-1.2494,-1.2467,-1.2366,-1.2257,-1.2149,-1.204,-1.1945,-1.1925,-1.1972,-1.1918,-1.1854,-1.204,-1.2225,-1.261,-1.2828,-1.2739,-1.2807,-1.2888,-1.2983,-1.3057,-1.3112,-1.3207,-1.3261,-1.3288,-1.3342,-1.3397,-1.3397,-1.3397,-1.3397,-1.3397,-1.3397,-1.3397,-1.3397,-1.3403,-1.341,-1.341,-1.3403,-1.341,-1.3431,-1.3444,-1.3451,-1.3679,-1.3775,-1.3844,-1.675,-1.6891,-1.6973,-1.7197,-1.7491,-1.7563,-1.7696,-1.7913,-1.8263,-1.865,-1.9072,-1.9072,-1.9072,-1.9072,-1.8547,-1.8407,-1.7765,-1.6203,-1.4912,-1.3735,-1.2421,-1.1247,-1.085,-1.0717,-1.0717,-1.0717,-1.0717,-1.0717,-1.0717,-1.0717,-1.0717,-1.0717,-1.0717,-1.0717,-1.0778,-1.0955,-1.1138,-1.1314,-1.1449,-1.175,-1.2054,-1.2416,-1.2539,-1.2488,-1.2501,-1.2501,-1.2656,-1.3568,-1.433,-1.5395,-1.7084,-1.9573,-2.1291,-2.2367,-2.2307,-2.2283,-2.2271,-2.2271,-2.1337,-1.8461,-1.6482,-1.6438,-1.6007,-1.479,-1.403,-1.3112,-1.2656,-1.2501,-1.2501,-1.2494,-1.2494,-1.2494,-1.2433,-1.2186,-1.2182,-1.2067,-1.1938,-1.1843,-1.1837,-1.1857,-1.1702,-1.1894,-1.2219,-1.2589,-1.2759,-1.2999,-1.3082,-1.2976,-1.303,-1.3119,-1.322,-1.3268,-1.3315,-1.3356,-1.3397,-1.3397,-1.3397,-1.3397,-1.3397,-1.3397,-1.3397,-1.3403,-1.3403,-1.3397,-1.3403,-1.3424,-1.3458,-1.3331,-1.3325,-1.3478,-1.3526,-1.3607,-1.3878,-1.3981,-1.4002,-1.5192,-1.5601,-1.5937,-1.6623,-1.7457,-1.7768,-1.7889,-1.8022,-1.8456,-1.8831,-1.906,-1.9072,-1.8944,-1.8676,-1.7765,-1.7238,-1.6721,-1.5424,-1.4128,-1.3079,-1.2421,-1.1637,-1.1115,-1.0717,-1.0717,-1.0717,-1.0717,-1.0717,-1.0717,-1.0717,-1.0717,-1.0731,-1.0744,-1.0751,-1.0744,-1.088,-1.1104,-1.1382,-1.1234,-1.161,-1.2081,-1.2325,-1.2461,-1.2494,-1.2501,-1.2501,-1.2656,-1.2811,-1.3568,-1.4483,-1.525,-1.7569,-2.0211,-2.1789,-2.2217,-2.2295,-2.2283,-2.2169,-2.1604,-1.5957,-1.431,-1.4758,-1.4483,-1.4022,-1.2958,-1.2494,-1.2494,-1.2488,-1.2461,-1.2467,-1.2481,-1.2481,-1.2386,-1.2277,-1.2128,-1.2054,-1.1938,-1.1864,-1.1884,-1.1804,-1.1978,-1.2159,-1.2622,-1.2956,-1.32,-1.3339,-1.3267,-1.3152,-1.318,-1.3227,-1.3322,-1.3342,-1.337,-1.3383,-1.3397,-1.3397,-1.3397,-1.3397,-1.341,-1.3417,-1.3437,-1.3458,-1.3444,-1.3424,-1.3478,-1.3559,-1.3425,-1.3459,-1.3492,-1.3702,-1.3586,-1.3666,-1.4112,-1.418,-1.4194,-1.4211,-1.459,-1.5519,-1.6221,-1.6785,-1.7741,-1.8239,-1.8456,-1.877,-1.9,-1.906,-1.9072,-1.8547,-1.7753,-1.6969,-1.6183,-1.5424,-1.4119,-1.2947,-1.2816,-1.2033,-1.124,-1.0717,-1.0717,-1.0717,-1.0717,-1.0717,-1.0717,-1.0717,-1.0717,-1.0717,-1.0731,-1.0839,-1.0867,-1.0941,-1.109,-1.1321,-1.145,-1.1444,-1.1716,-1.2094,-1.2325,-1.2488,-1.2481,-1.2481,-1.2474,-1.2467,-1.2461,-1.2923,-1.3546,-1.4007,-1.5378,-1.7388,-1.8795,-2.1976,-2.2091,-2.2079,-2.0005,-1.7369,-1.3283,-1.2845,-1.3231,-1.3406,-1.3252,-1.2494,-1.256,-1.258,-1.2433,-1.2512,-1.2498,-1.2484,-1.2512,-1.245,-1.2354,-1.2258,-1.2115,-1.2054,-1.2013,-1.202,-1.1978,-1.2126,-1.2192,-1.2527,-1.2766,-1.3123,-1.299,-1.2919,-1.3281,-1.3308,-1.3322,-1.3376,-1.3376,-1.339,-1.3397,-1.3403,-1.3417,-1.341,-1.3397,-1.3424,-1.3458,-1.3478,-1.3539,-1.3593,-1.3627,-1.3668,-1.3709,-1.3586,-1.364,-1.3899,-1.396,-1.398,-1.382,-1.4215,-1.4304,-1.4204,-1.2725,-1.3242,-1.3843,-1.4729,-1.5888,-1.7665,-1.8577,-1.8819,-1.9,-1.8816,-1.8559,-1.8852,-1.8056,-1.6602,-1.5544,-1.5014,-1.3997,-1.2684,-1.2033,-1.1901,-1.1247,-1.085,-1.0717,-1.0717,-1.0717,-1.0717,-1.0717,-1.0717,-1.0717,-1.0717,-1.0758,-1.0846,-1.0995,-1.1097,-1.1172,-1.1294,-1.1409,-1.1538,-1.1643,-1.1649,-1.2033,-1.2333,-1.2491,-1.2484,-1.2484,-1.2332,-1.2345,-1.2359,-1.2386,-1.2727,-1.3195,-1.3647,-1.4428,-1.6033,-2.0027,-2.1182,-1.9336,-1.6961,-1.3989,-1.2929,-1.278,-1.2745,-1.2501,-1.2433,-1.242,-1.2505,-1.2359,-1.2338,-1.2409,-1.2291,-1.2332,-1.2345,-1.245,-1.2361,-1.234,-1.2196,-1.2135,-1.2094,-1.2149,-1.2264,-1.2219,-1.2311,-1.2377,-1.2628,-1.2889,-1.2736,-1.2567,-1.2899,-1.3224,-1.3383,-1.339,-1.3397,-1.3376,-1.3363,-1.3397,-1.3451,-1.3437,-1.3403,-1.3471,-1.3559,-1.3627,-1.3702,-1.377,-1.381,-1.3797,-1.3817,-1.3747,-1.3827,-1.4075,-1.4297,-1.4143,-1.415,-1.4331,-1.4386,-1.4292,-1.0609,-1.1689,-1.094,-1.2218,-1.4846,-1.7163,-1.8451,-1.8792,-1.8816,-1.8033,-1.698,-1.8243,-1.7185,-1.5052,-1.3884,-1.3218,-1.2684,-1.1372,-1.1115,-1.085,-1.085,-1.0717,-1.0717,-1.0717,-1.0717,-1.0717,-1.0717,-1.0717,-1.0724,-1.0765,-1.0833,-1.0995,-1.1212,-1.1307,-1.1369,-1.1416,-1.1491,-1.1613,-1.1603,-1.1717,-1.1932,-1.2175,-1.2285,-1.2299,-1.2292,-1.2176,-1.2196,-1.2216,-1.2284,-1.2491,-1.2532,-1.2553,-1.2608,-1.2556,-1.6614,-1.831,-1.5665,-1.4042,-1.3096,-1.2965,-1.2752,-1.2617,-1.244,-1.2338,-1.2318,-1.2484,-1.2338,-1.2352,-1.2325,-1.2079,-1.1972,-1.2106,-1.2233,-1.2338,-1.2457,-1.2257,-1.2182,-1.2196,-1.2271,-1.2359,-1.2433,-1.2474,-1.2237,-1.2366,-1.0124,-0.9743,-0.9838,-1.186,-1.2351,-1.3336,-1.3349,-1.339,-1.3363,-1.3315,-1.3363,-1.3298,-1.3512,-1.3665,-1.3823,-1.3926,-1.381,-1.3865,-1.3919,-1.3939,-1.3892,-1.3933,-1.3881,-1.3981,-1.4238,-1.4272,-1.4245,-1.4245,-1.44,-1.4245,-1.4299,-1.0406,-1.0998,-1.1713,-1.2475,-1.3509,-1.5206,-1.6022,-1.6073,-1.6084,-1.5814,-1.5564,-1.5974,-1.5192,-1.3333,-1.2127,-1.1615,-1.1233,-1.0982,-1.085,-1.0717,-1.0717,-1.0717,-1.0717,-1.0717,-1.0717,-1.0717,-1.0717,-1.0731,-1.0758,-1.0812,-1.1036,-1.126,-1.1355,-1.1443,-1.1511,-1.1552,-1.1579,-1.1633,-1.1603,-1.1643,-1.1697,-1.1945,-1.2013,-1.2054,-1.206,-1.1985,-1.2291,-1.2332,-1.2461,-1.2678,-1.2739,-1.2779,-1.2641,-1.2635,-1.4403,-1.52,-1.4042,-1.3183,-1.3068,-1.3012,-1.28,-1.2603,-1.242,-1.24,-1.2379,-1.2366,-1.2338,-1.2345,-1.2338,-1.2206,-1.2099,-1.2253,-1.2393,-1.2379,-1.2366,-1.2366,-1.2311,-1.2332,-1.2406,-1.2433,-1.2515,-1.1535,-1.1278,-0.8114,-0.6201,-0.5937,-0.6804,-0.9316,-1.1659,-1.2484,-1.3329,-1.3376,-1.3363,-1.3315,-1.3238,-1.3338,-1.3559,-1.3957,-1.3961,-1.4105,-1.4153,-1.4027,-1.4068,-1.4082,-1.4068,-1.4122,-1.4217,-1.4285,-1.4299,-1.4299,-1.4278,-1.4292,-1.4299,-1.4299,-1.4299,-1.0324,-1.0623,-1.1467,-1.1942,-1.215,-1.3473,-1.3866,-1.3464,-1.4381,-1.4642,-1.4128,-1.4688,-1.3892,-1.2025,-1.1212,-1.0822,-1.085,-1.0717,-1.0717,-1.0717,-1.0717,-1.0717,-1.0717,-1.0717,-1.0717,-1.0717,-1.0738,-1.0758,-1.0839,-1.1029,-1.1246,-1.1355,-1.1436,-1.1525,-1.1586,-1.1599,-1.1606,-1.164,-1.1549,-1.159,-1.1643,-1.1703,-1.177,-1.1898,-1.1755,-1.2237,-1.2467,-1.2515,-1.2651,-1.2834,-1.2868,-1.2908,-1.2942,-1.2956,-1.2869,-1.3689,-1.3618,-1.3089,-1.2922,-1.28,-1.2691,-1.2583,-1.2501,-1.2488,-1.2427,-1.2379,-1.2206,-1.2199,-1.2464,-1.2443,-1.2491,-1.2532,-1.2539,-1.2539,-1.244,-1.2494,-1.2488,-1.2488,-1.2508,-1.2528,-1.1816,-1.0482,-0.8335,-0.4688,-0.2777,-0.3628,-0.4819,-0.6673,-0.9677,-1.2008,-1.2853,-1.339,-1.3363,-1.3322,-1.3271,-1.323,-1.3668,-1.3961,-1.4146,-1.4263,-1.4318,-1.4163,-1.4183,-1.4224,-1.4265,-1.4292,-1.4278,-1.4285,-1.4299,-1.4299,-1.4299,-1.4299,-1.4299,-1.4299,-1.4299,-1.0493,-1.0527,-1.0663,-1.0843,-1.085,-1.2165,-1.2033,-1.1115,-1.3341,-1.3866,-1.2955,-1.3928,-1.2997,-1.1247,-1.0711,-1.0711,-1.0717,-1.0717,-1.0717,-1.0717,-1.0717,-1.0717,-1.0717,-1.0724,-1.0744,-1.0738,-1.0778,-1.0867,-1.1036,-1.1199,-1.1335,-1.1416,-1.1531,-1.1606,-1.1613,-1.1619,-1.1619,-1.1633,-1.166,-1.1549,-1.166,-1.1536,-1.161,-1.1709,-1.2115,-1.2546,-1.2628,-1.2576,-1.2617,-1.2732,-1.2827,-1.2922,-1.315,-1.3212,-1.3343,-1.3363,-1.3415,-1.3037,-1.2809,-1.2542,-1.2601,-1.2548,-1.2705,-1.2596,-1.2481,-1.2413,-1.2246,-1.2246,-1.2372,-1.2539,-1.2587,-1.2447,-1.2447,-1.2447,-1.2474,-1.2501,-1.2501,-1.2347,-1.1889,-1.1772,-1.0914,-0.9407,-0.5947,-0.2598,-0.2624,-0.2811,-0.3328,-0.4848,-0.7349,-1.0677,-1.2382,-1.3072,-1.3376,-1.3217,-1.3345,-1.3479,-1.3633,-1.396,-1.4297,-1.438,-1.4224,-1.4258,-1.4292,-1.4299,-1.4299,-1.4299,-1.4299,-1.4299,-1.4299,-1.4299,-1.4299,-1.4299,-1.4299,-1.4299,-1.4299,-1.0561,-1.0663,-1.0704,-1.0717,-1.0717,-1.1115,-1.1115,-1.0717,-1.1372,-1.1637,-1.138,-1.1519,-1.1527,-1.085,-1.0717,-1.0717,-1.0717,-1.0717,-1.0717,-1.0717,-1.0717,-1.0717,-1.0724,-1.0744,-1.0785,-1.0867,-1.0928,-1.1023,-1.1219,-1.1355,-1.1457,-1.1552,-1.1619,-1.1619,-1.1619,-1.1619,-1.1619,-1.1653,-1.1563,-1.1569,-1.1681,-1.161,-1.1577,-1.1904,-1.234,-1.3084,-1.3005,-1.2847,-1.301,-1.3186,-1.3227,-1.3214,-1.3301,-1.3394,-1.3422,-1.3322,-1.3346,-1.3123,-1.2755,-1.2483,-1.2494,-1.2603,-1.2562,-1.2542,-1.2501,-1.2467,-1.2447,-1.2461,-1.2467,-1.2488,-1.2501,-1.2501,-1.2501,-1.2501,-1.2501,-1.2501,-1.2508,-1.1895,-1.1436,-1.0571,-0.9856,-0.7369,-0.3878,-0.2611,-0.2635,-0.2656,-0.2671,-0.385,-0.617,-0.8999,-1.1558,-1.242,-1.3072,-1.3278,-1.3418,-1.3402,-1.374,-1.4041,-1.4359,-1.4251,-1.4299,-1.4299,-1.4299,-1.4299,-1.4299,-1.4299,-1.4299,-1.4299,-1.4299,-1.4299,-1.4299,-1.4299,-1.4299,-1.4299,-1.4299,-1.0643,-1.0717,-1.0717,-1.0717,-1.0717,-1.0717,-1.0717,-1.0717,-1.0717,-1.0717,-1.0717,-1.0717,-1.0717,-1.0717,-1.0717,-1.0717,-1.0717,-1.0717,-1.0717,-1.0717,-1.0717,-1.0717,-1.0738,-1.0785,-1.086,-1.0948,-1.1104,-1.1246,-1.1389,-1.1477,-1.1558,-1.1613,-1.1619,-1.1619,-1.1619,-1.1619,-1.166,-1.1721,-1.165,-1.167,-1.1796,-1.175,-1.1795,-1.2119,-1.2748,-1.3155,-1.3221,-1.3044,-1.3098,-1.318,-1.3152,-1.3139,-1.3219,-1.3171,-1.3171,-1.3157,-1.3068,-1.3096,-1.2766,-1.2507,-1.2508,-1.2501,-1.2501,-1.2508,-1.2508,-1.2481,-1.2481,-1.2488,-1.2488,-1.2501,-1.2501,-1.2501,-1.2501,-1.2501,-1.236,-1.2212,-1.1635,-1.0902,-1.0008,-0.8978,-0.8228,-0.6813,-0.3927,-0.2642,-0.266,-0.2653,-0.2669,-0.3353,-0.5513,-0.7516,-1.0065,-1.1969,-1.2656,-1.3224,-1.3539,-1.37,-1.3693,-1.3974,-1.4238,-1.4272,-1.4299,-1.4299,-1.4299,-1.4299,-1.4299,-1.4299,-1.4299,-1.4299,-1.4299,-1.4299,-1.4299,-1.4299,-1.4299,-1.4299,-1.4299,-1.0717,-1.0717,-1.0717,-1.0717,-1.0717,-1.0717,-1.0717,-1.0717,-1.0717,-1.0717,-1.0717,-1.0717,-1.0717,-1.0717,-1.0717,-1.0717,-1.0717,-1.0717,-1.0717,-1.0717,-1.0717,-1.0758,-1.0812,-1.0873,-1.0962,-1.1111,-1.1287,-1.1362,-1.145,-1.1531,-1.1592,-1.1613,-1.1619,-1.1619,-1.1619,-1.1653,-1.1708,-1.1803,-1.1744,-1.1831,-1.1884,-1.1788,-1.2,-1.2333,-1.28,-1.3089,-1.3017,-1.3119,-1.3064,-1.3178,-1.2976,-1.2949,-1.2915,-1.3034,-1.2728,-1.2702,-1.2937,-1.2876,-1.2548,-1.2447,-1.2528,-1.2501,-1.2501,-1.2501,-1.2501,-1.2501,-1.2501,-1.2501,-1.2501,-1.2501,-1.2501,-1.2501,-1.2501,-1.2367,-1.2225,-1.1791,-1.0919,-0.9724,-0.8531,-0.7475,-0.6533,-0.5415,-0.4296,-0.3001,-0.2672,-0.2664,-0.3,-0.385,-0.4873,-0.6899,-0.9114,-1.1053,-1.2307,-1.2898,-1.3686,-1.382,-1.3806,-1.4028,-1.4272,-1.4285,-1.4299,-1.4299,-1.4299,-1.4299,-1.4299,-1.4299,-1.4299,-1.4299,-1.4299,-1.4299,-1.4299,-1.4299,-1.4299,-1.4299,-1.4299,-1.0717,-1.0717,-1.0717,-1.0717,-1.0717,-1.0717,-1.0717,-1.0717,-1.0717,-1.0717,-1.0717,-1.0717,-1.0717,-1.0717,-1.0717,-1.0717,-1.0717,-1.0717,-1.0717,-1.0717,-1.0744,-1.0806,-1.0894,-1.0982,-1.1104,-1.128,-1.1457,-1.1545,-1.1531,-1.1579,-1.1476,-1.1469,-1.1619,-1.1626,-1.1502,-1.1701,-1.1803,-1.1911,-1.1918,-1.2032,-1.2216,-1.2271,-1.2192,-1.234,-1.2481,-1.2635,-1.2622,-1.2829,-1.2983,-1.2935,-1.284,-1.2793,-1.291,-1.2705,-1.2548,-1.2574,-1.28,-1.2644,-1.261,-1.2562,-1.2515,-1.2501,-1.2501,-1.2501,-1.2501,-1.2501,-1.2501,-1.2508,-1.2508,-1.2515,-1.2508,-1.2501,-1.2508,-1.2096,-1.1816,-1.0937,-1.0051,-0.8202,-0.6492,-0.5721,-0.4933,-0.4125,-0.3312,-0.2671,-0.2686,-0.268,-0.268,-0.3363,-0.3711,-0.5924,-0.8158,-1.0114,-1.1755,-1.2884,-1.3847,-1.4122,-1.4075,-1.4285,-1.4299,-1.4299,-1.4299,-1.4299,-1.4299,-1.4299,-1.4299,-1.4299,-1.4299,-1.4299,-1.4299,-1.4299,-1.4299,-1.4299,-1.4299,-1.4299,-1.4299]}]]